<?xml version="1.0" encoding="UTF-8" standalone="no" ?>
<gpx xmlns="http://www.topografix.com/GPX/1/1" xmlns:xsi="http://www.w3.org/2001/XMLSchema-instance" xsi:schemaLocation="http://www.topografix.com/GPX/1/1 http://www.topografix.com/GPX/1/1/gpx.xsd" version="1.1" creator="VisuGPX - https://www.visugpx.com">
  <metadata>
    <name>14_10_2012</name>
    <desc><![CDATA[Petite sortie avec erwan]]></desc>
  </metadata>
  <trk>
    <name><![CDATA[SportyPalTrack]]></name>
    <desc><![CDATA[The track description]]></desc>
    <trkseg>
      <trkpt lat="48.43893" lon="-4.39508">
        <ele>134.40002441406</ele>
        <time>2012-10-14T14:21:06Z</time>
      </trkpt>
      <trkpt lat="48.43893" lon="-4.39508">
        <ele>134.40002441406</ele>
        <time>2012-10-14T14:21:09Z</time>
      </trkpt>
      <trkpt lat="48.43893" lon="-4.39508">
        <ele>134.40002441406</ele>
        <time>2012-10-14T14:21:13Z</time>
      </trkpt>
      <trkpt lat="48.43893" lon="-4.39508">
        <ele>134.40002441406</ele>
        <time>2012-10-14T14:21:16Z</time>
      </trkpt>
      <trkpt lat="48.43893" lon="-4.39508">
        <ele>134.40002441406</ele>
        <time>2012-10-14T14:21:20Z</time>
      </trkpt>
      <trkpt lat="48.43887" lon="-4.39511">
        <ele>132.95001220703</ele>
        <time>2012-10-14T14:21:24Z</time>
      </trkpt>
      <trkpt lat="48.43884" lon="-4.39512">
        <ele>132.62498474121</ele>
        <time>2012-10-14T14:21:28Z</time>
      </trkpt>
      <trkpt lat="48.43884" lon="-4.39512">
        <ele>132.59997558594</ele>
        <time>2012-10-14T14:21:31Z</time>
      </trkpt>
      <trkpt lat="48.43884" lon="-4.39512">
        <ele>132.69998168945</ele>
        <time>2012-10-14T14:21:35Z</time>
      </trkpt>
      <trkpt lat="48.43885" lon="-4.39511">
        <ele>133.20001220703</ele>
        <time>2012-10-14T14:21:38Z</time>
      </trkpt>
      <trkpt lat="48.43885" lon="-4.39511">
        <ele>133.82501220703</ele>
        <time>2012-10-14T14:21:42Z</time>
      </trkpt>
      <trkpt lat="48.43888" lon="-4.39515">
        <ele>135.9750213623</ele>
        <time>2012-10-14T14:21:46Z</time>
      </trkpt>
      <trkpt lat="48.43888" lon="-4.39522">
        <ele>136.83331298828</ele>
        <time>2012-10-14T14:21:49Z</time>
      </trkpt>
      <trkpt lat="48.43888" lon="-4.39529">
        <ele>137.5</ele>
        <time>2012-10-14T14:21:53Z</time>
      </trkpt>
      <trkpt lat="48.43887" lon="-4.39537">
        <ele>137.94999694824</ele>
        <time>2012-10-14T14:21:57Z</time>
      </trkpt>
      <trkpt lat="48.43889" lon="-4.39543">
        <ele>138.14999389648</ele>
        <time>2012-10-14T14:22:01Z</time>
      </trkpt>
      <trkpt lat="48.43896" lon="-4.39547">
        <ele>138.22500610352</ele>
        <time>2012-10-14T14:22:05Z</time>
      </trkpt>
      <trkpt lat="48.4391" lon="-4.39545">
        <ele>138.125</ele>
        <time>2012-10-14T14:22:10Z</time>
      </trkpt>
      <trkpt lat="48.43926" lon="-4.39542">
        <ele>137.74998474121</ele>
        <time>2012-10-14T14:22:13Z</time>
      </trkpt>
      <trkpt lat="48.43943" lon="-4.39533">
        <ele>137.17500305176</ele>
        <time>2012-10-14T14:22:17Z</time>
      </trkpt>
      <trkpt lat="48.43961" lon="-4.39526">
        <ele>136.77499389648</ele>
        <time>2012-10-14T14:22:21Z</time>
      </trkpt>
      <trkpt lat="48.43976" lon="-4.39521">
        <ele>136.56665039062</ele>
        <time>2012-10-14T14:22:24Z</time>
      </trkpt>
      <trkpt lat="48.43991" lon="-4.39513">
        <ele>136.62498474121</ele>
        <time>2012-10-14T14:22:28Z</time>
      </trkpt>
      <trkpt lat="48.44004" lon="-4.39501">
        <ele>136.76666259766</ele>
        <time>2012-10-14T14:22:31Z</time>
      </trkpt>
      <trkpt lat="48.44018" lon="-4.39489">
        <ele>137.00001525879</ele>
        <time>2012-10-14T14:22:35Z</time>
      </trkpt>
      <trkpt lat="48.44034" lon="-4.39477">
        <ele>137.42498779297</ele>
        <time>2012-10-14T14:22:39Z</time>
      </trkpt>
      <trkpt lat="48.44047" lon="-4.39466">
        <ele>137.76666259766</ele>
        <time>2012-10-14T14:22:42Z</time>
      </trkpt>
      <trkpt lat="48.4406" lon="-4.39455">
        <ele>137.875</ele>
        <time>2012-10-14T14:22:46Z</time>
      </trkpt>
      <trkpt lat="48.44071" lon="-4.39444">
        <ele>138.26666259766</ele>
        <time>2012-10-14T14:22:49Z</time>
      </trkpt>
      <trkpt lat="48.4408" lon="-4.3943">
        <ele>138.67500305176</ele>
        <time>2012-10-14T14:22:53Z</time>
      </trkpt>
      <trkpt lat="48.44094" lon="-4.39419">
        <ele>139.19999694824</ele>
        <time>2012-10-14T14:22:57Z</time>
      </trkpt>
      <trkpt lat="48.44107" lon="-4.39409">
        <ele>139.66666666667</ele>
        <time>2012-10-14T14:23:00Z</time>
      </trkpt>
      <trkpt lat="48.44119" lon="-4.39397">
        <ele>140.05000305176</ele>
        <time>2012-10-14T14:23:04Z</time>
      </trkpt>
      <trkpt lat="48.44131" lon="-4.39384">
        <ele>140.53332519531</ele>
        <time>2012-10-14T14:23:07Z</time>
      </trkpt>
      <trkpt lat="48.44143" lon="-4.39369">
        <ele>140.82499694824</ele>
        <time>2012-10-14T14:23:11Z</time>
      </trkpt>
      <trkpt lat="48.44156" lon="-4.39353">
        <ele>141</ele>
        <time>2012-10-14T14:23:15Z</time>
      </trkpt>
      <trkpt lat="48.44168" lon="-4.39339">
        <ele>141.19999186198</ele>
        <time>2012-10-14T14:23:18Z</time>
      </trkpt>
      <trkpt lat="48.44179" lon="-4.39324">
        <ele>141.35000610352</ele>
        <time>2012-10-14T14:23:22Z</time>
      </trkpt>
      <trkpt lat="48.4419" lon="-4.39309">
        <ele>141.46667480469</ele>
        <time>2012-10-14T14:23:25Z</time>
      </trkpt>
      <trkpt lat="48.44199" lon="-4.39296">
        <ele>141.45001220703</ele>
        <time>2012-10-14T14:23:29Z</time>
      </trkpt>
      <trkpt lat="48.44208" lon="-4.39281">
        <ele>141.40002441406</ele>
        <time>2012-10-14T14:23:33Z</time>
      </trkpt>
      <trkpt lat="48.44216" lon="-4.39267">
        <ele>141.5</ele>
        <time>2012-10-14T14:23:36Z</time>
      </trkpt>
      <trkpt lat="48.44225" lon="-4.39251">
        <ele>141.45001220703</ele>
        <time>2012-10-14T14:23:40Z</time>
      </trkpt>
      <trkpt lat="48.44237" lon="-4.39229">
        <ele>141.32501220703</ele>
        <time>2012-10-14T14:23:44Z</time>
      </trkpt>
      <trkpt lat="48.44249" lon="-4.39206">
        <ele>141.125</ele>
        <time>2012-10-14T14:23:48Z</time>
      </trkpt>
      <trkpt lat="48.44261" lon="-4.3918">
        <ele>140.875</ele>
        <time>2012-10-14T14:23:52Z</time>
      </trkpt>
      <trkpt lat="48.44273" lon="-4.39155">
        <ele>140.63334147135</ele>
        <time>2012-10-14T14:23:55Z</time>
      </trkpt>
      <trkpt lat="48.44286" lon="-4.39127">
        <ele>139.42500305176</ele>
        <time>2012-10-14T14:23:59Z</time>
      </trkpt>
      <trkpt lat="48.443" lon="-4.39098">
        <ele>137.8666788737</ele>
        <time>2012-10-14T14:24:02Z</time>
      </trkpt>
      <trkpt lat="48.44314" lon="-4.39067">
        <ele>136.02500915527</ele>
        <time>2012-10-14T14:24:06Z</time>
      </trkpt>
      <trkpt lat="48.44332" lon="-4.39029">
        <ele>133.82498168945</ele>
        <time>2012-10-14T14:24:10Z</time>
      </trkpt>
      <trkpt lat="48.44347" lon="-4.38997">
        <ele>132.3666788737</ele>
        <time>2012-10-14T14:24:13Z</time>
      </trkpt>
      <trkpt lat="48.44361" lon="-4.38965">
        <ele>131.02499389648</ele>
        <time>2012-10-14T14:24:17Z</time>
      </trkpt>
      <trkpt lat="48.44378" lon="-4.38929">
        <ele>130.125</ele>
        <time>2012-10-14T14:24:21Z</time>
      </trkpt>
      <trkpt lat="48.44393" lon="-4.38895">
        <ele>129.39998372396</ele>
        <time>2012-10-14T14:24:24Z</time>
      </trkpt>
      <trkpt lat="48.44407" lon="-4.38863">
        <ele>129.44999694824</ele>
        <time>2012-10-14T14:24:28Z</time>
      </trkpt>
      <trkpt lat="48.44421" lon="-4.38832">
        <ele>129.90000406901</ele>
        <time>2012-10-14T14:24:31Z</time>
      </trkpt>
      <trkpt lat="48.44434" lon="-4.38803">
        <ele>130.64999389648</ele>
        <time>2012-10-14T14:24:35Z</time>
      </trkpt>
      <trkpt lat="48.44447" lon="-4.38774">
        <ele>132.25</ele>
        <time>2012-10-14T14:24:39Z</time>
      </trkpt>
      <trkpt lat="48.44458" lon="-4.38752">
        <ele>133.93332926432</ele>
        <time>2012-10-14T14:24:42Z</time>
      </trkpt>
      <trkpt lat="48.44468" lon="-4.38732">
        <ele>135.14999389648</ele>
        <time>2012-10-14T14:24:46Z</time>
      </trkpt>
      <trkpt lat="48.44473" lon="-4.38711">
        <ele>136.53332519531</ele>
        <time>2012-10-14T14:24:49Z</time>
      </trkpt>
      <trkpt lat="48.44472" lon="-4.38694">
        <ele>138.05000305176</ele>
        <time>2012-10-14T14:24:53Z</time>
      </trkpt>
      <trkpt lat="48.4447" lon="-4.38676">
        <ele>139.02499389648</ele>
        <time>2012-10-14T14:24:57Z</time>
      </trkpt>
      <trkpt lat="48.44469" lon="-4.3866">
        <ele>139.26666259766</ele>
        <time>2012-10-14T14:25:00Z</time>
      </trkpt>
      <trkpt lat="48.44468" lon="-4.38644">
        <ele>139.5</ele>
        <time>2012-10-14T14:25:04Z</time>
      </trkpt>
      <trkpt lat="48.44467" lon="-4.38624">
        <ele>140.59999084473</ele>
        <time>2012-10-14T14:25:08Z</time>
      </trkpt>
      <trkpt lat="48.44468" lon="-4.38605">
        <ele>141.97500610352</ele>
        <time>2012-10-14T14:25:12Z</time>
      </trkpt>
      <trkpt lat="48.4447" lon="-4.38583">
        <ele>142.625</ele>
        <time>2012-10-14T14:25:16Z</time>
      </trkpt>
      <trkpt lat="48.44471" lon="-4.38561">
        <ele>143.16666666667</ele>
        <time>2012-10-14T14:25:19Z</time>
      </trkpt>
      <trkpt lat="48.44473" lon="-4.38538">
        <ele>143.52499389648</ele>
        <time>2012-10-14T14:25:23Z</time>
      </trkpt>
      <trkpt lat="48.44475" lon="-4.38516">
        <ele>143.73333740234</ele>
        <time>2012-10-14T14:25:26Z</time>
      </trkpt>
      <trkpt lat="48.44477" lon="-4.38497">
        <ele>144.05000305176</ele>
        <time>2012-10-14T14:25:30Z</time>
      </trkpt>
      <trkpt lat="48.44479" lon="-4.38479">
        <ele>144.40000406901</ele>
        <time>2012-10-14T14:25:33Z</time>
      </trkpt>
      <trkpt lat="48.44482" lon="-4.38459">
        <ele>144.52499389648</ele>
        <time>2012-10-14T14:25:37Z</time>
      </trkpt>
      <trkpt lat="48.44484" lon="-4.38436">
        <ele>145.10000610352</ele>
        <time>2012-10-14T14:25:41Z</time>
      </trkpt>
      <trkpt lat="48.44486" lon="-4.38415">
        <ele>145.75</ele>
        <time>2012-10-14T14:25:44Z</time>
      </trkpt>
      <trkpt lat="48.44489" lon="-4.38394">
        <ele>145.72500610352</ele>
        <time>2012-10-14T14:25:48Z</time>
      </trkpt>
      <trkpt lat="48.44493" lon="-4.38374">
        <ele>146.30000813802</ele>
        <time>2012-10-14T14:25:51Z</time>
      </trkpt>
      <trkpt lat="48.44497" lon="-4.38354">
        <ele>147.55000305176</ele>
        <time>2012-10-14T14:25:55Z</time>
      </trkpt>
      <trkpt lat="48.44502" lon="-4.38334">
        <ele>148.56665039062</ele>
        <time>2012-10-14T14:25:58Z</time>
      </trkpt>
      <trkpt lat="48.44509" lon="-4.38315">
        <ele>149.32499694824</ele>
        <time>2012-10-14T14:26:02Z</time>
      </trkpt>
      <trkpt lat="48.44517" lon="-4.38293">
        <ele>149.97500610352</ele>
        <time>2012-10-14T14:26:06Z</time>
      </trkpt>
      <trkpt lat="48.44524" lon="-4.38273">
        <ele>150.5</ele>
        <time>2012-10-14T14:26:09Z</time>
      </trkpt>
      <trkpt lat="48.44532" lon="-4.38254">
        <ele>150.87501525879</ele>
        <time>2012-10-14T14:26:13Z</time>
      </trkpt>
      <trkpt lat="48.44543" lon="-4.38231">
        <ele>151.07498168945</ele>
        <time>2012-10-14T14:26:17Z</time>
      </trkpt>
      <trkpt lat="48.44553" lon="-4.38208">
        <ele>151.20001220703</ele>
        <time>2012-10-14T14:26:21Z</time>
      </trkpt>
      <trkpt lat="48.44564" lon="-4.38184">
        <ele>151.27499389648</ele>
        <time>2012-10-14T14:26:25Z</time>
      </trkpt>
      <trkpt lat="48.44574" lon="-4.38163">
        <ele>151.33333333333</ele>
        <time>2012-10-14T14:26:28Z</time>
      </trkpt>
      <trkpt lat="48.44582" lon="-4.38143">
        <ele>151.16666666667</ele>
        <time>2012-10-14T14:26:31Z</time>
      </trkpt>
      <trkpt lat="48.44593" lon="-4.3812">
        <ele>150.92498779297</ele>
        <time>2012-10-14T14:26:35Z</time>
      </trkpt>
      <trkpt lat="48.44604" lon="-4.38093">
        <ele>150.59999084473</ele>
        <time>2012-10-14T14:26:39Z</time>
      </trkpt>
      <trkpt lat="48.44612" lon="-4.38064">
        <ele>150.10000610352</ele>
        <time>2012-10-14T14:26:43Z</time>
      </trkpt>
      <trkpt lat="48.44608" lon="-4.38029">
        <ele>149.02500915527</ele>
        <time>2012-10-14T14:26:47Z</time>
      </trkpt>
      <trkpt lat="48.446" lon="-4.37996">
        <ele>148.6333211263</ele>
        <time>2012-10-14T14:26:50Z</time>
      </trkpt>
      <trkpt lat="48.44592" lon="-4.37964">
        <ele>149.22500610352</ele>
        <time>2012-10-14T14:26:54Z</time>
      </trkpt>
      <trkpt lat="48.44585" lon="-4.37935">
        <ele>149.79998779297</ele>
        <time>2012-10-14T14:26:57Z</time>
      </trkpt>
      <trkpt lat="48.44579" lon="-4.37911">
        <ele>150.36665852865</ele>
        <time>2012-10-14T14:27:00Z</time>
      </trkpt>
      <trkpt lat="48.44572" lon="-4.37885">
        <ele>150.97499084473</ele>
        <time>2012-10-14T14:27:04Z</time>
      </trkpt>
      <trkpt lat="48.44565" lon="-4.37859">
        <ele>151.56667073568</ele>
        <time>2012-10-14T14:27:07Z</time>
      </trkpt>
      <trkpt lat="48.44558" lon="-4.37833">
        <ele>152.05000305176</ele>
        <time>2012-10-14T14:27:11Z</time>
      </trkpt>
      <trkpt lat="48.44554" lon="-4.37807">
        <ele>152.35000610352</ele>
        <time>2012-10-14T14:27:15Z</time>
      </trkpt>
      <trkpt lat="48.44565" lon="-4.37796">
        <ele>152.69999694824</ele>
        <time>2012-10-14T14:27:19Z</time>
      </trkpt>
      <trkpt lat="48.44578" lon="-4.37795">
        <ele>152.90000406901</ele>
        <time>2012-10-14T14:27:22Z</time>
      </trkpt>
      <trkpt lat="48.44592" lon="-4.37791">
        <ele>153.00001525879</ele>
        <time>2012-10-14T14:27:26Z</time>
      </trkpt>
      <trkpt lat="48.44606" lon="-4.37784">
        <ele>153.70001220703</ele>
        <time>2012-10-14T14:27:29Z</time>
      </trkpt>
      <trkpt lat="48.44618" lon="-4.37779">
        <ele>154.30000813802</ele>
        <time>2012-10-14T14:27:32Z</time>
      </trkpt>
      <trkpt lat="48.44631" lon="-4.37772">
        <ele>154.57499694824</ele>
        <time>2012-10-14T14:27:36Z</time>
      </trkpt>
      <trkpt lat="48.44645" lon="-4.37764">
        <ele>155.10001627604</ele>
        <time>2012-10-14T14:27:39Z</time>
      </trkpt>
      <trkpt lat="48.44657" lon="-4.37758">
        <ele>155.29998779297</ele>
        <time>2012-10-14T14:27:42Z</time>
      </trkpt>
      <trkpt lat="48.44669" lon="-4.37755">
        <ele>155.56667073568</ele>
        <time>2012-10-14T14:27:45Z</time>
      </trkpt>
      <trkpt lat="48.44678" lon="-4.37751">
        <ele>156.26668294271</ele>
        <time>2012-10-14T14:27:48Z</time>
      </trkpt>
      <trkpt lat="48.44684" lon="-4.37738">
        <ele>156.43332926432</ele>
        <time>2012-10-14T14:27:52Z</time>
      </trkpt>
      <trkpt lat="48.4468" lon="-4.3771">
        <ele>155.27500915527</ele>
        <time>2012-10-14T14:27:55Z</time>
      </trkpt>
      <trkpt lat="48.44674" lon="-4.37681">
        <ele>153.83331298828</ele>
        <time>2012-10-14T14:27:58Z</time>
      </trkpt>
      <trkpt lat="48.44669" lon="-4.37658">
        <ele>153.13334147135</ele>
        <time>2012-10-14T14:28:01Z</time>
      </trkpt>
      <trkpt lat="48.44664" lon="-4.37629">
        <ele>152.22499084473</ele>
        <time>2012-10-14T14:28:05Z</time>
      </trkpt>
      <trkpt lat="48.44659" lon="-4.37598">
        <ele>151.60001627604</ele>
        <time>2012-10-14T14:28:08Z</time>
      </trkpt>
      <trkpt lat="48.44656" lon="-4.37563">
        <ele>150.59999084473</ele>
        <time>2012-10-14T14:28:12Z</time>
      </trkpt>
      <trkpt lat="48.44653" lon="-4.37519">
        <ele>149.25</ele>
        <time>2012-10-14T14:28:16Z</time>
      </trkpt>
      <trkpt lat="48.4465" lon="-4.37479">
        <ele>148.06667073568</ele>
        <time>2012-10-14T14:28:19Z</time>
      </trkpt>
      <trkpt lat="48.44645" lon="-4.37445">
        <ele>147.1333211263</ele>
        <time>2012-10-14T14:28:22Z</time>
      </trkpt>
      <trkpt lat="48.44637" lon="-4.37411">
        <ele>146.33331298828</ele>
        <time>2012-10-14T14:28:26Z</time>
      </trkpt>
      <trkpt lat="48.44624" lon="-4.37372">
        <ele>145.57501220703</ele>
        <time>2012-10-14T14:28:29Z</time>
      </trkpt>
      <trkpt lat="48.44609" lon="-4.37337">
        <ele>145.6333211263</ele>
        <time>2012-10-14T14:28:32Z</time>
      </trkpt>
      <trkpt lat="48.44596" lon="-4.3731">
        <ele>145.8666788737</ele>
        <time>2012-10-14T14:28:35Z</time>
      </trkpt>
      <trkpt lat="48.44581" lon="-4.3728">
        <ele>145.72499084473</ele>
        <time>2012-10-14T14:28:39Z</time>
      </trkpt>
      <trkpt lat="48.44564" lon="-4.37246">
        <ele>145.35000610352</ele>
        <time>2012-10-14T14:28:43Z</time>
      </trkpt>
      <trkpt lat="48.44549" lon="-4.37216">
        <ele>145.09999593099</ele>
        <time>2012-10-14T14:28:46Z</time>
      </trkpt>
      <trkpt lat="48.44537" lon="-4.37189">
        <ele>144.69999186198</ele>
        <time>2012-10-14T14:28:49Z</time>
      </trkpt>
      <trkpt lat="48.4452" lon="-4.37156">
        <ele>143.77499389648</ele>
        <time>2012-10-14T14:28:53Z</time>
      </trkpt>
      <trkpt lat="48.44499" lon="-4.37117">
        <ele>142.25</ele>
        <time>2012-10-14T14:28:57Z</time>
      </trkpt>
      <trkpt lat="48.44474" lon="-4.37075">
        <ele>139.55000305176</ele>
        <time>2012-10-14T14:29:01Z</time>
      </trkpt>
      <trkpt lat="48.44448" lon="-4.37031">
        <ele>136.92500305176</ele>
        <time>2012-10-14T14:29:06Z</time>
      </trkpt>
      <trkpt lat="48.44426" lon="-4.36994">
        <ele>135.96667480469</ele>
        <time>2012-10-14T14:29:09Z</time>
      </trkpt>
      <trkpt lat="48.44408" lon="-4.36962">
        <ele>136.97500610352</ele>
        <time>2012-10-14T14:29:12Z</time>
      </trkpt>
      <trkpt lat="48.44394" lon="-4.36937">
        <ele>138.16666666667</ele>
        <time>2012-10-14T14:29:16Z</time>
      </trkpt>
      <trkpt lat="48.44381" lon="-4.36914">
        <ele>139</ele>
        <time>2012-10-14T14:29:20Z</time>
      </trkpt>
      <trkpt lat="48.44368" lon="-4.36887">
        <ele>139.65000915527</ele>
        <time>2012-10-14T14:29:24Z</time>
      </trkpt>
      <trkpt lat="48.44355" lon="-4.36859">
        <ele>140.12498474121</ele>
        <time>2012-10-14T14:29:28Z</time>
      </trkpt>
      <trkpt lat="48.44344" lon="-4.36827">
        <ele>139.60000610352</ele>
        <time>2012-10-14T14:29:32Z</time>
      </trkpt>
      <trkpt lat="48.44336" lon="-4.36797">
        <ele>139.1333211263</ele>
        <time>2012-10-14T14:29:35Z</time>
      </trkpt>
      <trkpt lat="48.44329" lon="-4.36766">
        <ele>138.80000305176</ele>
        <time>2012-10-14T14:29:39Z</time>
      </trkpt>
      <trkpt lat="48.44323" lon="-4.36735">
        <ele>138.09999593099</ele>
        <time>2012-10-14T14:29:42Z</time>
      </trkpt>
      <trkpt lat="48.44315" lon="-4.36702">
        <ele>136.92500305176</ele>
        <time>2012-10-14T14:29:46Z</time>
      </trkpt>
      <trkpt lat="48.44302" lon="-4.36661">
        <ele>136.17501831055</ele>
        <time>2012-10-14T14:29:50Z</time>
      </trkpt>
      <trkpt lat="48.44288" lon="-4.36627">
        <ele>136.90000406901</ele>
        <time>2012-10-14T14:29:53Z</time>
      </trkpt>
      <trkpt lat="48.44269" lon="-4.366">
        <ele>136.62501525879</ele>
        <time>2012-10-14T14:29:57Z</time>
      </trkpt>
      <trkpt lat="48.44247" lon="-4.36581">
        <ele>136.26668294271</ele>
        <time>2012-10-14T14:30:00Z</time>
      </trkpt>
      <trkpt lat="48.44225" lon="-4.36569">
        <ele>136.32499694824</ele>
        <time>2012-10-14T14:30:04Z</time>
      </trkpt>
      <trkpt lat="48.44203" lon="-4.3656">
        <ele>136.96667480469</ele>
        <time>2012-10-14T14:30:07Z</time>
      </trkpt>
      <trkpt lat="48.44183" lon="-4.36555">
        <ele>137.79998779297</ele>
        <time>2012-10-14T14:30:11Z</time>
      </trkpt>
      <trkpt lat="48.44166" lon="-4.36542">
        <ele>138.625</ele>
        <time>2012-10-14T14:30:15Z</time>
      </trkpt>
      <trkpt lat="48.4416" lon="-4.36518">
        <ele>139.22499084473</ele>
        <time>2012-10-14T14:30:19Z</time>
      </trkpt>
      <trkpt lat="48.44157" lon="-4.36495">
        <ele>139.70001220703</ele>
        <time>2012-10-14T14:30:22Z</time>
      </trkpt>
      <trkpt lat="48.44155" lon="-4.36472">
        <ele>140.19999694824</ele>
        <time>2012-10-14T14:30:26Z</time>
      </trkpt>
      <trkpt lat="48.44155" lon="-4.36446">
        <ele>140.77500915527</ele>
        <time>2012-10-14T14:30:30Z</time>
      </trkpt>
      <trkpt lat="48.44155" lon="-4.3642">
        <ele>141.42498779297</ele>
        <time>2012-10-14T14:30:34Z</time>
      </trkpt>
      <trkpt lat="48.44154" lon="-4.36396">
        <ele>142.72500610352</ele>
        <time>2012-10-14T14:30:38Z</time>
      </trkpt>
      <trkpt lat="48.44154" lon="-4.36372">
        <ele>143.44999694824</ele>
        <time>2012-10-14T14:30:41Z</time>
      </trkpt>
      <trkpt lat="48.44155" lon="-4.36351">
        <ele>144</ele>
        <time>2012-10-14T14:30:45Z</time>
      </trkpt>
      <trkpt lat="48.44157" lon="-4.3633">
        <ele>144.42500305176</ele>
        <time>2012-10-14T14:30:48Z</time>
      </trkpt>
      <trkpt lat="48.44158" lon="-4.3631">
        <ele>144.80000813802</ele>
        <time>2012-10-14T14:30:52Z</time>
      </trkpt>
      <trkpt lat="48.4416" lon="-4.3629">
        <ele>145.05000305176</ele>
        <time>2012-10-14T14:30:56Z</time>
      </trkpt>
      <trkpt lat="48.44161" lon="-4.36269">
        <ele>145.30000813802</ele>
        <time>2012-10-14T14:30:59Z</time>
      </trkpt>
      <trkpt lat="48.44166" lon="-4.36254">
        <ele>145.53334554036</ele>
        <time>2012-10-14T14:31:02Z</time>
      </trkpt>
      <trkpt lat="48.44171" lon="-4.36241">
        <ele>146.07499694824</ele>
        <time>2012-10-14T14:31:05Z</time>
      </trkpt>
      <trkpt lat="48.44175" lon="-4.36229">
        <ele>146.46667480469</ele>
        <time>2012-10-14T14:31:08Z</time>
      </trkpt>
      <trkpt lat="48.44178" lon="-4.36216">
        <ele>146.6333211263</ele>
        <time>2012-10-14T14:31:11Z</time>
      </trkpt>
      <trkpt lat="48.44182" lon="-4.36199">
        <ele>146.84999084473</ele>
        <time>2012-10-14T14:31:15Z</time>
      </trkpt>
      <trkpt lat="48.44188" lon="-4.3618">
        <ele>147.60000610352</ele>
        <time>2012-10-14T14:31:19Z</time>
      </trkpt>
      <trkpt lat="48.44193" lon="-4.36161">
        <ele>148.07501220703</ele>
        <time>2012-10-14T14:31:23Z</time>
      </trkpt>
      <trkpt lat="48.44198" lon="-4.36143">
        <ele>148.13334147135</ele>
        <time>2012-10-14T14:31:27Z</time>
      </trkpt>
      <trkpt lat="48.44202" lon="-4.36123">
        <ele>147.80000305176</ele>
        <time>2012-10-14T14:31:31Z</time>
      </trkpt>
      <trkpt lat="48.44206" lon="-4.36101">
        <ele>148.52500915527</ele>
        <time>2012-10-14T14:31:34Z</time>
      </trkpt>
      <trkpt lat="48.44211" lon="-4.3608">
        <ele>148.67498779297</ele>
        <time>2012-10-14T14:31:38Z</time>
      </trkpt>
      <trkpt lat="48.44216" lon="-4.36057">
        <ele>148.94999694824</ele>
        <time>2012-10-14T14:31:43Z</time>
      </trkpt>
      <trkpt lat="48.44218" lon="-4.36036">
        <ele>149.22500610352</ele>
        <time>2012-10-14T14:31:46Z</time>
      </trkpt>
      <trkpt lat="48.44225" lon="-4.3603">
        <ele>149.33333333333</ele>
        <time>2012-10-14T14:31:49Z</time>
      </trkpt>
      <trkpt lat="48.44234" lon="-4.36038">
        <ele>150.1333211263</ele>
        <time>2012-10-14T14:31:52Z</time>
      </trkpt>
      <trkpt lat="48.44247" lon="-4.36049">
        <ele>150.97500610352</ele>
        <time>2012-10-14T14:31:56Z</time>
      </trkpt>
      <trkpt lat="48.44262" lon="-4.36063">
        <ele>151.35000610352</ele>
        <time>2012-10-14T14:32:00Z</time>
      </trkpt>
      <trkpt lat="48.44274" lon="-4.36074">
        <ele>151.03332519531</ele>
        <time>2012-10-14T14:32:03Z</time>
      </trkpt>
      <trkpt lat="48.44286" lon="-4.36083">
        <ele>151</ele>
        <time>2012-10-14T14:32:06Z</time>
      </trkpt>
      <trkpt lat="48.443" lon="-4.36093">
        <ele>151.72499084473</ele>
        <time>2012-10-14T14:32:10Z</time>
      </trkpt>
      <trkpt lat="48.44312" lon="-4.36091">
        <ele>151.96665445964</ele>
        <time>2012-10-14T14:32:13Z</time>
      </trkpt>
      <trkpt lat="48.44317" lon="-4.36077">
        <ele>151.27499389648</ele>
        <time>2012-10-14T14:32:17Z</time>
      </trkpt>
      <trkpt lat="48.44327" lon="-4.36064">
        <ele>150.57499694824</ele>
        <time>2012-10-14T14:32:21Z</time>
      </trkpt>
      <trkpt lat="48.44339" lon="-4.36073">
        <ele>150.34999084473</ele>
        <time>2012-10-14T14:32:26Z</time>
      </trkpt>
      <trkpt lat="48.4435" lon="-4.36081">
        <ele>150.10000610352</ele>
        <time>2012-10-14T14:32:29Z</time>
      </trkpt>
      <trkpt lat="48.44361" lon="-4.36089">
        <ele>149.90000915527</ele>
        <time>2012-10-14T14:32:33Z</time>
      </trkpt>
      <trkpt lat="48.44372" lon="-4.36097">
        <ele>149.69999186198</ele>
        <time>2012-10-14T14:32:36Z</time>
      </trkpt>
      <trkpt lat="48.44384" lon="-4.36105">
        <ele>149.22499084473</ele>
        <time>2012-10-14T14:32:40Z</time>
      </trkpt>
      <trkpt lat="48.44393" lon="-4.36112">
        <ele>148.90000406901</ele>
        <time>2012-10-14T14:32:43Z</time>
      </trkpt>
      <trkpt lat="48.44401" lon="-4.36118">
        <ele>148.67500305176</ele>
        <time>2012-10-14T14:32:47Z</time>
      </trkpt>
      <trkpt lat="48.44412" lon="-4.36124">
        <ele>148.30000813802</ele>
        <time>2012-10-14T14:32:51Z</time>
      </trkpt>
      <trkpt lat="48.44424" lon="-4.36131">
        <ele>147.2749786377</ele>
        <time>2012-10-14T14:32:54Z</time>
      </trkpt>
      <trkpt lat="48.44438" lon="-4.36142">
        <ele>146.82499694824</ele>
        <time>2012-10-14T14:32:58Z</time>
      </trkpt>
      <trkpt lat="48.44449" lon="-4.36152">
        <ele>146.76668294271</ele>
        <time>2012-10-14T14:33:01Z</time>
      </trkpt>
      <trkpt lat="48.44461" lon="-4.36161">
        <ele>146.75</ele>
        <time>2012-10-14T14:33:05Z</time>
      </trkpt>
      <trkpt lat="48.44473" lon="-4.36172">
        <ele>147.40000406901</ele>
        <time>2012-10-14T14:33:08Z</time>
      </trkpt>
      <trkpt lat="48.44485" lon="-4.36183">
        <ele>147.90000915527</ele>
        <time>2012-10-14T14:33:12Z</time>
      </trkpt>
      <trkpt lat="48.44497" lon="-4.36197">
        <ele>147.83333333333</ele>
        <time>2012-10-14T14:33:15Z</time>
      </trkpt>
      <trkpt lat="48.44511" lon="-4.3621">
        <ele>147.57499694824</ele>
        <time>2012-10-14T14:33:19Z</time>
      </trkpt>
      <trkpt lat="48.44529" lon="-4.36218">
        <ele>146.625</ele>
        <time>2012-10-14T14:33:23Z</time>
      </trkpt>
      <trkpt lat="48.44543" lon="-4.36219">
        <ele>146.29998779297</ele>
        <time>2012-10-14T14:33:27Z</time>
      </trkpt>
      <trkpt lat="48.44552" lon="-4.36215">
        <ele>145.55001831055</ele>
        <time>2012-10-14T14:33:31Z</time>
      </trkpt>
      <trkpt lat="48.44563" lon="-4.36213">
        <ele>144.57501220703</ele>
        <time>2012-10-14T14:33:35Z</time>
      </trkpt>
      <trkpt lat="48.44572" lon="-4.36208">
        <ele>144.5</ele>
        <time>2012-10-14T14:33:38Z</time>
      </trkpt>
      <trkpt lat="48.44579" lon="-4.36204">
        <ele>145.15000915527</ele>
        <time>2012-10-14T14:33:42Z</time>
      </trkpt>
      <trkpt lat="48.44586" lon="-4.3621">
        <ele>146.20001220703</ele>
        <time>2012-10-14T14:33:45Z</time>
      </trkpt>
      <trkpt lat="48.44593" lon="-4.36215">
        <ele>146.13334147135</ele>
        <time>2012-10-14T14:33:48Z</time>
      </trkpt>
      <trkpt lat="48.446" lon="-4.3622">
        <ele>145.59999593099</ele>
        <time>2012-10-14T14:33:51Z</time>
      </trkpt>
      <trkpt lat="48.44612" lon="-4.36224">
        <ele>145.72500610352</ele>
        <time>2012-10-14T14:33:55Z</time>
      </trkpt>
      <trkpt lat="48.44623" lon="-4.36232">
        <ele>145.52499389648</ele>
        <time>2012-10-14T14:33:59Z</time>
      </trkpt>
      <trkpt lat="48.44635" lon="-4.36236">
        <ele>146.20001220703</ele>
        <time>2012-10-14T14:34:03Z</time>
      </trkpt>
      <trkpt lat="48.44647" lon="-4.36238">
        <ele>145.92500305176</ele>
        <time>2012-10-14T14:34:07Z</time>
      </trkpt>
      <trkpt lat="48.44664" lon="-4.3624">
        <ele>145.44999694824</ele>
        <time>2012-10-14T14:34:11Z</time>
      </trkpt>
      <trkpt lat="48.4468" lon="-4.36243">
        <ele>145.14999389648</ele>
        <time>2012-10-14T14:34:15Z</time>
      </trkpt>
      <trkpt lat="48.44693" lon="-4.36251">
        <ele>145.42500305176</ele>
        <time>2012-10-14T14:34:19Z</time>
      </trkpt>
      <trkpt lat="48.44706" lon="-4.36257">
        <ele>146.09999084473</ele>
        <time>2012-10-14T14:34:23Z</time>
      </trkpt>
      <trkpt lat="48.44716" lon="-4.36262">
        <ele>146.76666259766</ele>
        <time>2012-10-14T14:34:26Z</time>
      </trkpt>
      <trkpt lat="48.44721" lon="-4.36262">
        <ele>147.76666259766</ele>
        <time>2012-10-14T14:34:29Z</time>
      </trkpt>
      <trkpt lat="48.44727" lon="-4.36253">
        <ele>147.57499694824</ele>
        <time>2012-10-14T14:34:33Z</time>
      </trkpt>
      <trkpt lat="48.44732" lon="-4.36243">
        <ele>147.69999694824</ele>
        <time>2012-10-14T14:34:37Z</time>
      </trkpt>
      <trkpt lat="48.44737" lon="-4.36232">
        <ele>147.80000305176</ele>
        <time>2012-10-14T14:34:41Z</time>
      </trkpt>
      <trkpt lat="48.44742" lon="-4.36221">
        <ele>147.73333740234</ele>
        <time>2012-10-14T14:34:44Z</time>
      </trkpt>
      <trkpt lat="48.44745" lon="-4.36211">
        <ele>148.10000610352</ele>
        <time>2012-10-14T14:34:48Z</time>
      </trkpt>
      <trkpt lat="48.44751" lon="-4.36196">
        <ele>147.22499084473</ele>
        <time>2012-10-14T14:34:52Z</time>
      </trkpt>
      <trkpt lat="48.44755" lon="-4.36185">
        <ele>147.36665852865</ele>
        <time>2012-10-14T14:34:55Z</time>
      </trkpt>
      <trkpt lat="48.44759" lon="-4.36176">
        <ele>148.67500305176</ele>
        <time>2012-10-14T14:34:59Z</time>
      </trkpt>
      <trkpt lat="48.44763" lon="-4.36165">
        <ele>149.23333740234</ele>
        <time>2012-10-14T14:35:02Z</time>
      </trkpt>
      <trkpt lat="48.44766" lon="-4.36154">
        <ele>149.55000305176</ele>
        <time>2012-10-14T14:35:06Z</time>
      </trkpt>
      <trkpt lat="48.4477" lon="-4.36142">
        <ele>150.32499694824</ele>
        <time>2012-10-14T14:35:10Z</time>
      </trkpt>
      <trkpt lat="48.44775" lon="-4.3613">
        <ele>150.80000813802</ele>
        <time>2012-10-14T14:35:13Z</time>
      </trkpt>
      <trkpt lat="48.44778" lon="-4.36122">
        <ele>152.125</ele>
        <time>2012-10-14T14:35:17Z</time>
      </trkpt>
      <trkpt lat="48.44782" lon="-4.36111">
        <ele>153.25001525879</ele>
        <time>2012-10-14T14:35:21Z</time>
      </trkpt>
      <trkpt lat="48.44788" lon="-4.36098">
        <ele>154.32499694824</ele>
        <time>2012-10-14T14:35:25Z</time>
      </trkpt>
      <trkpt lat="48.44793" lon="-4.36085">
        <ele>155.22500610352</ele>
        <time>2012-10-14T14:35:29Z</time>
      </trkpt>
      <trkpt lat="48.44797" lon="-4.36072">
        <ele>155.77500915527</ele>
        <time>2012-10-14T14:35:33Z</time>
      </trkpt>
      <trkpt lat="48.448" lon="-4.36059">
        <ele>155.96665445964</ele>
        <time>2012-10-14T14:35:36Z</time>
      </trkpt>
      <trkpt lat="48.44804" lon="-4.36049">
        <ele>157</ele>
        <time>2012-10-14T14:35:40Z</time>
      </trkpt>
      <trkpt lat="48.44808" lon="-4.36049">
        <ele>158.06665039062</ele>
        <time>2012-10-14T14:35:43Z</time>
      </trkpt>
      <trkpt lat="48.44812" lon="-4.36058">
        <ele>159.07499694824</ele>
        <time>2012-10-14T14:35:47Z</time>
      </trkpt>
      <trkpt lat="48.44817" lon="-4.36072">
        <ele>160.52499389648</ele>
        <time>2012-10-14T14:35:51Z</time>
      </trkpt>
      <trkpt lat="48.44823" lon="-4.36086">
        <ele>161.10000610352</ele>
        <time>2012-10-14T14:35:55Z</time>
      </trkpt>
      <trkpt lat="48.4483" lon="-4.36098">
        <ele>161.30000305176</ele>
        <time>2012-10-14T14:35:59Z</time>
      </trkpt>
      <trkpt lat="48.44839" lon="-4.36108">
        <ele>161.87498474121</ele>
        <time>2012-10-14T14:36:03Z</time>
      </trkpt>
      <trkpt lat="48.44847" lon="-4.3612">
        <ele>162.625</ele>
        <time>2012-10-14T14:36:07Z</time>
      </trkpt>
      <trkpt lat="48.44854" lon="-4.36129">
        <ele>163</ele>
        <time>2012-10-14T14:36:11Z</time>
      </trkpt>
      <trkpt lat="48.4486" lon="-4.36134">
        <ele>162.93334960938</ele>
        <time>2012-10-14T14:36:14Z</time>
      </trkpt>
      <trkpt lat="48.44867" lon="-4.36143">
        <ele>163.10000610352</ele>
        <time>2012-10-14T14:36:18Z</time>
      </trkpt>
      <trkpt lat="48.44876" lon="-4.36156">
        <ele>163.375</ele>
        <time>2012-10-14T14:36:22Z</time>
      </trkpt>
      <trkpt lat="48.44884" lon="-4.36163">
        <ele>163.46667480469</ele>
        <time>2012-10-14T14:36:25Z</time>
      </trkpt>
      <trkpt lat="48.44892" lon="-4.36163">
        <ele>163.67500305176</ele>
        <time>2012-10-14T14:36:29Z</time>
      </trkpt>
      <trkpt lat="48.44902" lon="-4.3616">
        <ele>163.8500213623</ele>
        <time>2012-10-14T14:36:33Z</time>
      </trkpt>
      <trkpt lat="48.44913" lon="-4.3616">
        <ele>163.75</ele>
        <time>2012-10-14T14:36:37Z</time>
      </trkpt>
      <trkpt lat="48.44923" lon="-4.36163">
        <ele>164.55000305176</ele>
        <time>2012-10-14T14:36:41Z</time>
      </trkpt>
      <trkpt lat="48.44933" lon="-4.36157">
        <ele>165.5</ele>
        <time>2012-10-14T14:36:45Z</time>
      </trkpt>
      <trkpt lat="48.44944" lon="-4.36146">
        <ele>165.87501525879</ele>
        <time>2012-10-14T14:36:49Z</time>
      </trkpt>
      <trkpt lat="48.44952" lon="-4.36135">
        <ele>166.03334554036</ele>
        <time>2012-10-14T14:36:52Z</time>
      </trkpt>
      <trkpt lat="48.44959" lon="-4.36126">
        <ele>166.19999694824</ele>
        <time>2012-10-14T14:36:56Z</time>
      </trkpt>
      <trkpt lat="48.44966" lon="-4.36123">
        <ele>165.84999084473</ele>
        <time>2012-10-14T14:37:00Z</time>
      </trkpt>
      <trkpt lat="48.44974" lon="-4.36121">
        <ele>166.17500305176</ele>
        <time>2012-10-14T14:37:04Z</time>
      </trkpt>
      <trkpt lat="48.44976" lon="-4.36121">
        <ele>166.5</ele>
        <time>2012-10-14T14:37:07Z</time>
      </trkpt>
      <trkpt lat="48.44976" lon="-4.36121">
        <ele>166.5</ele>
        <time>2012-10-14T14:37:11Z</time>
      </trkpt>
      <trkpt lat="48.44976" lon="-4.36121">
        <ele>166.5</ele>
        <time>2012-10-14T14:37:15Z</time>
      </trkpt>
      <trkpt lat="48.44976" lon="-4.36121">
        <ele>166.5</ele>
        <time>2012-10-14T14:37:19Z</time>
      </trkpt>
      <trkpt lat="48.44976" lon="-4.36121">
        <ele>166.5</ele>
        <time>2012-10-14T14:37:23Z</time>
      </trkpt>
      <trkpt lat="48.44976" lon="-4.36121">
        <ele>166.5</ele>
        <time>2012-10-14T14:37:27Z</time>
      </trkpt>
      <trkpt lat="48.44992" lon="-4.36115">
        <ele>168.16666666667</ele>
        <time>2012-10-14T14:37:30Z</time>
      </trkpt>
      <trkpt lat="48.45005" lon="-4.36111">
        <ele>168.625</ele>
        <time>2012-10-14T14:37:34Z</time>
      </trkpt>
      <trkpt lat="48.45011" lon="-4.36109">
        <ele>168.36665852865</ele>
        <time>2012-10-14T14:37:37Z</time>
      </trkpt>
      <trkpt lat="48.45016" lon="-4.36107">
        <ele>168.22499084473</ele>
        <time>2012-10-14T14:37:41Z</time>
      </trkpt>
      <trkpt lat="48.45018" lon="-4.36107">
        <ele>168.09997558594</ele>
        <time>2012-10-14T14:37:45Z</time>
      </trkpt>
      <trkpt lat="48.45018" lon="-4.36107">
        <ele>168.09997558594</ele>
        <time>2012-10-14T14:37:48Z</time>
      </trkpt>
      <trkpt lat="48.45027" lon="-4.36104">
        <ele>169.26666259766</ele>
        <time>2012-10-14T14:37:51Z</time>
      </trkpt>
      <trkpt lat="48.45038" lon="-4.36102">
        <ele>170.77500915527</ele>
        <time>2012-10-14T14:37:55Z</time>
      </trkpt>
      <trkpt lat="48.45048" lon="-4.36102">
        <ele>172.39999389648</ele>
        <time>2012-10-14T14:37:59Z</time>
      </trkpt>
      <trkpt lat="48.45056" lon="-4.36097">
        <ele>173.17500305176</ele>
        <time>2012-10-14T14:38:03Z</time>
      </trkpt>
      <trkpt lat="48.45061" lon="-4.36089">
        <ele>173.22499084473</ele>
        <time>2012-10-14T14:38:07Z</time>
      </trkpt>
      <trkpt lat="48.45063" lon="-4.36083">
        <ele>173.27500915527</ele>
        <time>2012-10-14T14:38:11Z</time>
      </trkpt>
      <trkpt lat="48.45065" lon="-4.36073">
        <ele>173.45001220703</ele>
        <time>2012-10-14T14:38:15Z</time>
      </trkpt>
      <trkpt lat="48.45068" lon="-4.3606">
        <ele>173.76666259766</ele>
        <time>2012-10-14T14:38:18Z</time>
      </trkpt>
      <trkpt lat="48.4507" lon="-4.36047">
        <ele>174</ele>
        <time>2012-10-14T14:38:22Z</time>
      </trkpt>
      <trkpt lat="48.45073" lon="-4.36031">
        <ele>173.80000813802</ele>
        <time>2012-10-14T14:38:25Z</time>
      </trkpt>
      <trkpt lat="48.45076" lon="-4.36015">
        <ele>174.30000305176</ele>
        <time>2012-10-14T14:38:29Z</time>
      </trkpt>
      <trkpt lat="48.4508" lon="-4.36007">
        <ele>174.92501831055</ele>
        <time>2012-10-14T14:38:33Z</time>
      </trkpt>
      <trkpt lat="48.4508" lon="-4.36006">
        <ele>174.90002441406</ele>
        <time>2012-10-14T14:38:36Z</time>
      </trkpt>
      <trkpt lat="48.4508" lon="-4.36006">
        <ele>174.90002441406</ele>
        <time>2012-10-14T14:38:40Z</time>
      </trkpt>
      <trkpt lat="48.4508" lon="-4.36006">
        <ele>174.90002441406</ele>
        <time>2012-10-14T14:38:43Z</time>
      </trkpt>
      <trkpt lat="48.4508" lon="-4.36006">
        <ele>174.90002441406</ele>
        <time>2012-10-14T14:38:46Z</time>
      </trkpt>
      <trkpt lat="48.4508" lon="-4.36006">
        <ele>174.90002441406</ele>
        <time>2012-10-14T14:38:50Z</time>
      </trkpt>
      <trkpt lat="48.4508" lon="-4.36006">
        <ele>174.90002441406</ele>
        <time>2012-10-14T14:38:54Z</time>
      </trkpt>
      <trkpt lat="48.4508" lon="-4.36006">
        <ele>174.90002441406</ele>
        <time>2012-10-14T14:38:58Z</time>
      </trkpt>
      <trkpt lat="48.4508" lon="-4.36006">
        <ele>174.90002441406</ele>
        <time>2012-10-14T14:39:01Z</time>
      </trkpt>
      <trkpt lat="48.4508" lon="-4.36006">
        <ele>174.90002441406</ele>
        <time>2012-10-14T14:39:04Z</time>
      </trkpt>
      <trkpt lat="48.4508" lon="-4.36006">
        <ele>174.90002441406</ele>
        <time>2012-10-14T14:39:07Z</time>
      </trkpt>
      <trkpt lat="48.4508" lon="-4.36006">
        <ele>174.90002441406</ele>
        <time>2012-10-14T14:39:11Z</time>
      </trkpt>
      <trkpt lat="48.4508" lon="-4.36006">
        <ele>174.90002441406</ele>
        <time>2012-10-14T14:39:14Z</time>
      </trkpt>
      <trkpt lat="48.4508" lon="-4.36006">
        <ele>174.90002441406</ele>
        <time>2012-10-14T14:39:18Z</time>
      </trkpt>
      <trkpt lat="48.4508" lon="-4.36006">
        <ele>174.90002441406</ele>
        <time>2012-10-14T14:39:22Z</time>
      </trkpt>
      <trkpt lat="48.4508" lon="-4.36006">
        <ele>174.90002441406</ele>
        <time>2012-10-14T14:39:25Z</time>
      </trkpt>
      <trkpt lat="48.4508" lon="-4.36006">
        <ele>174.90002441406</ele>
        <time>2012-10-14T14:39:29Z</time>
      </trkpt>
      <trkpt lat="48.4508" lon="-4.36006">
        <ele>174.90002441406</ele>
        <time>2012-10-14T14:39:33Z</time>
      </trkpt>
      <trkpt lat="48.4508" lon="-4.36006">
        <ele>174.90002441406</ele>
        <time>2012-10-14T14:39:37Z</time>
      </trkpt>
      <trkpt lat="48.4508" lon="-4.36006">
        <ele>174.90002441406</ele>
        <time>2012-10-14T14:39:41Z</time>
      </trkpt>
      <trkpt lat="48.4508" lon="-4.36006">
        <ele>174.90002441406</ele>
        <time>2012-10-14T14:39:45Z</time>
      </trkpt>
      <trkpt lat="48.4508" lon="-4.36006">
        <ele>174.90002441406</ele>
        <time>2012-10-14T14:39:48Z</time>
      </trkpt>
      <trkpt lat="48.4508" lon="-4.36006">
        <ele>174.90002441406</ele>
        <time>2012-10-14T14:39:52Z</time>
      </trkpt>
      <trkpt lat="48.4508" lon="-4.36006">
        <ele>174.90002441406</ele>
        <time>2012-10-14T14:39:56Z</time>
      </trkpt>
      <trkpt lat="48.4508" lon="-4.36006">
        <ele>174.90002441406</ele>
        <time>2012-10-14T14:40:00Z</time>
      </trkpt>
      <trkpt lat="48.4508" lon="-4.36006">
        <ele>174.90002441406</ele>
        <time>2012-10-14T14:40:04Z</time>
      </trkpt>
      <trkpt lat="48.4508" lon="-4.36006">
        <ele>174.90002441406</ele>
        <time>2012-10-14T14:40:07Z</time>
      </trkpt>
      <trkpt lat="48.4508" lon="-4.36006">
        <ele>174.90002441406</ele>
        <time>2012-10-14T14:40:11Z</time>
      </trkpt>
      <trkpt lat="48.4508" lon="-4.36006">
        <ele>174.90002441406</ele>
        <time>2012-10-14T14:40:15Z</time>
      </trkpt>
      <trkpt lat="48.45081" lon="-4.36004">
        <ele>174.6000213623</ele>
        <time>2012-10-14T14:40:19Z</time>
      </trkpt>
      <trkpt lat="48.45086" lon="-4.35994">
        <ele>173.77500915527</ele>
        <time>2012-10-14T14:40:23Z</time>
      </trkpt>
      <trkpt lat="48.45096" lon="-4.35988">
        <ele>174.17500305176</ele>
        <time>2012-10-14T14:40:27Z</time>
      </trkpt>
      <trkpt lat="48.45106" lon="-4.35984">
        <ele>174.70001220703</ele>
        <time>2012-10-14T14:40:30Z</time>
      </trkpt>
      <trkpt lat="48.45115" lon="-4.3598">
        <ele>175.17500305176</ele>
        <time>2012-10-14T14:40:34Z</time>
      </trkpt>
      <trkpt lat="48.45125" lon="-4.35976">
        <ele>175.69999186198</ele>
        <time>2012-10-14T14:40:37Z</time>
      </trkpt>
      <trkpt lat="48.45134" lon="-4.35972">
        <ele>176.14999389648</ele>
        <time>2012-10-14T14:40:41Z</time>
      </trkpt>
      <trkpt lat="48.45144" lon="-4.35968">
        <ele>176.44999694824</ele>
        <time>2012-10-14T14:40:45Z</time>
      </trkpt>
      <trkpt lat="48.45153" lon="-4.35965">
        <ele>176.93334960938</ele>
        <time>2012-10-14T14:40:48Z</time>
      </trkpt>
      <trkpt lat="48.45162" lon="-4.35962">
        <ele>177.17500305176</ele>
        <time>2012-10-14T14:40:52Z</time>
      </trkpt>
      <trkpt lat="48.4517" lon="-4.35959">
        <ele>177.53332519531</ele>
        <time>2012-10-14T14:40:55Z</time>
      </trkpt>
      <trkpt lat="48.45175" lon="-4.35955">
        <ele>177.55000305176</ele>
        <time>2012-10-14T14:40:59Z</time>
      </trkpt>
      <trkpt lat="48.45182" lon="-4.35944">
        <ele>177.82499694824</ele>
        <time>2012-10-14T14:41:04Z</time>
      </trkpt>
      <trkpt lat="48.45188" lon="-4.35927">
        <ele>178.02500915527</ele>
        <time>2012-10-14T14:41:07Z</time>
      </trkpt>
      <trkpt lat="48.45192" lon="-4.35914">
        <ele>178.57499694824</ele>
        <time>2012-10-14T14:41:11Z</time>
      </trkpt>
      <trkpt lat="48.45199" lon="-4.35894">
        <ele>178.875</ele>
        <time>2012-10-14T14:41:15Z</time>
      </trkpt>
      <trkpt lat="48.45204" lon="-4.35877">
        <ele>179.16666666667</ele>
        <time>2012-10-14T14:41:18Z</time>
      </trkpt>
      <trkpt lat="48.45209" lon="-4.3586">
        <ele>179.25</ele>
        <time>2012-10-14T14:41:22Z</time>
      </trkpt>
      <trkpt lat="48.45213" lon="-4.35843">
        <ele>179.23333740234</ele>
        <time>2012-10-14T14:41:25Z</time>
      </trkpt>
      <trkpt lat="48.45216" lon="-4.35829">
        <ele>179.70001220703</ele>
        <time>2012-10-14T14:41:28Z</time>
      </trkpt>
      <trkpt lat="48.4522" lon="-4.35814">
        <ele>180.29998779297</ele>
        <time>2012-10-14T14:41:31Z</time>
      </trkpt>
      <trkpt lat="48.45224" lon="-4.35797">
        <ele>181.05000305176</ele>
        <time>2012-10-14T14:41:35Z</time>
      </trkpt>
      <trkpt lat="48.45228" lon="-4.35778">
        <ele>181.60000610352</ele>
        <time>2012-10-14T14:41:39Z</time>
      </trkpt>
      <trkpt lat="48.45233" lon="-4.35762">
        <ele>182.16666666667</ele>
        <time>2012-10-14T14:41:42Z</time>
      </trkpt>
      <trkpt lat="48.45237" lon="-4.35748">
        <ele>182.33333333333</ele>
        <time>2012-10-14T14:41:45Z</time>
      </trkpt>
      <trkpt lat="48.45241" lon="-4.35731">
        <ele>182.40002441406</ele>
        <time>2012-10-14T14:41:49Z</time>
      </trkpt>
      <trkpt lat="48.45247" lon="-4.35713">
        <ele>182.625</ele>
        <time>2012-10-14T14:41:53Z</time>
      </trkpt>
      <trkpt lat="48.45252" lon="-4.35695">
        <ele>182.57498168945</ele>
        <time>2012-10-14T14:41:57Z</time>
      </trkpt>
      <trkpt lat="48.45256" lon="-4.35679">
        <ele>182.40000406901</ele>
        <time>2012-10-14T14:42:00Z</time>
      </trkpt>
      <trkpt lat="48.45261" lon="-4.35661">
        <ele>182.02499389648</ele>
        <time>2012-10-14T14:42:04Z</time>
      </trkpt>
      <trkpt lat="48.45265" lon="-4.35642">
        <ele>181.59999593099</ele>
        <time>2012-10-14T14:42:07Z</time>
      </trkpt>
      <trkpt lat="48.4527" lon="-4.35622">
        <ele>181.30000305176</ele>
        <time>2012-10-14T14:42:11Z</time>
      </trkpt>
      <trkpt lat="48.4528" lon="-4.356">
        <ele>182.17500305176</ele>
        <time>2012-10-14T14:42:15Z</time>
      </trkpt>
      <trkpt lat="48.45291" lon="-4.35583">
        <ele>181.86665852865</ele>
        <time>2012-10-14T14:42:18Z</time>
      </trkpt>
      <trkpt lat="48.45302" lon="-4.35565">
        <ele>181.44999694824</ele>
        <time>2012-10-14T14:42:22Z</time>
      </trkpt>
      <trkpt lat="48.45317" lon="-4.35541">
        <ele>181.20001220703</ele>
        <time>2012-10-14T14:42:26Z</time>
      </trkpt>
      <trkpt lat="48.45328" lon="-4.35518">
        <ele>180.59999593099</ele>
        <time>2012-10-14T14:42:29Z</time>
      </trkpt>
      <trkpt lat="48.45337" lon="-4.35493">
        <ele>180.44999694824</ele>
        <time>2012-10-14T14:42:33Z</time>
      </trkpt>
      <trkpt lat="48.45347" lon="-4.35463">
        <ele>180.77500915527</ele>
        <time>2012-10-14T14:42:37Z</time>
      </trkpt>
      <trkpt lat="48.45355" lon="-4.35437">
        <ele>181.26666259766</ele>
        <time>2012-10-14T14:42:40Z</time>
      </trkpt>
      <trkpt lat="48.45364" lon="-4.3541">
        <ele>181.64999389648</ele>
        <time>2012-10-14T14:42:44Z</time>
      </trkpt>
      <trkpt lat="48.45373" lon="-4.35376">
        <ele>181.125</ele>
        <time>2012-10-14T14:42:48Z</time>
      </trkpt>
      <trkpt lat="48.45378" lon="-4.35347">
        <ele>180.36665852865</ele>
        <time>2012-10-14T14:42:51Z</time>
      </trkpt>
      <trkpt lat="48.45383" lon="-4.35319">
        <ele>179.375</ele>
        <time>2012-10-14T14:42:55Z</time>
      </trkpt>
      <trkpt lat="48.45385" lon="-4.35283">
        <ele>178.57499694824</ele>
        <time>2012-10-14T14:42:59Z</time>
      </trkpt>
      <trkpt lat="48.45386" lon="-4.35246">
        <ele>178.17500305176</ele>
        <time>2012-10-14T14:43:03Z</time>
      </trkpt>
      <trkpt lat="48.45388" lon="-4.35212">
        <ele>177.72500610352</ele>
        <time>2012-10-14T14:43:07Z</time>
      </trkpt>
      <trkpt lat="48.45388" lon="-4.35179">
        <ele>177.85000610352</ele>
        <time>2012-10-14T14:43:11Z</time>
      </trkpt>
      <trkpt lat="48.45389" lon="-4.3515">
        <ele>177.59999593099</ele>
        <time>2012-10-14T14:43:14Z</time>
      </trkpt>
      <trkpt lat="48.45393" lon="-4.35121">
        <ele>177.35000610352</ele>
        <time>2012-10-14T14:43:18Z</time>
      </trkpt>
      <trkpt lat="48.45401" lon="-4.35091">
        <ele>177.52500915527</ele>
        <time>2012-10-14T14:43:22Z</time>
      </trkpt>
      <trkpt lat="48.45412" lon="-4.35068">
        <ele>178.59999593099</ele>
        <time>2012-10-14T14:43:25Z</time>
      </trkpt>
      <trkpt lat="48.45424" lon="-4.35049">
        <ele>179.19999694824</ele>
        <time>2012-10-14T14:43:29Z</time>
      </trkpt>
      <trkpt lat="48.45436" lon="-4.35025">
        <ele>179.625</ele>
        <time>2012-10-14T14:43:33Z</time>
      </trkpt>
      <trkpt lat="48.45443" lon="-4.35002">
        <ele>179.76666259766</ele>
        <time>2012-10-14T14:43:36Z</time>
      </trkpt>
      <trkpt lat="48.45449" lon="-4.34976">
        <ele>180.14999389648</ele>
        <time>2012-10-14T14:43:40Z</time>
      </trkpt>
      <trkpt lat="48.45454" lon="-4.34952">
        <ele>180.16666666667</ele>
        <time>2012-10-14T14:43:43Z</time>
      </trkpt>
      <trkpt lat="48.45463" lon="-4.34944">
        <ele>180.05000305176</ele>
        <time>2012-10-14T14:43:47Z</time>
      </trkpt>
      <trkpt lat="48.45478" lon="-4.34951">
        <ele>179.625</ele>
        <time>2012-10-14T14:43:51Z</time>
      </trkpt>
      <trkpt lat="48.45494" lon="-4.34958">
        <ele>179.44999694824</ele>
        <time>2012-10-14T14:43:55Z</time>
      </trkpt>
      <trkpt lat="48.45511" lon="-4.34963">
        <ele>179.57499694824</ele>
        <time>2012-10-14T14:43:59Z</time>
      </trkpt>
      <trkpt lat="48.45525" lon="-4.34967">
        <ele>179.73333740234</ele>
        <time>2012-10-14T14:44:02Z</time>
      </trkpt>
      <trkpt lat="48.45537" lon="-4.34973">
        <ele>179.875</ele>
        <time>2012-10-14T14:44:06Z</time>
      </trkpt>
      <trkpt lat="48.45553" lon="-4.34978">
        <ele>180.52500915527</ele>
        <time>2012-10-14T14:44:10Z</time>
      </trkpt>
      <trkpt lat="48.45566" lon="-4.34983">
        <ele>180.93334960938</ele>
        <time>2012-10-14T14:44:13Z</time>
      </trkpt>
      <trkpt lat="48.45579" lon="-4.3499">
        <ele>181.55000305176</ele>
        <time>2012-10-14T14:44:17Z</time>
      </trkpt>
      <trkpt lat="48.45595" lon="-4.34997">
        <ele>181.82499694824</ele>
        <time>2012-10-14T14:44:21Z</time>
      </trkpt>
      <trkpt lat="48.4561" lon="-4.35003">
        <ele>181.92500305176</ele>
        <time>2012-10-14T14:44:25Z</time>
      </trkpt>
      <trkpt lat="48.45625" lon="-4.35009">
        <ele>183.20001220703</ele>
        <time>2012-10-14T14:44:29Z</time>
      </trkpt>
      <trkpt lat="48.45641" lon="-4.35016">
        <ele>183.57498168945</ele>
        <time>2012-10-14T14:44:33Z</time>
      </trkpt>
      <trkpt lat="48.45655" lon="-4.35022">
        <ele>183.20001220703</ele>
        <time>2012-10-14T14:44:36Z</time>
      </trkpt>
      <trkpt lat="48.4567" lon="-4.35028">
        <ele>183.30000305176</ele>
        <time>2012-10-14T14:44:40Z</time>
      </trkpt>
      <trkpt lat="48.45687" lon="-4.35031">
        <ele>183.07499694824</ele>
        <time>2012-10-14T14:44:44Z</time>
      </trkpt>
      <trkpt lat="48.45703" lon="-4.35029">
        <ele>183.5</ele>
        <time>2012-10-14T14:44:47Z</time>
      </trkpt>
      <trkpt lat="48.45717" lon="-4.35027">
        <ele>184.80000305176</ele>
        <time>2012-10-14T14:44:51Z</time>
      </trkpt>
      <trkpt lat="48.45734" lon="-4.35023">
        <ele>186.20001220703</ele>
        <time>2012-10-14T14:44:55Z</time>
      </trkpt>
      <trkpt lat="48.45748" lon="-4.35019">
        <ele>187.06667073568</ele>
        <time>2012-10-14T14:44:58Z</time>
      </trkpt>
      <trkpt lat="48.45763" lon="-4.35015">
        <ele>187.27500915527</ele>
        <time>2012-10-14T14:45:02Z</time>
      </trkpt>
      <trkpt lat="48.45781" lon="-4.35008">
        <ele>186.17498779297</ele>
        <time>2012-10-14T14:45:06Z</time>
      </trkpt>
      <trkpt lat="48.45796" lon="-4.34998">
        <ele>186.09999593099</ele>
        <time>2012-10-14T14:45:09Z</time>
      </trkpt>
      <trkpt lat="48.4581" lon="-4.3499">
        <ele>185.90000915527</ele>
        <time>2012-10-14T14:45:13Z</time>
      </trkpt>
      <trkpt lat="48.45826" lon="-4.34983">
        <ele>185.30000305176</ele>
        <time>2012-10-14T14:45:17Z</time>
      </trkpt>
      <trkpt lat="48.45844" lon="-4.34976">
        <ele>184.80000305176</ele>
        <time>2012-10-14T14:45:21Z</time>
      </trkpt>
      <trkpt lat="48.45862" lon="-4.34967">
        <ele>184.59999593099</ele>
        <time>2012-10-14T14:45:24Z</time>
      </trkpt>
      <trkpt lat="48.45881" lon="-4.34958">
        <ele>183.77499389648</ele>
        <time>2012-10-14T14:45:28Z</time>
      </trkpt>
      <trkpt lat="48.45902" lon="-4.34948">
        <ele>182.72499084473</ele>
        <time>2012-10-14T14:45:32Z</time>
      </trkpt>
      <trkpt lat="48.45917" lon="-4.34938">
        <ele>182.32501220703</ele>
        <time>2012-10-14T14:45:36Z</time>
      </trkpt>
      <trkpt lat="48.4593" lon="-4.34945">
        <ele>182.59997558594</ele>
        <time>2012-10-14T14:45:39Z</time>
      </trkpt>
      <trkpt lat="48.45938" lon="-4.34963">
        <ele>182.59999593099</ele>
        <time>2012-10-14T14:45:42Z</time>
      </trkpt>
      <trkpt lat="48.45949" lon="-4.34983">
        <ele>182.07499694824</ele>
        <time>2012-10-14T14:45:46Z</time>
      </trkpt>
      <trkpt lat="48.45961" lon="-4.35004">
        <ele>181.40000406901</ele>
        <time>2012-10-14T14:45:49Z</time>
      </trkpt>
      <trkpt lat="48.45974" lon="-4.35022">
        <ele>180.5</ele>
        <time>2012-10-14T14:45:53Z</time>
      </trkpt>
      <trkpt lat="48.45991" lon="-4.35028">
        <ele>180.02499389648</ele>
        <time>2012-10-14T14:45:57Z</time>
      </trkpt>
      <trkpt lat="48.46003" lon="-4.35008">
        <ele>179.96667480469</ele>
        <time>2012-10-14T14:46:00Z</time>
      </trkpt>
      <trkpt lat="48.46012" lon="-4.34984">
        <ele>180.07498168945</ele>
        <time>2012-10-14T14:46:04Z</time>
      </trkpt>
      <trkpt lat="48.46024" lon="-4.34957">
        <ele>180.32499694824</ele>
        <time>2012-10-14T14:46:08Z</time>
      </trkpt>
      <trkpt lat="48.46034" lon="-4.34931">
        <ele>180.625</ele>
        <time>2012-10-14T14:46:12Z</time>
      </trkpt>
      <trkpt lat="48.46045" lon="-4.34905">
        <ele>180.67500305176</ele>
        <time>2012-10-14T14:46:16Z</time>
      </trkpt>
      <trkpt lat="48.46056" lon="-4.34879">
        <ele>180.44999694824</ele>
        <time>2012-10-14T14:46:20Z</time>
      </trkpt>
      <trkpt lat="48.46068" lon="-4.34853">
        <ele>179.95001220703</ele>
        <time>2012-10-14T14:46:24Z</time>
      </trkpt>
      <trkpt lat="48.46078" lon="-4.34829">
        <ele>179.46665445964</ele>
        <time>2012-10-14T14:46:27Z</time>
      </trkpt>
      <trkpt lat="48.46086" lon="-4.34808">
        <ele>179</ele>
        <time>2012-10-14T14:46:30Z</time>
      </trkpt>
      <trkpt lat="48.46097" lon="-4.34783">
        <ele>178.59999084473</ele>
        <time>2012-10-14T14:46:34Z</time>
      </trkpt>
      <trkpt lat="48.46107" lon="-4.34757">
        <ele>177.86665852865</ele>
        <time>2012-10-14T14:46:37Z</time>
      </trkpt>
      <trkpt lat="48.46117" lon="-4.34734">
        <ele>177</ele>
        <time>2012-10-14T14:46:40Z</time>
      </trkpt>
      <trkpt lat="48.46127" lon="-4.34709">
        <ele>176.16668701172</ele>
        <time>2012-10-14T14:46:44Z</time>
      </trkpt>
      <trkpt lat="48.4614" lon="-4.3468">
        <ele>175.05000305176</ele>
        <time>2012-10-14T14:46:47Z</time>
      </trkpt>
      <trkpt lat="48.46152" lon="-4.34649">
        <ele>174.20001220703</ele>
        <time>2012-10-14T14:46:50Z</time>
      </trkpt>
      <trkpt lat="48.46163" lon="-4.34623">
        <ele>173.76666259766</ele>
        <time>2012-10-14T14:46:54Z</time>
      </trkpt>
      <trkpt lat="48.46176" lon="-4.34592">
        <ele>172.65000915527</ele>
        <time>2012-10-14T14:46:58Z</time>
      </trkpt>
      <trkpt lat="48.46191" lon="-4.34555">
        <ele>170.55000305176</ele>
        <time>2012-10-14T14:47:02Z</time>
      </trkpt>
      <trkpt lat="48.46205" lon="-4.34519">
        <ele>168.52499389648</ele>
        <time>2012-10-14T14:47:06Z</time>
      </trkpt>
      <trkpt lat="48.46214" lon="-4.34495">
        <ele>168.17500305176</ele>
        <time>2012-10-14T14:47:10Z</time>
      </trkpt>
      <trkpt lat="48.46211" lon="-4.34487">
        <ele>169.04998779297</ele>
        <time>2012-10-14T14:47:14Z</time>
      </trkpt>
      <trkpt lat="48.46202" lon="-4.34488">
        <ele>169.82499694824</ele>
        <time>2012-10-14T14:47:18Z</time>
      </trkpt>
      <trkpt lat="48.46186" lon="-4.34485">
        <ele>170.57501220703</ele>
        <time>2012-10-14T14:47:22Z</time>
      </trkpt>
      <trkpt lat="48.46171" lon="-4.34483">
        <ele>171.16666666667</ele>
        <time>2012-10-14T14:47:25Z</time>
      </trkpt>
      <trkpt lat="48.46155" lon="-4.34481">
        <ele>171.74998474121</ele>
        <time>2012-10-14T14:47:29Z</time>
      </trkpt>
      <trkpt lat="48.46143" lon="-4.34472">
        <ele>172.76668294271</ele>
        <time>2012-10-14T14:47:32Z</time>
      </trkpt>
      <trkpt lat="48.46137" lon="-4.34459">
        <ele>173.82501220703</ele>
        <time>2012-10-14T14:47:36Z</time>
      </trkpt>
      <trkpt lat="48.46132" lon="-4.34444">
        <ele>173.92498779297</ele>
        <time>2012-10-14T14:47:40Z</time>
      </trkpt>
      <trkpt lat="48.46124" lon="-4.3443">
        <ele>173.0249786377</ele>
        <time>2012-10-14T14:47:44Z</time>
      </trkpt>
      <trkpt lat="48.46116" lon="-4.34416">
        <ele>172.43334960938</ele>
        <time>2012-10-14T14:47:47Z</time>
      </trkpt>
      <trkpt lat="48.46111" lon="-4.34402">
        <ele>172.875</ele>
        <time>2012-10-14T14:47:51Z</time>
      </trkpt>
      <trkpt lat="48.4611" lon="-4.34392">
        <ele>173.26668294271</ele>
        <time>2012-10-14T14:47:54Z</time>
      </trkpt>
      <trkpt lat="48.46116" lon="-4.34389">
        <ele>173.64999389648</ele>
        <time>2012-10-14T14:47:58Z</time>
      </trkpt>
      <trkpt lat="48.46121" lon="-4.3438">
        <ele>174.10000610352</ele>
        <time>2012-10-14T14:48:02Z</time>
      </trkpt>
      <trkpt lat="48.46119" lon="-4.34365">
        <ele>174.5</ele>
        <time>2012-10-14T14:48:05Z</time>
      </trkpt>
      <trkpt lat="48.4611" lon="-4.34363">
        <ele>174.375</ele>
        <time>2012-10-14T14:48:09Z</time>
      </trkpt>
      <trkpt lat="48.46096" lon="-4.3437">
        <ele>175.72499084473</ele>
        <time>2012-10-14T14:48:13Z</time>
      </trkpt>
      <trkpt lat="48.46087" lon="-4.34384">
        <ele>176.43332926432</ele>
        <time>2012-10-14T14:48:16Z</time>
      </trkpt>
      <trkpt lat="48.46087" lon="-4.34403">
        <ele>176.90000915527</ele>
        <time>2012-10-14T14:48:20Z</time>
      </trkpt>
      <trkpt lat="48.46098" lon="-4.34437">
        <ele>177.07499694824</ele>
        <time>2012-10-14T14:48:24Z</time>
      </trkpt>
      <trkpt lat="48.4611" lon="-4.34467">
        <ele>174.93332926432</ele>
        <time>2012-10-14T14:48:27Z</time>
      </trkpt>
      <trkpt lat="48.46115" lon="-4.34481">
        <ele>174.83333333333</ele>
        <time>2012-10-14T14:48:30Z</time>
      </trkpt>
      <trkpt lat="48.46111" lon="-4.34483">
        <ele>175.83335367839</ele>
        <time>2012-10-14T14:48:33Z</time>
      </trkpt>
      <trkpt lat="48.46106" lon="-4.34482">
        <ele>176.33333333333</ele>
        <time>2012-10-14T14:48:36Z</time>
      </trkpt>
      <trkpt lat="48.46098" lon="-4.3448">
        <ele>176.26666259766</ele>
        <time>2012-10-14T14:48:39Z</time>
      </trkpt>
      <trkpt lat="48.46092" lon="-4.34469">
        <ele>175.87498474121</ele>
        <time>2012-10-14T14:48:43Z</time>
      </trkpt>
      <trkpt lat="48.4609" lon="-4.34452">
        <ele>175.64999389648</ele>
        <time>2012-10-14T14:48:47Z</time>
      </trkpt>
      <trkpt lat="48.46085" lon="-4.34438">
        <ele>175.09999593099</ele>
        <time>2012-10-14T14:48:50Z</time>
      </trkpt>
      <trkpt lat="48.46078" lon="-4.34426">
        <ele>174.57501220703</ele>
        <time>2012-10-14T14:48:54Z</time>
      </trkpt>
      <trkpt lat="48.46074" lon="-4.34412">
        <ele>174.09999593099</ele>
        <time>2012-10-14T14:48:57Z</time>
      </trkpt>
      <trkpt lat="48.46071" lon="-4.344">
        <ele>173.6499786377</ele>
        <time>2012-10-14T14:49:01Z</time>
      </trkpt>
      <trkpt lat="48.46072" lon="-4.34387">
        <ele>173.30000305176</ele>
        <time>2012-10-14T14:49:05Z</time>
      </trkpt>
      <trkpt lat="48.46074" lon="-4.34376">
        <ele>173.77499389648</ele>
        <time>2012-10-14T14:49:08Z</time>
      </trkpt>
      <trkpt lat="48.46079" lon="-4.34365">
        <ele>174.59999593099</ele>
        <time>2012-10-14T14:49:12Z</time>
      </trkpt>
      <trkpt lat="48.46083" lon="-4.34352">
        <ele>174.77499389648</ele>
        <time>2012-10-14T14:49:15Z</time>
      </trkpt>
      <trkpt lat="48.4608" lon="-4.34344">
        <ele>174.80000813802</ele>
        <time>2012-10-14T14:49:19Z</time>
      </trkpt>
      <trkpt lat="48.4607" lon="-4.34344">
        <ele>174.64999389648</ele>
        <time>2012-10-14T14:49:23Z</time>
      </trkpt>
      <trkpt lat="48.4606" lon="-4.34353">
        <ele>174.44999694824</ele>
        <time>2012-10-14T14:49:27Z</time>
      </trkpt>
      <trkpt lat="48.46052" lon="-4.34369">
        <ele>174.92500305176</ele>
        <time>2012-10-14T14:49:30Z</time>
      </trkpt>
      <trkpt lat="48.46047" lon="-4.3439">
        <ele>175.63334147135</ele>
        <time>2012-10-14T14:49:33Z</time>
      </trkpt>
      <trkpt lat="48.46048" lon="-4.34412">
        <ele>175.60000610352</ele>
        <time>2012-10-14T14:49:38Z</time>
      </trkpt>
      <trkpt lat="48.46053" lon="-4.34436">
        <ele>175.97499084473</ele>
        <time>2012-10-14T14:49:41Z</time>
      </trkpt>
      <trkpt lat="48.46062" lon="-4.34458">
        <ele>176.44999694824</ele>
        <time>2012-10-14T14:49:46Z</time>
      </trkpt>
      <trkpt lat="48.46057" lon="-4.34477">
        <ele>176.39999389648</ele>
        <time>2012-10-14T14:49:50Z</time>
      </trkpt>
      <trkpt lat="48.46049" lon="-4.34473">
        <ele>176.35000610352</ele>
        <time>2012-10-14T14:49:53Z</time>
      </trkpt>
      <trkpt lat="48.46045" lon="-4.34452">
        <ele>175.60000610352</ele>
        <time>2012-10-14T14:49:57Z</time>
      </trkpt>
      <trkpt lat="48.4604" lon="-4.3443">
        <ele>175.49998474121</ele>
        <time>2012-10-14T14:50:01Z</time>
      </trkpt>
      <trkpt lat="48.46036" lon="-4.34415">
        <ele>175.33333333333</ele>
        <time>2012-10-14T14:50:04Z</time>
      </trkpt>
      <trkpt lat="48.46027" lon="-4.34408">
        <ele>175.47500610352</ele>
        <time>2012-10-14T14:50:09Z</time>
      </trkpt>
      <trkpt lat="48.4602" lon="-4.34422">
        <ele>176.57499694824</ele>
        <time>2012-10-14T14:50:13Z</time>
      </trkpt>
      <trkpt lat="48.46025" lon="-4.34444">
        <ele>176.92500305176</ele>
        <time>2012-10-14T14:50:16Z</time>
      </trkpt>
      <trkpt lat="48.46028" lon="-4.34466">
        <ele>177.33333333333</ele>
        <time>2012-10-14T14:50:19Z</time>
      </trkpt>
      <trkpt lat="48.46027" lon="-4.34483">
        <ele>177.62498474121</ele>
        <time>2012-10-14T14:50:23Z</time>
      </trkpt>
      <trkpt lat="48.46014" lon="-4.34488">
        <ele>176.75</ele>
        <time>2012-10-14T14:50:27Z</time>
      </trkpt>
      <trkpt lat="48.46004" lon="-4.34489">
        <ele>176.07501220703</ele>
        <time>2012-10-14T14:50:32Z</time>
      </trkpt>
      <trkpt lat="48.45999" lon="-4.34482">
        <ele>176.30000305176</ele>
        <time>2012-10-14T14:50:35Z</time>
      </trkpt>
      <trkpt lat="48.46002" lon="-4.34478">
        <ele>175.72500610352</ele>
        <time>2012-10-14T14:50:39Z</time>
      </trkpt>
      <trkpt lat="48.46008" lon="-4.34475">
        <ele>175.73333740234</ele>
        <time>2012-10-14T14:50:42Z</time>
      </trkpt>
      <trkpt lat="48.46009" lon="-4.34464">
        <ele>176.125</ele>
        <time>2012-10-14T14:50:46Z</time>
      </trkpt>
      <trkpt lat="48.46002" lon="-4.34457">
        <ele>175.90002441406</ele>
        <time>2012-10-14T14:50:50Z</time>
      </trkpt>
      <trkpt lat="48.45999" lon="-4.34444">
        <ele>176.02499389648</ele>
        <time>2012-10-14T14:50:53Z</time>
      </trkpt>
      <trkpt lat="48.46" lon="-4.34427">
        <ele>176.19999694824</ele>
        <time>2012-10-14T14:50:57Z</time>
      </trkpt>
      <trkpt lat="48.46003" lon="-4.3441">
        <ele>176.53332519531</ele>
        <time>2012-10-14T14:51:00Z</time>
      </trkpt>
      <trkpt lat="48.46007" lon="-4.34397">
        <ele>176.85000610352</ele>
        <time>2012-10-14T14:51:05Z</time>
      </trkpt>
      <trkpt lat="48.46011" lon="-4.3439">
        <ele>177.22500610352</ele>
        <time>2012-10-14T14:51:08Z</time>
      </trkpt>
      <trkpt lat="48.46014" lon="-4.34388">
        <ele>177</ele>
        <time>2012-10-14T14:51:11Z</time>
      </trkpt>
      <trkpt lat="48.46027" lon="-4.34373">
        <ele>177.32501220703</ele>
        <time>2012-10-14T14:51:15Z</time>
      </trkpt>
      <trkpt lat="48.46022" lon="-4.34363">
        <ele>177.75</ele>
        <time>2012-10-14T14:51:20Z</time>
      </trkpt>
      <trkpt lat="48.46014" lon="-4.34361">
        <ele>178.17500305176</ele>
        <time>2012-10-14T14:51:23Z</time>
      </trkpt>
      <trkpt lat="48.46013" lon="-4.34352">
        <ele>178.30000305176</ele>
        <time>2012-10-14T14:51:27Z</time>
      </trkpt>
      <trkpt lat="48.46014" lon="-4.34351">
        <ele>178.29998779297</ele>
        <time>2012-10-14T14:51:30Z</time>
      </trkpt>
      <trkpt lat="48.46017" lon="-4.3434">
        <ele>179.63334147135</ele>
        <time>2012-10-14T14:51:33Z</time>
      </trkpt>
      <trkpt lat="48.46019" lon="-4.34325">
        <ele>180.14999389648</ele>
        <time>2012-10-14T14:51:38Z</time>
      </trkpt>
      <trkpt lat="48.46013" lon="-4.34312">
        <ele>179.8999786377</ele>
        <time>2012-10-14T14:51:41Z</time>
      </trkpt>
      <trkpt lat="48.46009" lon="-4.34295">
        <ele>179.40000915527</ele>
        <time>2012-10-14T14:51:45Z</time>
      </trkpt>
      <trkpt lat="48.46009" lon="-4.34279">
        <ele>179.09999593099</ele>
        <time>2012-10-14T14:51:48Z</time>
      </trkpt>
      <trkpt lat="48.46009" lon="-4.34265">
        <ele>178.43332926432</ele>
        <time>2012-10-14T14:51:51Z</time>
      </trkpt>
      <trkpt lat="48.46008" lon="-4.3425">
        <ele>178.76668294271</ele>
        <time>2012-10-14T14:51:55Z</time>
      </trkpt>
      <trkpt lat="48.46008" lon="-4.34231">
        <ele>179.54998779297</ele>
        <time>2012-10-14T14:51:58Z</time>
      </trkpt>
      <trkpt lat="48.46008" lon="-4.34213">
        <ele>179.53332519531</ele>
        <time>2012-10-14T14:52:01Z</time>
      </trkpt>
      <trkpt lat="48.46008" lon="-4.34194">
        <ele>179.5</ele>
        <time>2012-10-14T14:52:05Z</time>
      </trkpt>
      <trkpt lat="48.46008" lon="-4.34173">
        <ele>179.27500915527</ele>
        <time>2012-10-14T14:52:09Z</time>
      </trkpt>
      <trkpt lat="48.46" lon="-4.34159">
        <ele>178.92500305176</ele>
        <time>2012-10-14T14:52:13Z</time>
      </trkpt>
      <trkpt lat="48.45987" lon="-4.34152">
        <ele>178.64999389648</ele>
        <time>2012-10-14T14:52:17Z</time>
      </trkpt>
      <trkpt lat="48.45974" lon="-4.34147">
        <ele>179.09997558594</ele>
        <time>2012-10-14T14:52:21Z</time>
      </trkpt>
      <trkpt lat="48.45961" lon="-4.34141">
        <ele>178.99997965495</ele>
        <time>2012-10-14T14:52:24Z</time>
      </trkpt>
      <trkpt lat="48.45948" lon="-4.34136">
        <ele>178.59999084473</ele>
        <time>2012-10-14T14:52:28Z</time>
      </trkpt>
      <trkpt lat="48.45936" lon="-4.34132">
        <ele>178.53334554036</ele>
        <time>2012-10-14T14:52:31Z</time>
      </trkpt>
      <trkpt lat="48.45923" lon="-4.34127">
        <ele>178.40000915527</ele>
        <time>2012-10-14T14:52:35Z</time>
      </trkpt>
      <trkpt lat="48.45908" lon="-4.34121">
        <ele>178.82501220703</ele>
        <time>2012-10-14T14:52:39Z</time>
      </trkpt>
      <trkpt lat="48.45895" lon="-4.34116">
        <ele>178.53332519531</ele>
        <time>2012-10-14T14:52:42Z</time>
      </trkpt>
      <trkpt lat="48.45881" lon="-4.34111">
        <ele>178.125</ele>
        <time>2012-10-14T14:52:46Z</time>
      </trkpt>
      <trkpt lat="48.4587" lon="-4.34106">
        <ele>178.63334147135</ele>
        <time>2012-10-14T14:52:49Z</time>
      </trkpt>
      <trkpt lat="48.45859" lon="-4.34101">
        <ele>179.27499389648</ele>
        <time>2012-10-14T14:52:53Z</time>
      </trkpt>
      <trkpt lat="48.45846" lon="-4.34095">
        <ele>179.94999694824</ele>
        <time>2012-10-14T14:52:57Z</time>
      </trkpt>
      <trkpt lat="48.45835" lon="-4.3409">
        <ele>180.07499694824</ele>
        <time>2012-10-14T14:53:01Z</time>
      </trkpt>
      <trkpt lat="48.45823" lon="-4.34084">
        <ele>180.84999084473</ele>
        <time>2012-10-14T14:53:05Z</time>
      </trkpt>
      <trkpt lat="48.4581" lon="-4.3408">
        <ele>181.89999389648</ele>
        <time>2012-10-14T14:53:09Z</time>
      </trkpt>
      <trkpt lat="48.45798" lon="-4.34076">
        <ele>182.3666788737</ele>
        <time>2012-10-14T14:53:12Z</time>
      </trkpt>
      <trkpt lat="48.45784" lon="-4.34072">
        <ele>182.89999389648</ele>
        <time>2012-10-14T14:53:16Z</time>
      </trkpt>
      <trkpt lat="48.45772" lon="-4.34068">
        <ele>182.93334960938</ele>
        <time>2012-10-14T14:53:19Z</time>
      </trkpt>
      <trkpt lat="48.45759" lon="-4.34065">
        <ele>183.44999694824</ele>
        <time>2012-10-14T14:53:23Z</time>
      </trkpt>
      <trkpt lat="48.4575" lon="-4.34064">
        <ele>184.72499084473</ele>
        <time>2012-10-14T14:53:27Z</time>
      </trkpt>
      <trkpt lat="48.45749" lon="-4.34065">
        <ele>185</ele>
        <time>2012-10-14T14:53:31Z</time>
      </trkpt>
      <trkpt lat="48.45749" lon="-4.34065">
        <ele>185</ele>
        <time>2012-10-14T14:53:35Z</time>
      </trkpt>
      <trkpt lat="48.45749" lon="-4.34065">
        <ele>185</ele>
        <time>2012-10-14T14:53:39Z</time>
      </trkpt>
      <trkpt lat="48.45749" lon="-4.34065">
        <ele>185</ele>
        <time>2012-10-14T14:53:42Z</time>
      </trkpt>
      <trkpt lat="48.45749" lon="-4.34065">
        <ele>185</ele>
        <time>2012-10-14T14:53:46Z</time>
      </trkpt>
      <trkpt lat="48.45749" lon="-4.34065">
        <ele>185</ele>
        <time>2012-10-14T14:53:49Z</time>
      </trkpt>
      <trkpt lat="48.45749" lon="-4.34065">
        <ele>185</ele>
        <time>2012-10-14T14:53:53Z</time>
      </trkpt>
      <trkpt lat="48.45749" lon="-4.34065">
        <ele>185</ele>
        <time>2012-10-14T14:53:57Z</time>
      </trkpt>
      <trkpt lat="48.45749" lon="-4.34065">
        <ele>185</ele>
        <time>2012-10-14T14:54:01Z</time>
      </trkpt>
      <trkpt lat="48.45749" lon="-4.34065">
        <ele>185</ele>
        <time>2012-10-14T14:54:05Z</time>
      </trkpt>
      <trkpt lat="48.45748" lon="-4.34058">
        <ele>186.45001220703</ele>
        <time>2012-10-14T14:54:09Z</time>
      </trkpt>
      <trkpt lat="48.45749" lon="-4.34042">
        <ele>186.89998372396</ele>
        <time>2012-10-14T14:54:12Z</time>
      </trkpt>
      <trkpt lat="48.45751" lon="-4.34022">
        <ele>187.7250213623</ele>
        <time>2012-10-14T14:54:16Z</time>
      </trkpt>
      <trkpt lat="48.45753" lon="-4.33999">
        <ele>188.29998779297</ele>
        <time>2012-10-14T14:54:19Z</time>
      </trkpt>
      <trkpt lat="48.45756" lon="-4.33973">
        <ele>188.57498168945</ele>
        <time>2012-10-14T14:54:23Z</time>
      </trkpt>
      <trkpt lat="48.45758" lon="-4.33944">
        <ele>188.875</ele>
        <time>2012-10-14T14:54:27Z</time>
      </trkpt>
      <trkpt lat="48.45761" lon="-4.33918">
        <ele>189.02500915527</ele>
        <time>2012-10-14T14:54:31Z</time>
      </trkpt>
      <trkpt lat="48.45763" lon="-4.33894">
        <ele>189.27500915527</ele>
        <time>2012-10-14T14:54:35Z</time>
      </trkpt>
      <trkpt lat="48.45766" lon="-4.33871">
        <ele>189.67500305176</ele>
        <time>2012-10-14T14:54:39Z</time>
      </trkpt>
      <trkpt lat="48.45769" lon="-4.33846">
        <ele>190.02500915527</ele>
        <time>2012-10-14T14:54:43Z</time>
      </trkpt>
      <trkpt lat="48.45772" lon="-4.3382">
        <ele>190.42500305176</ele>
        <time>2012-10-14T14:54:47Z</time>
      </trkpt>
      <trkpt lat="48.45774" lon="-4.33795">
        <ele>190.66666666667</ele>
        <time>2012-10-14T14:54:50Z</time>
      </trkpt>
      <trkpt lat="48.45776" lon="-4.33774">
        <ele>190.76666259766</ele>
        <time>2012-10-14T14:54:53Z</time>
      </trkpt>
      <trkpt lat="48.45778" lon="-4.33749">
        <ele>190.69999694824</ele>
        <time>2012-10-14T14:54:57Z</time>
      </trkpt>
      <trkpt lat="48.45782" lon="-4.3372">
        <ele>190.82499694824</ele>
        <time>2012-10-14T14:55:01Z</time>
      </trkpt>
      <trkpt lat="48.45784" lon="-4.33692">
        <ele>191.02499389648</ele>
        <time>2012-10-14T14:55:05Z</time>
      </trkpt>
      <trkpt lat="48.45786" lon="-4.33662">
        <ele>191.12498474121</ele>
        <time>2012-10-14T14:55:09Z</time>
      </trkpt>
      <trkpt lat="48.45788" lon="-4.33632">
        <ele>191.07498168945</ele>
        <time>2012-10-14T14:55:13Z</time>
      </trkpt>
      <trkpt lat="48.4579" lon="-4.33604">
        <ele>191.14999389648</ele>
        <time>2012-10-14T14:55:17Z</time>
      </trkpt>
      <trkpt lat="48.45792" lon="-4.33578">
        <ele>190.82499694824</ele>
        <time>2012-10-14T14:55:21Z</time>
      </trkpt>
      <trkpt lat="48.45795" lon="-4.33556">
        <ele>190.59999593099</ele>
        <time>2012-10-14T14:55:24Z</time>
      </trkpt>
      <trkpt lat="48.45796" lon="-4.33537">
        <ele>190.35000610352</ele>
        <time>2012-10-14T14:55:28Z</time>
      </trkpt>
      <trkpt lat="48.45798" lon="-4.33524">
        <ele>190.23333740234</ele>
        <time>2012-10-14T14:55:31Z</time>
      </trkpt>
      <trkpt lat="48.45798" lon="-4.33515">
        <ele>190.16666666667</ele>
        <time>2012-10-14T14:55:35Z</time>
      </trkpt>
      <trkpt lat="48.45801" lon="-4.335">
        <ele>189.97500610352</ele>
        <time>2012-10-14T14:55:38Z</time>
      </trkpt>
      <trkpt lat="48.4581" lon="-4.33477">
        <ele>189.55000305176</ele>
        <time>2012-10-14T14:55:42Z</time>
      </trkpt>
      <trkpt lat="48.45822" lon="-4.33453">
        <ele>188.59999593099</ele>
        <time>2012-10-14T14:55:45Z</time>
      </trkpt>
      <trkpt lat="48.45835" lon="-4.33428">
        <ele>187.47500610352</ele>
        <time>2012-10-14T14:55:49Z</time>
      </trkpt>
      <trkpt lat="48.45851" lon="-4.33398">
        <ele>186.22499084473</ele>
        <time>2012-10-14T14:55:53Z</time>
      </trkpt>
      <trkpt lat="48.45868" lon="-4.33366">
        <ele>184.94999694824</ele>
        <time>2012-10-14T14:55:57Z</time>
      </trkpt>
      <trkpt lat="48.45887" lon="-4.33333">
        <ele>183.65000915527</ele>
        <time>2012-10-14T14:56:01Z</time>
      </trkpt>
      <trkpt lat="48.45908" lon="-4.33305">
        <ele>181.92498779297</ele>
        <time>2012-10-14T14:56:05Z</time>
      </trkpt>
      <trkpt lat="48.45929" lon="-4.3328">
        <ele>180.625</ele>
        <time>2012-10-14T14:56:09Z</time>
      </trkpt>
      <trkpt lat="48.45931" lon="-4.33246">
        <ele>180.06667073568</ele>
        <time>2012-10-14T14:56:12Z</time>
      </trkpt>
      <trkpt lat="48.4593" lon="-4.33216">
        <ele>179.76666259766</ele>
        <time>2012-10-14T14:56:15Z</time>
      </trkpt>
      <trkpt lat="48.4593" lon="-4.33189">
        <ele>180.09999593099</ele>
        <time>2012-10-14T14:56:18Z</time>
      </trkpt>
      <trkpt lat="48.4593" lon="-4.33159">
        <ele>180.3999786377</ele>
        <time>2012-10-14T14:56:22Z</time>
      </trkpt>
      <trkpt lat="48.45928" lon="-4.33135">
        <ele>180.5</ele>
        <time>2012-10-14T14:56:25Z</time>
      </trkpt>
      <trkpt lat="48.45927" lon="-4.33112">
        <ele>180.27500915527</ele>
        <time>2012-10-14T14:56:29Z</time>
      </trkpt>
      <trkpt lat="48.45926" lon="-4.33086">
        <ele>179.20001220703</ele>
        <time>2012-10-14T14:56:33Z</time>
      </trkpt>
      <trkpt lat="48.45923" lon="-4.3306">
        <ele>178.10000610352</ele>
        <time>2012-10-14T14:56:37Z</time>
      </trkpt>
      <trkpt lat="48.4592" lon="-4.33032">
        <ele>176.47500610352</ele>
        <time>2012-10-14T14:56:41Z</time>
      </trkpt>
      <trkpt lat="48.45919" lon="-4.33014">
        <ele>174.5</ele>
        <time>2012-10-14T14:56:45Z</time>
      </trkpt>
      <trkpt lat="48.45918" lon="-4.33013">
        <ele>174.29998779297</ele>
        <time>2012-10-14T14:56:49Z</time>
      </trkpt>
      <trkpt lat="48.45918" lon="-4.33013">
        <ele>174.29998779297</ele>
        <time>2012-10-14T14:56:53Z</time>
      </trkpt>
      <trkpt lat="48.45918" lon="-4.33013">
        <ele>174.29998779297</ele>
        <time>2012-10-14T14:56:57Z</time>
      </trkpt>
      <trkpt lat="48.45918" lon="-4.33013">
        <ele>174.29998779297</ele>
        <time>2012-10-14T14:57:01Z</time>
      </trkpt>
      <trkpt lat="48.45918" lon="-4.33013">
        <ele>174.29998779297</ele>
        <time>2012-10-14T14:57:05Z</time>
      </trkpt>
      <trkpt lat="48.45916" lon="-4.33002">
        <ele>174.67500305176</ele>
        <time>2012-10-14T14:57:09Z</time>
      </trkpt>
      <trkpt lat="48.45915" lon="-4.32991">
        <ele>175.16666666667</ele>
        <time>2012-10-14T14:57:12Z</time>
      </trkpt>
      <trkpt lat="48.45914" lon="-4.32983">
        <ele>175.43332926432</ele>
        <time>2012-10-14T14:57:15Z</time>
      </trkpt>
      <trkpt lat="48.45913" lon="-4.32973">
        <ele>175.69999694824</ele>
        <time>2012-10-14T14:57:19Z</time>
      </trkpt>
      <trkpt lat="48.45912" lon="-4.32962">
        <ele>175.79998779297</ele>
        <time>2012-10-14T14:57:23Z</time>
      </trkpt>
      <trkpt lat="48.4591" lon="-4.32947">
        <ele>175.77499389648</ele>
        <time>2012-10-14T14:57:27Z</time>
      </trkpt>
      <trkpt lat="48.45909" lon="-4.32931">
        <ele>175.8666788737</ele>
        <time>2012-10-14T14:57:30Z</time>
      </trkpt>
      <trkpt lat="48.45909" lon="-4.32914">
        <ele>176.17498779297</ele>
        <time>2012-10-14T14:57:34Z</time>
      </trkpt>
      <trkpt lat="48.45908" lon="-4.32898">
        <ele>176.56665039062</ele>
        <time>2012-10-14T14:57:37Z</time>
      </trkpt>
      <trkpt lat="48.45906" lon="-4.32881">
        <ele>176.25</ele>
        <time>2012-10-14T14:57:41Z</time>
      </trkpt>
      <trkpt lat="48.45905" lon="-4.32862">
        <ele>176.19998168945</ele>
        <time>2012-10-14T14:57:45Z</time>
      </trkpt>
      <trkpt lat="48.45904" lon="-4.32845">
        <ele>176.5</ele>
        <time>2012-10-14T14:57:48Z</time>
      </trkpt>
      <trkpt lat="48.45901" lon="-4.32828">
        <ele>176.64999389648</ele>
        <time>2012-10-14T14:57:52Z</time>
      </trkpt>
      <trkpt lat="48.45898" lon="-4.3281">
        <ele>176.70001220703</ele>
        <time>2012-10-14T14:57:55Z</time>
      </trkpt>
      <trkpt lat="48.45895" lon="-4.32794">
        <ele>176.32499694824</ele>
        <time>2012-10-14T14:57:59Z</time>
      </trkpt>
      <trkpt lat="48.45891" lon="-4.32775">
        <ele>176.09999593099</ele>
        <time>2012-10-14T14:58:02Z</time>
      </trkpt>
      <trkpt lat="48.45888" lon="-4.32756">
        <ele>176.3500213623</ele>
        <time>2012-10-14T14:58:06Z</time>
      </trkpt>
      <trkpt lat="48.45883" lon="-4.32735">
        <ele>176.54998779297</ele>
        <time>2012-10-14T14:58:10Z</time>
      </trkpt>
      <trkpt lat="48.45881" lon="-4.32718">
        <ele>177.56667073568</ele>
        <time>2012-10-14T14:58:13Z</time>
      </trkpt>
      <trkpt lat="48.45879" lon="-4.32703">
        <ele>177.27499389648</ele>
        <time>2012-10-14T14:58:17Z</time>
      </trkpt>
      <trkpt lat="48.45884" lon="-4.32689">
        <ele>176.06667073568</ele>
        <time>2012-10-14T14:58:20Z</time>
      </trkpt>
      <trkpt lat="48.45887" lon="-4.32671">
        <ele>175.33333333333</ele>
        <time>2012-10-14T14:58:23Z</time>
      </trkpt>
      <trkpt lat="48.45889" lon="-4.32651">
        <ele>175.06665039062</ele>
        <time>2012-10-14T14:58:26Z</time>
      </trkpt>
      <trkpt lat="48.4589" lon="-4.32631">
        <ele>174.77500915527</ele>
        <time>2012-10-14T14:58:30Z</time>
      </trkpt>
      <trkpt lat="48.45892" lon="-4.32613">
        <ele>174.66664632161</ele>
        <time>2012-10-14T14:58:33Z</time>
      </trkpt>
      <trkpt lat="48.45899" lon="-4.32592">
        <ele>174.30000305176</ele>
        <time>2012-10-14T14:58:37Z</time>
      </trkpt>
      <trkpt lat="48.45914" lon="-4.32574">
        <ele>174.09999084473</ele>
        <time>2012-10-14T14:58:41Z</time>
      </trkpt>
      <trkpt lat="48.45931" lon="-4.32567">
        <ele>174.64999389648</ele>
        <time>2012-10-14T14:58:45Z</time>
      </trkpt>
      <trkpt lat="48.45947" lon="-4.32561">
        <ele>174.30000305176</ele>
        <time>2012-10-14T14:58:49Z</time>
      </trkpt>
      <trkpt lat="48.45961" lon="-4.32554">
        <ele>173.17500305176</ele>
        <time>2012-10-14T14:58:53Z</time>
      </trkpt>
      <trkpt lat="48.45974" lon="-4.32548">
        <ele>172.33335367839</ele>
        <time>2012-10-14T14:58:56Z</time>
      </trkpt>
      <trkpt lat="48.45988" lon="-4.32541">
        <ele>172.1333211263</ele>
        <time>2012-10-14T14:58:59Z</time>
      </trkpt>
      <trkpt lat="48.46007" lon="-4.32533">
        <ele>171.5</ele>
        <time>2012-10-14T14:59:03Z</time>
      </trkpt>
      <trkpt lat="48.46025" lon="-4.32525">
        <ele>171.20001220703</ele>
        <time>2012-10-14T14:59:06Z</time>
      </trkpt>
      <trkpt lat="48.46043" lon="-4.32514">
        <ele>170.6499786377</ele>
        <time>2012-10-14T14:59:10Z</time>
      </trkpt>
      <trkpt lat="48.46061" lon="-4.32502">
        <ele>170.5</ele>
        <time>2012-10-14T14:59:13Z</time>
      </trkpt>
      <trkpt lat="48.46077" lon="-4.32492">
        <ele>170.25</ele>
        <time>2012-10-14T14:59:17Z</time>
      </trkpt>
      <trkpt lat="48.4609" lon="-4.32479">
        <ele>170.40000915527</ele>
        <time>2012-10-14T14:59:21Z</time>
      </trkpt>
      <trkpt lat="48.46091" lon="-4.3246">
        <ele>169.66666666667</ele>
        <time>2012-10-14T14:59:24Z</time>
      </trkpt>
      <trkpt lat="48.46085" lon="-4.32433">
        <ele>168.5</ele>
        <time>2012-10-14T14:59:28Z</time>
      </trkpt>
      <trkpt lat="48.46073" lon="-4.32403">
        <ele>167.43332926432</ele>
        <time>2012-10-14T14:59:31Z</time>
      </trkpt>
      <trkpt lat="48.46058" lon="-4.32378">
        <ele>167.57499694824</ele>
        <time>2012-10-14T14:59:35Z</time>
      </trkpt>
      <trkpt lat="48.46058" lon="-4.32344">
        <ele>167.375</ele>
        <time>2012-10-14T14:59:39Z</time>
      </trkpt>
      <trkpt lat="48.4606" lon="-4.32309">
        <ele>167.5</ele>
        <time>2012-10-14T14:59:43Z</time>
      </trkpt>
      <trkpt lat="48.4606" lon="-4.3227">
        <ele>167.89999389648</ele>
        <time>2012-10-14T14:59:47Z</time>
      </trkpt>
      <trkpt lat="48.46057" lon="-4.32231">
        <ele>167.50001525879</ele>
        <time>2012-10-14T14:59:51Z</time>
      </trkpt>
      <trkpt lat="48.46055" lon="-4.32196">
        <ele>166.66666666667</ele>
        <time>2012-10-14T14:59:54Z</time>
      </trkpt>
      <trkpt lat="48.46058" lon="-4.32161">
        <ele>166.30000305176</ele>
        <time>2012-10-14T14:59:58Z</time>
      </trkpt>
      <trkpt lat="48.46064" lon="-4.32131">
        <ele>165.19999186198</ele>
        <time>2012-10-14T15:00:01Z</time>
      </trkpt>
      <trkpt lat="48.46071" lon="-4.32121">
        <ele>164.82499694824</ele>
        <time>2012-10-14T15:00:05Z</time>
      </trkpt>
      <trkpt lat="48.4608" lon="-4.32115">
        <ele>164.14999389648</ele>
        <time>2012-10-14T15:00:09Z</time>
      </trkpt>
      <trkpt lat="48.46088" lon="-4.32108">
        <ele>163.17500305176</ele>
        <time>2012-10-14T15:00:13Z</time>
      </trkpt>
      <trkpt lat="48.46094" lon="-4.32101">
        <ele>163.93334960938</ele>
        <time>2012-10-14T15:00:16Z</time>
      </trkpt>
      <trkpt lat="48.46104" lon="-4.32087">
        <ele>164.12501525879</ele>
        <time>2012-10-14T15:00:20Z</time>
      </trkpt>
      <trkpt lat="48.46115" lon="-4.32069">
        <ele>164.5</ele>
        <time>2012-10-14T15:00:24Z</time>
      </trkpt>
      <trkpt lat="48.46125" lon="-4.32052">
        <ele>164.52500915527</ele>
        <time>2012-10-14T15:00:28Z</time>
      </trkpt>
      <trkpt lat="48.46134" lon="-4.32033">
        <ele>164.56667073568</ele>
        <time>2012-10-14T15:00:31Z</time>
      </trkpt>
      <trkpt lat="48.46144" lon="-4.32014">
        <ele>164.12498474121</ele>
        <time>2012-10-14T15:00:35Z</time>
      </trkpt>
      <trkpt lat="48.4615" lon="-4.31992">
        <ele>163.32499694824</ele>
        <time>2012-10-14T15:00:39Z</time>
      </trkpt>
      <trkpt lat="48.46154" lon="-4.31969">
        <ele>162.66664632161</ele>
        <time>2012-10-14T15:00:42Z</time>
      </trkpt>
      <trkpt lat="48.46157" lon="-4.31946">
        <ele>162.375</ele>
        <time>2012-10-14T15:00:46Z</time>
      </trkpt>
      <trkpt lat="48.4616" lon="-4.31923">
        <ele>162.66666666667</ele>
        <time>2012-10-14T15:00:49Z</time>
      </trkpt>
      <trkpt lat="48.46162" lon="-4.31903">
        <ele>163.29998779297</ele>
        <time>2012-10-14T15:00:53Z</time>
      </trkpt>
      <trkpt lat="48.46164" lon="-4.31875">
        <ele>162.85000610352</ele>
        <time>2012-10-14T15:00:57Z</time>
      </trkpt>
      <trkpt lat="48.46167" lon="-4.31849">
        <ele>163.03332519531</ele>
        <time>2012-10-14T15:01:00Z</time>
      </trkpt>
      <trkpt lat="48.46174" lon="-4.31825">
        <ele>163.1499786377</ele>
        <time>2012-10-14T15:01:04Z</time>
      </trkpt>
      <trkpt lat="48.46182" lon="-4.31801">
        <ele>163.20001220703</ele>
        <time>2012-10-14T15:01:07Z</time>
      </trkpt>
      <trkpt lat="48.46188" lon="-4.31774">
        <ele>163</ele>
        <time>2012-10-14T15:01:11Z</time>
      </trkpt>
      <trkpt lat="48.46192" lon="-4.31744">
        <ele>163.02499389648</ele>
        <time>2012-10-14T15:01:15Z</time>
      </trkpt>
      <trkpt lat="48.46195" lon="-4.31715">
        <ele>162.97500610352</ele>
        <time>2012-10-14T15:01:19Z</time>
      </trkpt>
      <trkpt lat="48.46196" lon="-4.31688">
        <ele>162.80000305176</ele>
        <time>2012-10-14T15:01:23Z</time>
      </trkpt>
      <trkpt lat="48.46198" lon="-4.31661">
        <ele>162.09999084473</ele>
        <time>2012-10-14T15:01:27Z</time>
      </trkpt>
      <trkpt lat="48.46202" lon="-4.31632">
        <ele>162.14999389648</ele>
        <time>2012-10-14T15:01:31Z</time>
      </trkpt>
      <trkpt lat="48.46206" lon="-4.31605">
        <ele>162.09999084473</ele>
        <time>2012-10-14T15:01:35Z</time>
      </trkpt>
      <trkpt lat="48.4621" lon="-4.31579">
        <ele>162.35000610352</ele>
        <time>2012-10-14T15:01:39Z</time>
      </trkpt>
      <trkpt lat="48.46213" lon="-4.31556">
        <ele>162.33335367839</ele>
        <time>2012-10-14T15:01:42Z</time>
      </trkpt>
      <trkpt lat="48.46216" lon="-4.31531">
        <ele>161.80000305176</ele>
        <time>2012-10-14T15:01:46Z</time>
      </trkpt>
      <trkpt lat="48.46219" lon="-4.31503">
        <ele>160.80000813802</ele>
        <time>2012-10-14T15:01:49Z</time>
      </trkpt>
      <trkpt lat="48.46222" lon="-4.31473">
        <ele>159.02500915527</ele>
        <time>2012-10-14T15:01:53Z</time>
      </trkpt>
      <trkpt lat="48.46235" lon="-4.3144">
        <ele>156.60000610352</ele>
        <time>2012-10-14T15:01:57Z</time>
      </trkpt>
      <trkpt lat="48.4625" lon="-4.31417">
        <ele>155.16668701172</ele>
        <time>2012-10-14T15:02:00Z</time>
      </trkpt>
      <trkpt lat="48.46261" lon="-4.31401">
        <ele>154.80000305176</ele>
        <time>2012-10-14T15:02:04Z</time>
      </trkpt>
      <trkpt lat="48.46271" lon="-4.31389">
        <ele>155.26666259766</ele>
        <time>2012-10-14T15:02:07Z</time>
      </trkpt>
      <trkpt lat="48.46278" lon="-4.31373">
        <ele>155.34999084473</ele>
        <time>2012-10-14T15:02:11Z</time>
      </trkpt>
      <trkpt lat="48.46283" lon="-4.31349">
        <ele>155.57499694824</ele>
        <time>2012-10-14T15:02:15Z</time>
      </trkpt>
      <trkpt lat="48.46288" lon="-4.31325">
        <ele>156.17498779297</ele>
        <time>2012-10-14T15:02:19Z</time>
      </trkpt>
      <trkpt lat="48.46293" lon="-4.31302">
        <ele>157.02500915527</ele>
        <time>2012-10-14T15:02:23Z</time>
      </trkpt>
      <trkpt lat="48.46296" lon="-4.31283">
        <ele>157.96667480469</ele>
        <time>2012-10-14T15:02:26Z</time>
      </trkpt>
      <trkpt lat="48.46299" lon="-4.31265">
        <ele>158.97499084473</ele>
        <time>2012-10-14T15:02:30Z</time>
      </trkpt>
      <trkpt lat="48.46303" lon="-4.31245">
        <ele>159.32499694824</ele>
        <time>2012-10-14T15:02:34Z</time>
      </trkpt>
      <trkpt lat="48.46306" lon="-4.31222">
        <ele>158.69999694824</ele>
        <time>2012-10-14T15:02:38Z</time>
      </trkpt>
      <trkpt lat="48.46309" lon="-4.31194">
        <ele>157.17500305176</ele>
        <time>2012-10-14T15:02:42Z</time>
      </trkpt>
      <trkpt lat="48.46311" lon="-4.31167">
        <ele>156.52500915527</ele>
        <time>2012-10-14T15:02:46Z</time>
      </trkpt>
      <trkpt lat="48.46307" lon="-4.31148">
        <ele>155.46665445964</ele>
        <time>2012-10-14T15:02:49Z</time>
      </trkpt>
      <trkpt lat="48.46291" lon="-4.31149">
        <ele>154.80000305176</ele>
        <time>2012-10-14T15:02:53Z</time>
      </trkpt>
      <trkpt lat="48.46274" lon="-4.31157">
        <ele>155.125</ele>
        <time>2012-10-14T15:02:57Z</time>
      </trkpt>
      <trkpt lat="48.46261" lon="-4.31163">
        <ele>155.43332926432</ele>
        <time>2012-10-14T15:03:00Z</time>
      </trkpt>
      <trkpt lat="48.4625" lon="-4.31169">
        <ele>156.03332519531</ele>
        <time>2012-10-14T15:03:03Z</time>
      </trkpt>
      <trkpt lat="48.46236" lon="-4.31175">
        <ele>155.94999694824</ele>
        <time>2012-10-14T15:03:07Z</time>
      </trkpt>
      <trkpt lat="48.46219" lon="-4.3118">
        <ele>155.27500915527</ele>
        <time>2012-10-14T15:03:11Z</time>
      </trkpt>
      <trkpt lat="48.46197" lon="-4.31177">
        <ele>154.07501220703</ele>
        <time>2012-10-14T15:03:15Z</time>
      </trkpt>
      <trkpt lat="48.46175" lon="-4.3116">
        <ele>152.76668294271</ele>
        <time>2012-10-14T15:03:18Z</time>
      </trkpt>
      <trkpt lat="48.46152" lon="-4.31136">
        <ele>151.42500305176</ele>
        <time>2012-10-14T15:03:22Z</time>
      </trkpt>
      <trkpt lat="48.46127" lon="-4.31126">
        <ele>150.69999186198</ele>
        <time>2012-10-14T15:03:25Z</time>
      </trkpt>
      <trkpt lat="48.46107" lon="-4.31126">
        <ele>150.43332926432</ele>
        <time>2012-10-14T15:03:28Z</time>
      </trkpt>
      <trkpt lat="48.46086" lon="-4.31129">
        <ele>151.375</ele>
        <time>2012-10-14T15:03:32Z</time>
      </trkpt>
      <trkpt lat="48.46063" lon="-4.31134">
        <ele>152.87498474121</ele>
        <time>2012-10-14T15:03:36Z</time>
      </trkpt>
      <trkpt lat="48.46044" lon="-4.31139">
        <ele>154.19999186198</ele>
        <time>2012-10-14T15:03:39Z</time>
      </trkpt>
      <trkpt lat="48.46025" lon="-4.31144">
        <ele>155.5</ele>
        <time>2012-10-14T15:03:43Z</time>
      </trkpt>
      <trkpt lat="48.46006" lon="-4.3115">
        <ele>156.23333740234</ele>
        <time>2012-10-14T15:03:46Z</time>
      </trkpt>
      <trkpt lat="48.45988" lon="-4.31155">
        <ele>157.00001525879</ele>
        <time>2012-10-14T15:03:50Z</time>
      </trkpt>
      <trkpt lat="48.4597" lon="-4.3116">
        <ele>157.39999389648</ele>
        <time>2012-10-14T15:03:54Z</time>
      </trkpt>
      <trkpt lat="48.45953" lon="-4.31164">
        <ele>158.02499389648</ele>
        <time>2012-10-14T15:03:58Z</time>
      </trkpt>
      <trkpt lat="48.45938" lon="-4.31168">
        <ele>158.29998779297</ele>
        <time>2012-10-14T15:04:01Z</time>
      </trkpt>
      <trkpt lat="48.45924" lon="-4.31172">
        <ele>158.43334960938</ele>
        <time>2012-10-14T15:04:04Z</time>
      </trkpt>
      <trkpt lat="48.45909" lon="-4.31175">
        <ele>158.76666259766</ele>
        <time>2012-10-14T15:04:07Z</time>
      </trkpt>
      <trkpt lat="48.45892" lon="-4.3118">
        <ele>159.17498779297</ele>
        <time>2012-10-14T15:04:11Z</time>
      </trkpt>
      <trkpt lat="48.45872" lon="-4.31185">
        <ele>159.64999389648</ele>
        <time>2012-10-14T15:04:15Z</time>
      </trkpt>
      <trkpt lat="48.45855" lon="-4.3119">
        <ele>160</ele>
        <time>2012-10-14T15:04:18Z</time>
      </trkpt>
      <trkpt lat="48.4584" lon="-4.31193">
        <ele>160.30000813802</ele>
        <time>2012-10-14T15:04:21Z</time>
      </trkpt>
      <trkpt lat="48.45825" lon="-4.31196">
        <ele>160.59999593099</ele>
        <time>2012-10-14T15:04:24Z</time>
      </trkpt>
      <trkpt lat="48.4581" lon="-4.31199">
        <ele>160.90000406901</ele>
        <time>2012-10-14T15:04:27Z</time>
      </trkpt>
      <trkpt lat="48.45792" lon="-4.31202">
        <ele>161.39999389648</ele>
        <time>2012-10-14T15:04:31Z</time>
      </trkpt>
      <trkpt lat="48.45775" lon="-4.31205">
        <ele>161.93332926432</ele>
        <time>2012-10-14T15:04:34Z</time>
      </trkpt>
      <trkpt lat="48.45762" lon="-4.31208">
        <ele>162.19999186198</ele>
        <time>2012-10-14T15:04:37Z</time>
      </trkpt>
      <trkpt lat="48.45752" lon="-4.31203">
        <ele>162.46667480469</ele>
        <time>2012-10-14T15:04:40Z</time>
      </trkpt>
      <trkpt lat="48.45749" lon="-4.31186">
        <ele>162.14999389648</ele>
        <time>2012-10-14T15:04:44Z</time>
      </trkpt>
      <trkpt lat="48.45748" lon="-4.31159">
        <ele>161.65000915527</ele>
        <time>2012-10-14T15:04:48Z</time>
      </trkpt>
      <trkpt lat="48.45748" lon="-4.31128">
        <ele>161.36665852865</ele>
        <time>2012-10-14T15:04:51Z</time>
      </trkpt>
      <trkpt lat="48.45751" lon="-4.31096">
        <ele>160.625</ele>
        <time>2012-10-14T15:04:55Z</time>
      </trkpt>
      <trkpt lat="48.45756" lon="-4.31068">
        <ele>159.77499389648</ele>
        <time>2012-10-14T15:04:59Z</time>
      </trkpt>
      <trkpt lat="48.45764" lon="-4.3104">
        <ele>159.50001525879</ele>
        <time>2012-10-14T15:05:03Z</time>
      </trkpt>
      <trkpt lat="48.45773" lon="-4.3101">
        <ele>158.60001627604</ele>
        <time>2012-10-14T15:05:06Z</time>
      </trkpt>
      <trkpt lat="48.4578" lon="-4.30983">
        <ele>157.67498779297</ele>
        <time>2012-10-14T15:05:11Z</time>
      </trkpt>
      <trkpt lat="48.45786" lon="-4.30956">
        <ele>157.49998474121</ele>
        <time>2012-10-14T15:05:14Z</time>
      </trkpt>
      <trkpt lat="48.45792" lon="-4.30934">
        <ele>156.6333211263</ele>
        <time>2012-10-14T15:05:17Z</time>
      </trkpt>
      <trkpt lat="48.45796" lon="-4.30918">
        <ele>156.03334554036</ele>
        <time>2012-10-14T15:05:20Z</time>
      </trkpt>
      <trkpt lat="48.45801" lon="-4.30898">
        <ele>155.77499389648</ele>
        <time>2012-10-14T15:05:24Z</time>
      </trkpt>
      <trkpt lat="48.45807" lon="-4.30878">
        <ele>155.83335367839</ele>
        <time>2012-10-14T15:05:27Z</time>
      </trkpt>
      <trkpt lat="48.45814" lon="-4.30854">
        <ele>154.89999389648</ele>
        <time>2012-10-14T15:05:32Z</time>
      </trkpt>
      <trkpt lat="48.45822" lon="-4.30828">
        <ele>154.32499694824</ele>
        <time>2012-10-14T15:05:36Z</time>
      </trkpt>
      <trkpt lat="48.45829" lon="-4.30806">
        <ele>153.92500305176</ele>
        <time>2012-10-14T15:05:39Z</time>
      </trkpt>
      <trkpt lat="48.45839" lon="-4.3078">
        <ele>154.27499389648</ele>
        <time>2012-10-14T15:05:44Z</time>
      </trkpt>
      <trkpt lat="48.45854" lon="-4.30753">
        <ele>154.40000915527</ele>
        <time>2012-10-14T15:05:48Z</time>
      </trkpt>
      <trkpt lat="48.45872" lon="-4.30727">
        <ele>153.35000610352</ele>
        <time>2012-10-14T15:05:51Z</time>
      </trkpt>
      <trkpt lat="48.45886" lon="-4.30704">
        <ele>151.25</ele>
        <time>2012-10-14T15:05:55Z</time>
      </trkpt>
      <trkpt lat="48.45878" lon="-4.30684">
        <ele>149.94999694824</ele>
        <time>2012-10-14T15:06:00Z</time>
      </trkpt>
      <trkpt lat="48.45868" lon="-4.30672">
        <ele>149.25</ele>
        <time>2012-10-14T15:06:04Z</time>
      </trkpt>
      <trkpt lat="48.45857" lon="-4.30659">
        <ele>148.66666666667</ele>
        <time>2012-10-14T15:06:07Z</time>
      </trkpt>
      <trkpt lat="48.45843" lon="-4.30644">
        <ele>148.59999084473</ele>
        <time>2012-10-14T15:06:11Z</time>
      </trkpt>
      <trkpt lat="48.45829" lon="-4.30628">
        <ele>147.90000406901</ele>
        <time>2012-10-14T15:06:14Z</time>
      </trkpt>
      <trkpt lat="48.45816" lon="-4.30615">
        <ele>146.87498474121</ele>
        <time>2012-10-14T15:06:18Z</time>
      </trkpt>
      <trkpt lat="48.45804" lon="-4.30604">
        <ele>146.23333740234</ele>
        <time>2012-10-14T15:06:21Z</time>
      </trkpt>
      <trkpt lat="48.45789" lon="-4.30592">
        <ele>146.02499389648</ele>
        <time>2012-10-14T15:06:25Z</time>
      </trkpt>
      <trkpt lat="48.45768" lon="-4.30578">
        <ele>145.40000915527</ele>
        <time>2012-10-14T15:06:29Z</time>
      </trkpt>
      <trkpt lat="48.45751" lon="-4.30565">
        <ele>143.83333333333</ele>
        <time>2012-10-14T15:06:32Z</time>
      </trkpt>
      <trkpt lat="48.45753" lon="-4.30546">
        <ele>144.27499389648</ele>
        <time>2012-10-14T15:06:36Z</time>
      </trkpt>
      <trkpt lat="48.45759" lon="-4.3052">
        <ele>144.57501220703</ele>
        <time>2012-10-14T15:06:40Z</time>
      </trkpt>
      <trkpt lat="48.45762" lon="-4.30499">
        <ele>144.16666666667</ele>
        <time>2012-10-14T15:06:43Z</time>
      </trkpt>
      <trkpt lat="48.45765" lon="-4.30478">
        <ele>143.05000305176</ele>
        <time>2012-10-14T15:06:47Z</time>
      </trkpt>
      <trkpt lat="48.45767" lon="-4.30459">
        <ele>142.10000610352</ele>
        <time>2012-10-14T15:06:51Z</time>
      </trkpt>
      <trkpt lat="48.45766" lon="-4.30453">
        <ele>141.30000813802</ele>
        <time>2012-10-14T15:06:54Z</time>
      </trkpt>
      <trkpt lat="48.45763" lon="-4.30452">
        <ele>140.73333740234</ele>
        <time>2012-10-14T15:06:57Z</time>
      </trkpt>
      <trkpt lat="48.45756" lon="-4.30449">
        <ele>140.30000305176</ele>
        <time>2012-10-14T15:07:01Z</time>
      </trkpt>
      <trkpt lat="48.45744" lon="-4.30445">
        <ele>140.47499084473</ele>
        <time>2012-10-14T15:07:05Z</time>
      </trkpt>
      <trkpt lat="48.45727" lon="-4.30441">
        <ele>138.99998474121</ele>
        <time>2012-10-14T15:07:09Z</time>
      </trkpt>
      <trkpt lat="48.45717" lon="-4.30435">
        <ele>138.42501831055</ele>
        <time>2012-10-14T15:07:13Z</time>
      </trkpt>
      <trkpt lat="48.45716" lon="-4.30433">
        <ele>138.29998779297</ele>
        <time>2012-10-14T15:07:16Z</time>
      </trkpt>
      <trkpt lat="48.45716" lon="-4.30433">
        <ele>138.29998779297</ele>
        <time>2012-10-14T15:07:19Z</time>
      </trkpt>
      <trkpt lat="48.45716" lon="-4.30433">
        <ele>138.29998779297</ele>
        <time>2012-10-14T15:07:22Z</time>
      </trkpt>
      <trkpt lat="48.45716" lon="-4.30433">
        <ele>138.29998779297</ele>
        <time>2012-10-14T15:07:26Z</time>
      </trkpt>
      <trkpt lat="48.45716" lon="-4.30433">
        <ele>138.29998779297</ele>
        <time>2012-10-14T15:07:30Z</time>
      </trkpt>
      <trkpt lat="48.45716" lon="-4.30433">
        <ele>138.29998779297</ele>
        <time>2012-10-14T15:07:33Z</time>
      </trkpt>
      <trkpt lat="48.45716" lon="-4.30433">
        <ele>138.29998779297</ele>
        <time>2012-10-14T15:07:38Z</time>
      </trkpt>
      <trkpt lat="48.45708" lon="-4.30431">
        <ele>137.875</ele>
        <time>2012-10-14T15:07:41Z</time>
      </trkpt>
      <trkpt lat="48.45695" lon="-4.3043">
        <ele>137.66666666667</ele>
        <time>2012-10-14T15:07:45Z</time>
      </trkpt>
      <trkpt lat="48.45682" lon="-4.30435">
        <ele>137.02499389648</ele>
        <time>2012-10-14T15:07:48Z</time>
      </trkpt>
      <trkpt lat="48.45666" lon="-4.30438">
        <ele>136.125</ele>
        <time>2012-10-14T15:07:52Z</time>
      </trkpt>
      <trkpt lat="48.45648" lon="-4.30434">
        <ele>134.90000406901</ele>
        <time>2012-10-14T15:07:56Z</time>
      </trkpt>
      <trkpt lat="48.45633" lon="-4.30427">
        <ele>133.34999084473</ele>
        <time>2012-10-14T15:07:59Z</time>
      </trkpt>
      <trkpt lat="48.45623" lon="-4.30415">
        <ele>132.33331298828</ele>
        <time>2012-10-14T15:08:03Z</time>
      </trkpt>
      <trkpt lat="48.45613" lon="-4.3041">
        <ele>132.04998779297</ele>
        <time>2012-10-14T15:08:06Z</time>
      </trkpt>
      <trkpt lat="48.45607" lon="-4.30408">
        <ele>131.93332926432</ele>
        <time>2012-10-14T15:08:09Z</time>
      </trkpt>
      <trkpt lat="48.45596" lon="-4.30404">
        <ele>130.79998779297</ele>
        <time>2012-10-14T15:08:13Z</time>
      </trkpt>
      <trkpt lat="48.45586" lon="-4.30394">
        <ele>129.27500915527</ele>
        <time>2012-10-14T15:08:17Z</time>
      </trkpt>
      <trkpt lat="48.45577" lon="-4.30386">
        <ele>128.84999084473</ele>
        <time>2012-10-14T15:08:21Z</time>
      </trkpt>
      <trkpt lat="48.45569" lon="-4.30378">
        <ele>128.40000406901</ele>
        <time>2012-10-14T15:08:24Z</time>
      </trkpt>
      <trkpt lat="48.45558" lon="-4.3037">
        <ele>127.42498779297</ele>
        <time>2012-10-14T15:08:28Z</time>
      </trkpt>
      <trkpt lat="48.45545" lon="-4.30359">
        <ele>127.33335367839</ele>
        <time>2012-10-14T15:08:31Z</time>
      </trkpt>
      <trkpt lat="48.45533" lon="-4.30349">
        <ele>127.25</ele>
        <time>2012-10-14T15:08:35Z</time>
      </trkpt>
      <trkpt lat="48.45523" lon="-4.30341">
        <ele>126.93332926432</ele>
        <time>2012-10-14T15:08:38Z</time>
      </trkpt>
      <trkpt lat="48.45516" lon="-4.3034">
        <ele>126.93334960938</ele>
        <time>2012-10-14T15:08:41Z</time>
      </trkpt>
      <trkpt lat="48.45511" lon="-4.30339">
        <ele>127.13334147135</ele>
        <time>2012-10-14T15:08:44Z</time>
      </trkpt>
      <trkpt lat="48.45507" lon="-4.30334">
        <ele>126.62501525879</ele>
        <time>2012-10-14T15:08:48Z</time>
      </trkpt>
      <trkpt lat="48.45503" lon="-4.30328">
        <ele>126.05001831055</ele>
        <time>2012-10-14T15:08:52Z</time>
      </trkpt>
      <trkpt lat="48.45496" lon="-4.30323">
        <ele>126.03332519531</ele>
        <time>2012-10-14T15:08:55Z</time>
      </trkpt>
      <trkpt lat="48.45485" lon="-4.30324">
        <ele>125.5</ele>
        <time>2012-10-14T15:08:58Z</time>
      </trkpt>
      <trkpt lat="48.45469" lon="-4.30323">
        <ele>124.69999186198</ele>
        <time>2012-10-14T15:09:02Z</time>
      </trkpt>
      <trkpt lat="48.45455" lon="-4.30318">
        <ele>124.37498474121</ele>
        <time>2012-10-14T15:09:05Z</time>
      </trkpt>
      <trkpt lat="48.45442" lon="-4.30307">
        <ele>122.69999694824</ele>
        <time>2012-10-14T15:09:09Z</time>
      </trkpt>
      <trkpt lat="48.45428" lon="-4.30295">
        <ele>121.75</ele>
        <time>2012-10-14T15:09:13Z</time>
      </trkpt>
      <trkpt lat="48.45413" lon="-4.30283">
        <ele>120.19999694824</ele>
        <time>2012-10-14T15:09:17Z</time>
      </trkpt>
      <trkpt lat="48.45398" lon="-4.30271">
        <ele>119.33335367839</ele>
        <time>2012-10-14T15:09:20Z</time>
      </trkpt>
      <trkpt lat="48.45384" lon="-4.30255">
        <ele>118.82501220703</ele>
        <time>2012-10-14T15:09:24Z</time>
      </trkpt>
      <trkpt lat="48.45369" lon="-4.30242">
        <ele>118.05000305176</ele>
        <time>2012-10-14T15:09:28Z</time>
      </trkpt>
      <trkpt lat="48.45356" lon="-4.30241">
        <ele>115.79998779297</ele>
        <time>2012-10-14T15:09:31Z</time>
      </trkpt>
      <trkpt lat="48.4534" lon="-4.30233">
        <ele>114.57501220703</ele>
        <time>2012-10-14T15:09:35Z</time>
      </trkpt>
      <trkpt lat="48.45328" lon="-4.30215">
        <ele>112.67498779297</ele>
        <time>2012-10-14T15:09:39Z</time>
      </trkpt>
      <trkpt lat="48.45318" lon="-4.30195">
        <ele>110.55001831055</ele>
        <time>2012-10-14T15:09:43Z</time>
      </trkpt>
      <trkpt lat="48.45311" lon="-4.30188">
        <ele>111.24998474121</ele>
        <time>2012-10-14T15:09:47Z</time>
      </trkpt>
      <trkpt lat="48.45305" lon="-4.30185">
        <ele>110.62498474121</ele>
        <time>2012-10-14T15:09:51Z</time>
      </trkpt>
      <trkpt lat="48.45292" lon="-4.30185">
        <ele>110.40000406901</ele>
        <time>2012-10-14T15:09:54Z</time>
      </trkpt>
      <trkpt lat="48.45281" lon="-4.30181">
        <ele>110.69999694824</ele>
        <time>2012-10-14T15:09:58Z</time>
      </trkpt>
      <trkpt lat="48.45269" lon="-4.3018">
        <ele>110.03334554036</ele>
        <time>2012-10-14T15:10:01Z</time>
      </trkpt>
      <trkpt lat="48.45256" lon="-4.30186">
        <ele>109.95001220703</ele>
        <time>2012-10-14T15:10:05Z</time>
      </trkpt>
      <trkpt lat="48.45243" lon="-4.30197">
        <ele>110.05000305176</ele>
        <time>2012-10-14T15:10:09Z</time>
      </trkpt>
      <trkpt lat="48.45227" lon="-4.30211">
        <ele>109.56665039062</ele>
        <time>2012-10-14T15:10:12Z</time>
      </trkpt>
      <trkpt lat="48.45215" lon="-4.30222">
        <ele>110.05000305176</ele>
        <time>2012-10-14T15:10:16Z</time>
      </trkpt>
      <trkpt lat="48.45203" lon="-4.30234">
        <ele>109.79998779297</ele>
        <time>2012-10-14T15:10:19Z</time>
      </trkpt>
      <trkpt lat="48.45192" lon="-4.30245">
        <ele>109.89999389648</ele>
        <time>2012-10-14T15:10:23Z</time>
      </trkpt>
      <trkpt lat="48.45183" lon="-4.30251">
        <ele>109.80000813802</ele>
        <time>2012-10-14T15:10:26Z</time>
      </trkpt>
      <trkpt lat="48.45173" lon="-4.30254">
        <ele>109.92498779297</ele>
        <time>2012-10-14T15:10:30Z</time>
      </trkpt>
      <trkpt lat="48.45158" lon="-4.30263">
        <ele>109.64999389648</ele>
        <time>2012-10-14T15:10:34Z</time>
      </trkpt>
      <trkpt lat="48.4514" lon="-4.30268">
        <ele>109.40000406901</ele>
        <time>2012-10-14T15:10:37Z</time>
      </trkpt>
      <trkpt lat="48.45122" lon="-4.30266">
        <ele>109.27500915527</ele>
        <time>2012-10-14T15:10:41Z</time>
      </trkpt>
      <trkpt lat="48.45109" lon="-4.30261">
        <ele>109.66666666667</ele>
        <time>2012-10-14T15:10:44Z</time>
      </trkpt>
      <trkpt lat="48.45093" lon="-4.30256">
        <ele>110.92500305176</ele>
        <time>2012-10-14T15:10:48Z</time>
      </trkpt>
      <trkpt lat="48.45081" lon="-4.30249">
        <ele>111.55000305176</ele>
        <time>2012-10-14T15:10:52Z</time>
      </trkpt>
      <trkpt lat="48.45075" lon="-4.30243">
        <ele>111.93332926432</ele>
        <time>2012-10-14T15:10:55Z</time>
      </trkpt>
      <trkpt lat="48.45068" lon="-4.30239">
        <ele>112.39999389648</ele>
        <time>2012-10-14T15:10:59Z</time>
      </trkpt>
      <trkpt lat="48.45055" lon="-4.30234">
        <ele>112.96667480469</ele>
        <time>2012-10-14T15:11:02Z</time>
      </trkpt>
      <trkpt lat="48.45039" lon="-4.30229">
        <ele>112.875</ele>
        <time>2012-10-14T15:11:06Z</time>
      </trkpt>
      <trkpt lat="48.45016" lon="-4.30225">
        <ele>113.05000305176</ele>
        <time>2012-10-14T15:11:10Z</time>
      </trkpt>
      <trkpt lat="48.44999" lon="-4.30217">
        <ele>113.83333333333</ele>
        <time>2012-10-14T15:11:13Z</time>
      </trkpt>
      <trkpt lat="48.44993" lon="-4.30208">
        <ele>114.22499084473</ele>
        <time>2012-10-14T15:11:17Z</time>
      </trkpt>
      <trkpt lat="48.4499" lon="-4.30196">
        <ele>113.07499694824</ele>
        <time>2012-10-14T15:11:21Z</time>
      </trkpt>
      <trkpt lat="48.44985" lon="-4.30182">
        <ele>112.64999389648</ele>
        <time>2012-10-14T15:11:25Z</time>
      </trkpt>
      <trkpt lat="48.44979" lon="-4.30172">
        <ele>112.10000610352</ele>
        <time>2012-10-14T15:11:29Z</time>
      </trkpt>
      <trkpt lat="48.44974" lon="-4.30159">
        <ele>111.47499084473</ele>
        <time>2012-10-14T15:11:33Z</time>
      </trkpt>
      <trkpt lat="48.44966" lon="-4.30146">
        <ele>110.60000610352</ele>
        <time>2012-10-14T15:11:37Z</time>
      </trkpt>
      <trkpt lat="48.44959" lon="-4.30134">
        <ele>109.44998168945</ele>
        <time>2012-10-14T15:11:41Z</time>
      </trkpt>
      <trkpt lat="48.44949" lon="-4.3012">
        <ele>108.22500610352</ele>
        <time>2012-10-14T15:11:45Z</time>
      </trkpt>
      <trkpt lat="48.44935" lon="-4.30105">
        <ele>107.20001220703</ele>
        <time>2012-10-14T15:11:49Z</time>
      </trkpt>
      <trkpt lat="48.44923" lon="-4.3009">
        <ele>107.09999084473</ele>
        <time>2012-10-14T15:11:53Z</time>
      </trkpt>
      <trkpt lat="48.44912" lon="-4.30075">
        <ele>107.125</ele>
        <time>2012-10-14T15:11:57Z</time>
      </trkpt>
      <trkpt lat="48.44902" lon="-4.30063">
        <ele>107.5</ele>
        <time>2012-10-14T15:12:01Z</time>
      </trkpt>
      <trkpt lat="48.44896" lon="-4.30057">
        <ele>107.59997558594</ele>
        <time>2012-10-14T15:12:05Z</time>
      </trkpt>
      <trkpt lat="48.44892" lon="-4.30048">
        <ele>108.02502441406</ele>
        <time>2012-10-14T15:12:09Z</time>
      </trkpt>
      <trkpt lat="48.4489" lon="-4.30046">
        <ele>108.40002441406</ele>
        <time>2012-10-14T15:12:12Z</time>
      </trkpt>
      <trkpt lat="48.4489" lon="-4.30046">
        <ele>108.40002441406</ele>
        <time>2012-10-14T15:12:16Z</time>
      </trkpt>
      <trkpt lat="48.4489" lon="-4.30046">
        <ele>108.40002441406</ele>
        <time>2012-10-14T15:12:19Z</time>
      </trkpt>
      <trkpt lat="48.4489" lon="-4.30046">
        <ele>108.40002441406</ele>
        <time>2012-10-14T15:12:23Z</time>
      </trkpt>
      <trkpt lat="48.4489" lon="-4.30046">
        <ele>108.40002441406</ele>
        <time>2012-10-14T15:12:27Z</time>
      </trkpt>
      <trkpt lat="48.4489" lon="-4.30046">
        <ele>108.40002441406</ele>
        <time>2012-10-14T15:12:31Z</time>
      </trkpt>
      <trkpt lat="48.4489" lon="-4.30046">
        <ele>108.40002441406</ele>
        <time>2012-10-14T15:12:35Z</time>
      </trkpt>
      <trkpt lat="48.4489" lon="-4.30046">
        <ele>108.40002441406</ele>
        <time>2012-10-14T15:12:39Z</time>
      </trkpt>
      <trkpt lat="48.4489" lon="-4.30046">
        <ele>108.40002441406</ele>
        <time>2012-10-14T15:12:42Z</time>
      </trkpt>
      <trkpt lat="48.4489" lon="-4.30046">
        <ele>108.40002441406</ele>
        <time>2012-10-14T15:12:46Z</time>
      </trkpt>
      <trkpt lat="48.4489" lon="-4.30046">
        <ele>108.40002441406</ele>
        <time>2012-10-14T15:12:49Z</time>
      </trkpt>
      <trkpt lat="48.4489" lon="-4.30046">
        <ele>108.40002441406</ele>
        <time>2012-10-14T15:12:53Z</time>
      </trkpt>
      <trkpt lat="48.4489" lon="-4.30046">
        <ele>108.40002441406</ele>
        <time>2012-10-14T15:12:57Z</time>
      </trkpt>
      <trkpt lat="48.4489" lon="-4.30046">
        <ele>108.40002441406</ele>
        <time>2012-10-14T15:13:01Z</time>
      </trkpt>
      <trkpt lat="48.4489" lon="-4.30046">
        <ele>108.40002441406</ele>
        <time>2012-10-14T15:13:05Z</time>
      </trkpt>
      <trkpt lat="48.4489" lon="-4.30046">
        <ele>108.40002441406</ele>
        <time>2012-10-14T15:13:09Z</time>
      </trkpt>
      <trkpt lat="48.4489" lon="-4.30046">
        <ele>108.40002441406</ele>
        <time>2012-10-14T15:13:13Z</time>
      </trkpt>
      <trkpt lat="48.4489" lon="-4.30046">
        <ele>108.40002441406</ele>
        <time>2012-10-14T15:13:16Z</time>
      </trkpt>
      <trkpt lat="48.4489" lon="-4.30046">
        <ele>108.40002441406</ele>
        <time>2012-10-14T15:13:19Z</time>
      </trkpt>
      <trkpt lat="48.4489" lon="-4.30046">
        <ele>108.40002441406</ele>
        <time>2012-10-14T15:13:23Z</time>
      </trkpt>
      <trkpt lat="48.4489" lon="-4.30046">
        <ele>108.40002441406</ele>
        <time>2012-10-14T15:13:27Z</time>
      </trkpt>
      <trkpt lat="48.4489" lon="-4.30046">
        <ele>108.40002441406</ele>
        <time>2012-10-14T15:13:31Z</time>
      </trkpt>
      <trkpt lat="48.4489" lon="-4.30046">
        <ele>108.40002441406</ele>
        <time>2012-10-14T15:13:35Z</time>
      </trkpt>
      <trkpt lat="48.4489" lon="-4.30046">
        <ele>108.40002441406</ele>
        <time>2012-10-14T15:13:39Z</time>
      </trkpt>
      <trkpt lat="48.4489" lon="-4.30046">
        <ele>108.40002441406</ele>
        <time>2012-10-14T15:13:43Z</time>
      </trkpt>
      <trkpt lat="48.4489" lon="-4.30046">
        <ele>108.40002441406</ele>
        <time>2012-10-14T15:13:47Z</time>
      </trkpt>
      <trkpt lat="48.4489" lon="-4.30046">
        <ele>108.40002441406</ele>
        <time>2012-10-14T15:13:51Z</time>
      </trkpt>
      <trkpt lat="48.4489" lon="-4.30046">
        <ele>108.40002441406</ele>
        <time>2012-10-14T15:13:55Z</time>
      </trkpt>
      <trkpt lat="48.4489" lon="-4.30046">
        <ele>108.40002441406</ele>
        <time>2012-10-14T15:13:59Z</time>
      </trkpt>
      <trkpt lat="48.4489" lon="-4.30046">
        <ele>108.40002441406</ele>
        <time>2012-10-14T15:14:03Z</time>
      </trkpt>
      <trkpt lat="48.4489" lon="-4.30046">
        <ele>108.40002441406</ele>
        <time>2012-10-14T15:14:07Z</time>
      </trkpt>
      <trkpt lat="48.4489" lon="-4.30046">
        <ele>108.40002441406</ele>
        <time>2012-10-14T15:14:11Z</time>
      </trkpt>
      <trkpt lat="48.4488" lon="-4.30055">
        <ele>113.17500305176</ele>
        <time>2012-10-14T15:14:15Z</time>
      </trkpt>
      <trkpt lat="48.44877" lon="-4.30081">
        <ele>111.97500610352</ele>
        <time>2012-10-14T15:14:19Z</time>
      </trkpt>
      <trkpt lat="48.44878" lon="-4.30101">
        <ele>109.49998474121</ele>
        <time>2012-10-14T15:14:23Z</time>
      </trkpt>
      <trkpt lat="48.44878" lon="-4.3011">
        <ele>108.29998779297</ele>
        <time>2012-10-14T15:14:26Z</time>
      </trkpt>
      <trkpt lat="48.44878" lon="-4.30114">
        <ele>108.12498474121</ele>
        <time>2012-10-14T15:14:30Z</time>
      </trkpt>
      <trkpt lat="48.4488" lon="-4.30125">
        <ele>108.03334554036</ele>
        <time>2012-10-14T15:14:33Z</time>
      </trkpt>
      <trkpt lat="48.44887" lon="-4.30137">
        <ele>107</ele>
        <time>2012-10-14T15:14:37Z</time>
      </trkpt>
      <trkpt lat="48.44894" lon="-4.30153">
        <ele>107.02499389648</ele>
        <time>2012-10-14T15:14:41Z</time>
      </trkpt>
      <trkpt lat="48.44899" lon="-4.30165">
        <ele>107</ele>
        <time>2012-10-14T15:14:44Z</time>
      </trkpt>
      <trkpt lat="48.449" lon="-4.30176">
        <ele>106.32499694824</ele>
        <time>2012-10-14T15:14:48Z</time>
      </trkpt>
      <trkpt lat="48.44897" lon="-4.30187">
        <ele>106.22500610352</ele>
        <time>2012-10-14T15:14:52Z</time>
      </trkpt>
      <trkpt lat="48.44892" lon="-4.30191">
        <ele>107.43332926432</ele>
        <time>2012-10-14T15:14:55Z</time>
      </trkpt>
      <trkpt lat="48.44888" lon="-4.30194">
        <ele>107.97500610352</ele>
        <time>2012-10-14T15:14:59Z</time>
      </trkpt>
      <trkpt lat="48.4488" lon="-4.30195">
        <ele>108.5</ele>
        <time>2012-10-14T15:15:02Z</time>
      </trkpt>
      <trkpt lat="48.44871" lon="-4.30198">
        <ele>108.55000305176</ele>
        <time>2012-10-14T15:15:06Z</time>
      </trkpt>
      <trkpt lat="48.44864" lon="-4.30203">
        <ele>108.83333333333</ele>
        <time>2012-10-14T15:15:09Z</time>
      </trkpt>
      <trkpt lat="48.4486" lon="-4.30207">
        <ele>109.44999694824</ele>
        <time>2012-10-14T15:15:13Z</time>
      </trkpt>
      <trkpt lat="48.44857" lon="-4.30208">
        <ele>109.5</ele>
        <time>2012-10-14T15:15:17Z</time>
      </trkpt>
      <trkpt lat="48.44857" lon="-4.30208">
        <ele>109.5</ele>
        <time>2012-10-14T15:15:21Z</time>
      </trkpt>
      <trkpt lat="48.44857" lon="-4.30208">
        <ele>109.5</ele>
        <time>2012-10-14T15:15:24Z</time>
      </trkpt>
      <trkpt lat="48.44857" lon="-4.30208">
        <ele>109.5</ele>
        <time>2012-10-14T15:15:27Z</time>
      </trkpt>
      <trkpt lat="48.4485" lon="-4.30212">
        <ele>110.64999389648</ele>
        <time>2012-10-14T15:15:31Z</time>
      </trkpt>
      <trkpt lat="48.44822" lon="-4.30226">
        <ele>114.14999389648</ele>
        <time>2012-10-14T15:15:35Z</time>
      </trkpt>
      <trkpt lat="48.44819" lon="-4.30225">
        <ele>114</ele>
        <time>2012-10-14T15:15:39Z</time>
      </trkpt>
      <trkpt lat="48.44811" lon="-4.30222">
        <ele>114.59999593099</ele>
        <time>2012-10-14T15:15:42Z</time>
      </trkpt>
      <trkpt lat="48.44808" lon="-4.30221">
        <ele>115.80001831055</ele>
        <time>2012-10-14T15:15:46Z</time>
      </trkpt>
      <trkpt lat="48.44808" lon="-4.30221">
        <ele>115.90002441406</ele>
        <time>2012-10-14T15:15:50Z</time>
      </trkpt>
      <trkpt lat="48.44808" lon="-4.30221">
        <ele>115.90002441406</ele>
        <time>2012-10-14T15:15:53Z</time>
      </trkpt>
      <trkpt lat="48.44808" lon="-4.30221">
        <ele>115.90002441406</ele>
        <time>2012-10-14T15:15:57Z</time>
      </trkpt>
      <trkpt lat="48.44808" lon="-4.30221">
        <ele>115.90002441406</ele>
        <time>2012-10-14T15:16:00Z</time>
      </trkpt>
      <trkpt lat="48.44808" lon="-4.30221">
        <ele>115.90002441406</ele>
        <time>2012-10-14T15:16:04Z</time>
      </trkpt>
      <trkpt lat="48.44808" lon="-4.30221">
        <ele>115.90002441406</ele>
        <time>2012-10-14T15:16:07Z</time>
      </trkpt>
      <trkpt lat="48.44808" lon="-4.30221">
        <ele>115.90002441406</ele>
        <time>2012-10-14T15:16:11Z</time>
      </trkpt>
      <trkpt lat="48.44808" lon="-4.30221">
        <ele>115.90002441406</ele>
        <time>2012-10-14T15:16:15Z</time>
      </trkpt>
      <trkpt lat="48.44797" lon="-4.30216">
        <ele>116.46667480469</ele>
        <time>2012-10-14T15:16:18Z</time>
      </trkpt>
      <trkpt lat="48.44772" lon="-4.30209">
        <ele>118.29998779297</ele>
        <time>2012-10-14T15:16:22Z</time>
      </trkpt>
      <trkpt lat="48.44771" lon="-4.3021">
        <ele>118.59997558594</ele>
        <time>2012-10-14T15:16:25Z</time>
      </trkpt>
      <trkpt lat="48.44771" lon="-4.3021">
        <ele>118.59997558594</ele>
        <time>2012-10-14T15:16:29Z</time>
      </trkpt>
      <trkpt lat="48.44771" lon="-4.3021">
        <ele>118.59997558594</ele>
        <time>2012-10-14T15:16:33Z</time>
      </trkpt>
      <trkpt lat="48.44765" lon="-4.30218">
        <ele>121.29998779297</ele>
        <time>2012-10-14T15:16:37Z</time>
      </trkpt>
      <trkpt lat="48.44757" lon="-4.30231">
        <ele>124.56667073568</ele>
        <time>2012-10-14T15:16:40Z</time>
      </trkpt>
      <trkpt lat="48.44754" lon="-4.30241">
        <ele>124.62498474121</ele>
        <time>2012-10-14T15:16:44Z</time>
      </trkpt>
      <trkpt lat="48.44751" lon="-4.30252">
        <ele>125.00001525879</ele>
        <time>2012-10-14T15:16:48Z</time>
      </trkpt>
      <trkpt lat="48.44752" lon="-4.30264">
        <ele>124.69999694824</ele>
        <time>2012-10-14T15:16:52Z</time>
      </trkpt>
      <trkpt lat="48.44752" lon="-4.30274">
        <ele>124.23331705729</ele>
        <time>2012-10-14T15:16:55Z</time>
      </trkpt>
      <trkpt lat="48.44752" lon="-4.30283">
        <ele>124.69998168945</ele>
        <time>2012-10-14T15:16:59Z</time>
      </trkpt>
      <trkpt lat="48.44753" lon="-4.30297">
        <ele>125.3500213623</ele>
        <time>2012-10-14T15:17:03Z</time>
      </trkpt>
      <trkpt lat="48.44752" lon="-4.30308">
        <ele>125.53332519531</ele>
        <time>2012-10-14T15:17:06Z</time>
      </trkpt>
      <trkpt lat="48.44752" lon="-4.30319">
        <ele>126.44999694824</ele>
        <time>2012-10-14T15:17:10Z</time>
      </trkpt>
      <trkpt lat="48.44754" lon="-4.30331">
        <ele>126.56667073568</ele>
        <time>2012-10-14T15:17:13Z</time>
      </trkpt>
      <trkpt lat="48.44755" lon="-4.30343">
        <ele>126.25</ele>
        <time>2012-10-14T15:17:17Z</time>
      </trkpt>
      <trkpt lat="48.44756" lon="-4.30355">
        <ele>126.27499389648</ele>
        <time>2012-10-14T15:17:21Z</time>
      </trkpt>
      <trkpt lat="48.44756" lon="-4.30368">
        <ele>127.5</ele>
        <time>2012-10-14T15:17:24Z</time>
      </trkpt>
      <trkpt lat="48.44755" lon="-4.3038">
        <ele>129.07501220703</ele>
        <time>2012-10-14T15:17:28Z</time>
      </trkpt>
      <trkpt lat="48.44754" lon="-4.30393">
        <ele>129.73333740234</ele>
        <time>2012-10-14T15:17:31Z</time>
      </trkpt>
      <trkpt lat="48.44752" lon="-4.30408">
        <ele>129.97500610352</ele>
        <time>2012-10-14T15:17:35Z</time>
      </trkpt>
      <trkpt lat="48.44752" lon="-4.30426">
        <ele>129.19998168945</ele>
        <time>2012-10-14T15:17:39Z</time>
      </trkpt>
      <trkpt lat="48.44754" lon="-4.30444">
        <ele>127.8666788737</ele>
        <time>2012-10-14T15:17:42Z</time>
      </trkpt>
      <trkpt lat="48.44757" lon="-4.3046">
        <ele>126.90000915527</ele>
        <time>2012-10-14T15:17:46Z</time>
      </trkpt>
      <trkpt lat="48.4476" lon="-4.30471">
        <ele>127.06667073568</ele>
        <time>2012-10-14T15:17:49Z</time>
      </trkpt>
      <trkpt lat="48.44763" lon="-4.30482">
        <ele>127.47499084473</ele>
        <time>2012-10-14T15:17:53Z</time>
      </trkpt>
      <trkpt lat="48.44767" lon="-4.30496">
        <ele>127.625</ele>
        <time>2012-10-14T15:17:57Z</time>
      </trkpt>
      <trkpt lat="48.4477" lon="-4.30508">
        <ele>127.76666259766</ele>
        <time>2012-10-14T15:18:00Z</time>
      </trkpt>
      <trkpt lat="48.44774" lon="-4.30521">
        <ele>127.90000915527</ele>
        <time>2012-10-14T15:18:04Z</time>
      </trkpt>
      <trkpt lat="48.44778" lon="-4.30533">
        <ele>128</ele>
        <time>2012-10-14T15:18:07Z</time>
      </trkpt>
      <trkpt lat="48.44782" lon="-4.30547">
        <ele>128.27499389648</ele>
        <time>2012-10-14T15:18:11Z</time>
      </trkpt>
      <trkpt lat="48.44786" lon="-4.30564">
        <ele>128.59999084473</ele>
        <time>2012-10-14T15:18:15Z</time>
      </trkpt>
      <trkpt lat="48.4479" lon="-4.30582">
        <ele>128.79998779297</ele>
        <time>2012-10-14T15:18:19Z</time>
      </trkpt>
      <trkpt lat="48.44791" lon="-4.30598">
        <ele>129.47500610352</ele>
        <time>2012-10-14T15:18:23Z</time>
      </trkpt>
      <trkpt lat="48.44793" lon="-4.30612">
        <ele>129.5</ele>
        <time>2012-10-14T15:18:27Z</time>
      </trkpt>
      <trkpt lat="48.44793" lon="-4.30628">
        <ele>129.54998779297</ele>
        <time>2012-10-14T15:18:31Z</time>
      </trkpt>
      <trkpt lat="48.44795" lon="-4.30647">
        <ele>129.30000305176</ele>
        <time>2012-10-14T15:18:35Z</time>
      </trkpt>
      <trkpt lat="48.44797" lon="-4.30664">
        <ele>129.5</ele>
        <time>2012-10-14T15:18:38Z</time>
      </trkpt>
      <trkpt lat="48.44801" lon="-4.30684">
        <ele>129</ele>
        <time>2012-10-14T15:18:42Z</time>
      </trkpt>
      <trkpt lat="48.44807" lon="-4.30706">
        <ele>126.83331298828</ele>
        <time>2012-10-14T15:18:45Z</time>
      </trkpt>
      <trkpt lat="48.44816" lon="-4.30732">
        <ele>124.87501525879</ele>
        <time>2012-10-14T15:18:49Z</time>
      </trkpt>
      <trkpt lat="48.44825" lon="-4.30764">
        <ele>123.82501220703</ele>
        <time>2012-10-14T15:18:53Z</time>
      </trkpt>
      <trkpt lat="48.44831" lon="-4.30798">
        <ele>123.02499389648</ele>
        <time>2012-10-14T15:18:57Z</time>
      </trkpt>
      <trkpt lat="48.44837" lon="-4.30823">
        <ele>123.20001220703</ele>
        <time>2012-10-14T15:19:00Z</time>
      </trkpt>
      <trkpt lat="48.44839" lon="-4.30843">
        <ele>123.89999389648</ele>
        <time>2012-10-14T15:19:04Z</time>
      </trkpt>
      <trkpt lat="48.44841" lon="-4.30861">
        <ele>124.53332519531</ele>
        <time>2012-10-14T15:19:07Z</time>
      </trkpt>
      <trkpt lat="48.44843" lon="-4.30877">
        <ele>125.32501220703</ele>
        <time>2012-10-14T15:19:11Z</time>
      </trkpt>
      <trkpt lat="48.44845" lon="-4.30892">
        <ele>125.96667480469</ele>
        <time>2012-10-14T15:19:14Z</time>
      </trkpt>
      <trkpt lat="48.44848" lon="-4.30907">
        <ele>127.09999084473</ele>
        <time>2012-10-14T15:19:18Z</time>
      </trkpt>
      <trkpt lat="48.4485" lon="-4.30924">
        <ele>128.22500610352</ele>
        <time>2012-10-14T15:19:22Z</time>
      </trkpt>
      <trkpt lat="48.44852" lon="-4.3094">
        <ele>129.16668701172</ele>
        <time>2012-10-14T15:19:25Z</time>
      </trkpt>
      <trkpt lat="48.44854" lon="-4.30955">
        <ele>129.97500610352</ele>
        <time>2012-10-14T15:19:29Z</time>
      </trkpt>
      <trkpt lat="48.44856" lon="-4.30973">
        <ele>130.875</ele>
        <time>2012-10-14T15:19:33Z</time>
      </trkpt>
      <trkpt lat="48.44857" lon="-4.30991">
        <ele>131.82499694824</ele>
        <time>2012-10-14T15:19:37Z</time>
      </trkpt>
      <trkpt lat="48.44857" lon="-4.31008">
        <ele>132.27500915527</ele>
        <time>2012-10-14T15:19:41Z</time>
      </trkpt>
      <trkpt lat="48.44857" lon="-4.31026">
        <ele>132.52499389648</ele>
        <time>2012-10-14T15:19:45Z</time>
      </trkpt>
      <trkpt lat="48.44859" lon="-4.31045">
        <ele>132.59999084473</ele>
        <time>2012-10-14T15:19:49Z</time>
      </trkpt>
      <trkpt lat="48.44862" lon="-4.31063">
        <ele>132.85000610352</ele>
        <time>2012-10-14T15:19:53Z</time>
      </trkpt>
      <trkpt lat="48.44864" lon="-4.31081">
        <ele>133.17500305176</ele>
        <time>2012-10-14T15:19:57Z</time>
      </trkpt>
      <trkpt lat="48.44866" lon="-4.31097">
        <ele>133.36665852865</ele>
        <time>2012-10-14T15:20:01Z</time>
      </trkpt>
      <trkpt lat="48.44868" lon="-4.31112">
        <ele>133.94998168945</ele>
        <time>2012-10-14T15:20:04Z</time>
      </trkpt>
      <trkpt lat="48.44871" lon="-4.31128">
        <ele>134.67500305176</ele>
        <time>2012-10-14T15:20:08Z</time>
      </trkpt>
      <trkpt lat="48.44873" lon="-4.31144">
        <ele>135.47500610352</ele>
        <time>2012-10-14T15:20:12Z</time>
      </trkpt>
      <trkpt lat="48.44876" lon="-4.31158">
        <ele>136.375</ele>
        <time>2012-10-14T15:20:16Z</time>
      </trkpt>
      <trkpt lat="48.44879" lon="-4.31171">
        <ele>137.09999593099</ele>
        <time>2012-10-14T15:20:19Z</time>
      </trkpt>
      <trkpt lat="48.44883" lon="-4.31184">
        <ele>137.52500915527</ele>
        <time>2012-10-14T15:20:23Z</time>
      </trkpt>
      <trkpt lat="48.44889" lon="-4.31195">
        <ele>138.53332519531</ele>
        <time>2012-10-14T15:20:26Z</time>
      </trkpt>
      <trkpt lat="48.44894" lon="-4.31205">
        <ele>139.3500213623</ele>
        <time>2012-10-14T15:20:30Z</time>
      </trkpt>
      <trkpt lat="48.44899" lon="-4.31216">
        <ele>140.75001525879</ele>
        <time>2012-10-14T15:20:34Z</time>
      </trkpt>
      <trkpt lat="48.44904" lon="-4.31226">
        <ele>141.63334147135</ele>
        <time>2012-10-14T15:20:37Z</time>
      </trkpt>
      <trkpt lat="48.44909" lon="-4.31236">
        <ele>141.875</ele>
        <time>2012-10-14T15:20:41Z</time>
      </trkpt>
      <trkpt lat="48.44914" lon="-4.31248">
        <ele>142.625</ele>
        <time>2012-10-14T15:20:45Z</time>
      </trkpt>
      <trkpt lat="48.44919" lon="-4.31258">
        <ele>143.5</ele>
        <time>2012-10-14T15:20:48Z</time>
      </trkpt>
      <trkpt lat="48.44924" lon="-4.31265">
        <ele>144.10000610352</ele>
        <time>2012-10-14T15:20:52Z</time>
      </trkpt>
      <trkpt lat="48.44929" lon="-4.31273">
        <ele>144.47500610352</ele>
        <time>2012-10-14T15:20:56Z</time>
      </trkpt>
      <trkpt lat="48.44935" lon="-4.31281">
        <ele>144.42501831055</ele>
        <time>2012-10-14T15:21:00Z</time>
      </trkpt>
      <trkpt lat="48.44939" lon="-4.31292">
        <ele>144.22499084473</ele>
        <time>2012-10-14T15:21:04Z</time>
      </trkpt>
      <trkpt lat="48.44942" lon="-4.31303">
        <ele>144</ele>
        <time>2012-10-14T15:21:07Z</time>
      </trkpt>
      <trkpt lat="48.44944" lon="-4.31313">
        <ele>143.73333740234</ele>
        <time>2012-10-14T15:21:10Z</time>
      </trkpt>
      <trkpt lat="48.44946" lon="-4.31326">
        <ele>143.54998779297</ele>
        <time>2012-10-14T15:21:14Z</time>
      </trkpt>
      <trkpt lat="48.44948" lon="-4.31344">
        <ele>143.5</ele>
        <time>2012-10-14T15:21:18Z</time>
      </trkpt>
      <trkpt lat="48.44951" lon="-4.31364">
        <ele>143.57498168945</ele>
        <time>2012-10-14T15:21:22Z</time>
      </trkpt>
      <trkpt lat="48.44954" lon="-4.3138">
        <ele>143.6333211263</ele>
        <time>2012-10-14T15:21:25Z</time>
      </trkpt>
      <trkpt lat="48.44955" lon="-4.31396">
        <ele>143.82501220703</ele>
        <time>2012-10-14T15:21:29Z</time>
      </trkpt>
      <trkpt lat="48.44955" lon="-4.31414">
        <ele>143.90002441406</ele>
        <time>2012-10-14T15:21:32Z</time>
      </trkpt>
      <trkpt lat="48.44955" lon="-4.31434">
        <ele>143.89999389648</ele>
        <time>2012-10-14T15:21:36Z</time>
      </trkpt>
      <trkpt lat="48.44953" lon="-4.31464">
        <ele>143.84999084473</ele>
        <time>2012-10-14T15:21:40Z</time>
      </trkpt>
      <trkpt lat="48.44953" lon="-4.31503">
        <ele>141.625</ele>
        <time>2012-10-14T15:21:44Z</time>
      </trkpt>
      <trkpt lat="48.4495" lon="-4.31526">
        <ele>140.46667480469</ele>
        <time>2012-10-14T15:21:47Z</time>
      </trkpt>
      <trkpt lat="48.44946" lon="-4.31538">
        <ele>140.43332926432</ele>
        <time>2012-10-14T15:21:50Z</time>
      </trkpt>
      <trkpt lat="48.44941" lon="-4.31549">
        <ele>140.97499084473</ele>
        <time>2012-10-14T15:21:54Z</time>
      </trkpt>
      <trkpt lat="48.44936" lon="-4.31558">
        <ele>141.17498779297</ele>
        <time>2012-10-14T15:21:58Z</time>
      </trkpt>
      <trkpt lat="48.44931" lon="-4.31567">
        <ele>141.52499389648</ele>
        <time>2012-10-14T15:22:02Z</time>
      </trkpt>
      <trkpt lat="48.44927" lon="-4.31575">
        <ele>142.375</ele>
        <time>2012-10-14T15:22:06Z</time>
      </trkpt>
      <trkpt lat="48.44925" lon="-4.31583">
        <ele>143</ele>
        <time>2012-10-14T15:22:09Z</time>
      </trkpt>
      <trkpt lat="48.44923" lon="-4.31593">
        <ele>143.3500213623</ele>
        <time>2012-10-14T15:22:14Z</time>
      </trkpt>
      <trkpt lat="48.4492" lon="-4.31605">
        <ele>143.77499389648</ele>
        <time>2012-10-14T15:22:18Z</time>
      </trkpt>
      <trkpt lat="48.44918" lon="-4.31617">
        <ele>144.27499389648</ele>
        <time>2012-10-14T15:22:22Z</time>
      </trkpt>
      <trkpt lat="48.44916" lon="-4.3163">
        <ele>144.92500305176</ele>
        <time>2012-10-14T15:22:25Z</time>
      </trkpt>
      <trkpt lat="48.44914" lon="-4.31641">
        <ele>145.77500915527</ele>
        <time>2012-10-14T15:22:29Z</time>
      </trkpt>
      <trkpt lat="48.44913" lon="-4.31652">
        <ele>146.39998372396</ele>
        <time>2012-10-14T15:22:33Z</time>
      </trkpt>
      <trkpt lat="48.44912" lon="-4.31661">
        <ele>147</ele>
        <time>2012-10-14T15:22:36Z</time>
      </trkpt>
      <trkpt lat="48.44909" lon="-4.31671">
        <ele>147.72500610352</ele>
        <time>2012-10-14T15:22:40Z</time>
      </trkpt>
      <trkpt lat="48.44905" lon="-4.31683">
        <ele>148.14999389648</ele>
        <time>2012-10-14T15:22:44Z</time>
      </trkpt>
      <trkpt lat="48.44902" lon="-4.31692">
        <ele>148.53332519531</ele>
        <time>2012-10-14T15:22:47Z</time>
      </trkpt>
      <trkpt lat="48.449" lon="-4.317">
        <ele>148.96667480469</ele>
        <time>2012-10-14T15:22:50Z</time>
      </trkpt>
      <trkpt lat="48.44898" lon="-4.3171">
        <ele>149.40000915527</ele>
        <time>2012-10-14T15:22:54Z</time>
      </trkpt>
      <trkpt lat="48.44895" lon="-4.3172">
        <ele>150.32501220703</ele>
        <time>2012-10-14T15:22:58Z</time>
      </trkpt>
      <trkpt lat="48.44892" lon="-4.31732">
        <ele>151.64999389648</ele>
        <time>2012-10-14T15:23:02Z</time>
      </trkpt>
      <trkpt lat="48.44887" lon="-4.31743">
        <ele>152.69999694824</ele>
        <time>2012-10-14T15:23:06Z</time>
      </trkpt>
      <trkpt lat="48.44883" lon="-4.31753">
        <ele>153.29998779297</ele>
        <time>2012-10-14T15:23:09Z</time>
      </trkpt>
      <trkpt lat="48.44879" lon="-4.31762">
        <ele>153.75</ele>
        <time>2012-10-14T15:23:13Z</time>
      </trkpt>
      <trkpt lat="48.44873" lon="-4.31774">
        <ele>154.35000610352</ele>
        <time>2012-10-14T15:23:17Z</time>
      </trkpt>
      <trkpt lat="48.44869" lon="-4.31787">
        <ele>155.625</ele>
        <time>2012-10-14T15:23:21Z</time>
      </trkpt>
      <trkpt lat="48.44867" lon="-4.31802">
        <ele>156.94999694824</ele>
        <time>2012-10-14T15:23:25Z</time>
      </trkpt>
      <trkpt lat="48.44864" lon="-4.31814">
        <ele>157.46665445964</ele>
        <time>2012-10-14T15:23:28Z</time>
      </trkpt>
      <trkpt lat="48.44861" lon="-4.31828">
        <ele>157.07499694824</ele>
        <time>2012-10-14T15:23:32Z</time>
      </trkpt>
      <trkpt lat="48.44859" lon="-4.31844">
        <ele>157.5</ele>
        <time>2012-10-14T15:23:35Z</time>
      </trkpt>
      <trkpt lat="48.44858" lon="-4.3186">
        <ele>158.02499389648</ele>
        <time>2012-10-14T15:23:39Z</time>
      </trkpt>
      <trkpt lat="48.44857" lon="-4.31876">
        <ele>158.20001220703</ele>
        <time>2012-10-14T15:23:42Z</time>
      </trkpt>
      <trkpt lat="48.44856" lon="-4.3189">
        <ele>158.32501220703</ele>
        <time>2012-10-14T15:23:46Z</time>
      </trkpt>
      <trkpt lat="48.44856" lon="-4.31905">
        <ele>158.59999593099</ele>
        <time>2012-10-14T15:23:49Z</time>
      </trkpt>
      <trkpt lat="48.44856" lon="-4.31921">
        <ele>159.47499084473</ele>
        <time>2012-10-14T15:23:53Z</time>
      </trkpt>
      <trkpt lat="48.44856" lon="-4.31936">
        <ele>159.5</ele>
        <time>2012-10-14T15:23:56Z</time>
      </trkpt>
      <trkpt lat="48.44855" lon="-4.31949">
        <ele>158.27500915527</ele>
        <time>2012-10-14T15:24:00Z</time>
      </trkpt>
      <trkpt lat="48.44855" lon="-4.31963">
        <ele>158.07499694824</ele>
        <time>2012-10-14T15:24:03Z</time>
      </trkpt>
      <trkpt lat="48.44856" lon="-4.31974">
        <ele>158.23333740234</ele>
        <time>2012-10-14T15:24:07Z</time>
      </trkpt>
      <trkpt lat="48.44856" lon="-4.31988">
        <ele>157.87498474121</ele>
        <time>2012-10-14T15:24:10Z</time>
      </trkpt>
      <trkpt lat="48.44856" lon="-4.32">
        <ele>158.20001220703</ele>
        <time>2012-10-14T15:24:14Z</time>
      </trkpt>
      <trkpt lat="48.44855" lon="-4.32013">
        <ele>158.37501525879</ele>
        <time>2012-10-14T15:24:18Z</time>
      </trkpt>
      <trkpt lat="48.44852" lon="-4.32026">
        <ele>158.89999389648</ele>
        <time>2012-10-14T15:24:22Z</time>
      </trkpt>
      <trkpt lat="48.44849" lon="-4.32042">
        <ele>159.90000915527</ele>
        <time>2012-10-14T15:24:26Z</time>
      </trkpt>
      <trkpt lat="48.44846" lon="-4.32058">
        <ele>161.33335367839</ele>
        <time>2012-10-14T15:24:29Z</time>
      </trkpt>
      <trkpt lat="48.44845" lon="-4.32076">
        <ele>162.64999389648</ele>
        <time>2012-10-14T15:24:32Z</time>
      </trkpt>
      <trkpt lat="48.44844" lon="-4.32096">
        <ele>163.34999084473</ele>
        <time>2012-10-14T15:24:36Z</time>
      </trkpt>
      <trkpt lat="48.44843" lon="-4.32115">
        <ele>164.25</ele>
        <time>2012-10-14T15:24:40Z</time>
      </trkpt>
      <trkpt lat="48.44842" lon="-4.32131">
        <ele>164.53332519531</ele>
        <time>2012-10-14T15:24:43Z</time>
      </trkpt>
      <trkpt lat="48.44842" lon="-4.32147">
        <ele>164.52500915527</ele>
        <time>2012-10-14T15:24:47Z</time>
      </trkpt>
      <trkpt lat="48.44843" lon="-4.32165">
        <ele>164.55000305176</ele>
        <time>2012-10-14T15:24:51Z</time>
      </trkpt>
      <trkpt lat="48.44844" lon="-4.32179">
        <ele>164.96667480469</ele>
        <time>2012-10-14T15:24:54Z</time>
      </trkpt>
      <trkpt lat="48.44845" lon="-4.32194">
        <ele>165.99998474121</ele>
        <time>2012-10-14T15:24:58Z</time>
      </trkpt>
      <trkpt lat="48.44845" lon="-4.32204">
        <ele>167.16668701172</ele>
        <time>2012-10-14T15:25:02Z</time>
      </trkpt>
      <trkpt lat="48.44844" lon="-4.32208">
        <ele>167.62501525879</ele>
        <time>2012-10-14T15:25:05Z</time>
      </trkpt>
      <trkpt lat="48.44844" lon="-4.32208">
        <ele>167.70001220703</ele>
        <time>2012-10-14T15:25:08Z</time>
      </trkpt>
      <trkpt lat="48.44844" lon="-4.32208">
        <ele>167.70001220703</ele>
        <time>2012-10-14T15:25:11Z</time>
      </trkpt>
      <trkpt lat="48.44844" lon="-4.32208">
        <ele>167.70001220703</ele>
        <time>2012-10-14T15:25:15Z</time>
      </trkpt>
      <trkpt lat="48.44844" lon="-4.32208">
        <ele>167.70001220703</ele>
        <time>2012-10-14T15:25:20Z</time>
      </trkpt>
      <trkpt lat="48.44844" lon="-4.32208">
        <ele>167.70001220703</ele>
        <time>2012-10-14T15:25:23Z</time>
      </trkpt>
      <trkpt lat="48.44844" lon="-4.32208">
        <ele>167.70001220703</ele>
        <time>2012-10-14T15:25:27Z</time>
      </trkpt>
      <trkpt lat="48.44844" lon="-4.32208">
        <ele>167.70001220703</ele>
        <time>2012-10-14T15:25:30Z</time>
      </trkpt>
      <trkpt lat="48.44844" lon="-4.32208">
        <ele>167.70001220703</ele>
        <time>2012-10-14T15:25:34Z</time>
      </trkpt>
      <trkpt lat="48.44844" lon="-4.32208">
        <ele>167.70001220703</ele>
        <time>2012-10-14T15:25:38Z</time>
      </trkpt>
      <trkpt lat="48.44844" lon="-4.32208">
        <ele>167.70001220703</ele>
        <time>2012-10-14T15:25:41Z</time>
      </trkpt>
      <trkpt lat="48.44844" lon="-4.32208">
        <ele>167.70001220703</ele>
        <time>2012-10-14T15:25:44Z</time>
      </trkpt>
      <trkpt lat="48.44844" lon="-4.32208">
        <ele>167.70001220703</ele>
        <time>2012-10-14T15:25:48Z</time>
      </trkpt>
      <trkpt lat="48.44844" lon="-4.32208">
        <ele>167.70001220703</ele>
        <time>2012-10-14T15:25:52Z</time>
      </trkpt>
      <trkpt lat="48.44844" lon="-4.32208">
        <ele>167.70001220703</ele>
        <time>2012-10-14T15:25:55Z</time>
      </trkpt>
      <trkpt lat="48.44844" lon="-4.32208">
        <ele>167.70001220703</ele>
        <time>2012-10-14T15:25:59Z</time>
      </trkpt>
      <trkpt lat="48.44844" lon="-4.32208">
        <ele>167.70001220703</ele>
        <time>2012-10-14T15:26:03Z</time>
      </trkpt>
      <trkpt lat="48.44844" lon="-4.32208">
        <ele>167.70001220703</ele>
        <time>2012-10-14T15:26:06Z</time>
      </trkpt>
      <trkpt lat="48.44844" lon="-4.32208">
        <ele>167.70001220703</ele>
        <time>2012-10-14T15:26:10Z</time>
      </trkpt>
      <trkpt lat="48.44844" lon="-4.32208">
        <ele>167.70001220703</ele>
        <time>2012-10-14T15:26:13Z</time>
      </trkpt>
      <trkpt lat="48.44844" lon="-4.32208">
        <ele>167.70001220703</ele>
        <time>2012-10-14T15:26:17Z</time>
      </trkpt>
      <trkpt lat="48.44844" lon="-4.32208">
        <ele>167.70001220703</ele>
        <time>2012-10-14T15:26:21Z</time>
      </trkpt>
      <trkpt lat="48.44844" lon="-4.32208">
        <ele>167.70001220703</ele>
        <time>2012-10-14T15:26:25Z</time>
      </trkpt>
      <trkpt lat="48.44844" lon="-4.32208">
        <ele>167.70001220703</ele>
        <time>2012-10-14T15:26:29Z</time>
      </trkpt>
      <trkpt lat="48.44844" lon="-4.32208">
        <ele>167.70001220703</ele>
        <time>2012-10-14T15:26:33Z</time>
      </trkpt>
      <trkpt lat="48.44844" lon="-4.32208">
        <ele>167.70001220703</ele>
        <time>2012-10-14T15:26:36Z</time>
      </trkpt>
      <trkpt lat="48.44844" lon="-4.32208">
        <ele>167.70001220703</ele>
        <time>2012-10-14T15:26:40Z</time>
      </trkpt>
      <trkpt lat="48.44844" lon="-4.32208">
        <ele>167.70001220703</ele>
        <time>2012-10-14T15:26:43Z</time>
      </trkpt>
      <trkpt lat="48.44844" lon="-4.32208">
        <ele>167.70001220703</ele>
        <time>2012-10-14T15:26:47Z</time>
      </trkpt>
      <trkpt lat="48.44844" lon="-4.32208">
        <ele>167.70001220703</ele>
        <time>2012-10-14T15:26:50Z</time>
      </trkpt>
      <trkpt lat="48.44844" lon="-4.32208">
        <ele>167.70001220703</ele>
        <time>2012-10-14T15:26:54Z</time>
      </trkpt>
      <trkpt lat="48.44844" lon="-4.32208">
        <ele>167.70001220703</ele>
        <time>2012-10-14T15:26:57Z</time>
      </trkpt>
      <trkpt lat="48.44844" lon="-4.32208">
        <ele>167.70001220703</ele>
        <time>2012-10-14T15:27:01Z</time>
      </trkpt>
      <trkpt lat="48.44844" lon="-4.32208">
        <ele>167.70001220703</ele>
        <time>2012-10-14T15:27:04Z</time>
      </trkpt>
      <trkpt lat="48.44844" lon="-4.32208">
        <ele>167.70001220703</ele>
        <time>2012-10-14T15:27:07Z</time>
      </trkpt>
      <trkpt lat="48.44844" lon="-4.32208">
        <ele>167.70001220703</ele>
        <time>2012-10-14T15:27:11Z</time>
      </trkpt>
      <trkpt lat="48.44844" lon="-4.32208">
        <ele>167.70001220703</ele>
        <time>2012-10-14T15:27:14Z</time>
      </trkpt>
      <trkpt lat="48.44844" lon="-4.32208">
        <ele>167.70001220703</ele>
        <time>2012-10-14T15:27:17Z</time>
      </trkpt>
      <trkpt lat="48.44844" lon="-4.32208">
        <ele>167.70001220703</ele>
        <time>2012-10-14T15:27:20Z</time>
      </trkpt>
      <trkpt lat="48.44844" lon="-4.32208">
        <ele>167.70001220703</ele>
        <time>2012-10-14T15:27:24Z</time>
      </trkpt>
      <trkpt lat="48.44844" lon="-4.32208">
        <ele>167.70001220703</ele>
        <time>2012-10-14T15:27:27Z</time>
      </trkpt>
      <trkpt lat="48.44844" lon="-4.32208">
        <ele>167.70001220703</ele>
        <time>2012-10-14T15:27:31Z</time>
      </trkpt>
      <trkpt lat="48.44844" lon="-4.32208">
        <ele>167.70001220703</ele>
        <time>2012-10-14T15:27:34Z</time>
      </trkpt>
      <trkpt lat="48.44844" lon="-4.32208">
        <ele>167.70001220703</ele>
        <time>2012-10-14T15:27:37Z</time>
      </trkpt>
      <trkpt lat="48.44844" lon="-4.32208">
        <ele>167.70001220703</ele>
        <time>2012-10-14T15:27:41Z</time>
      </trkpt>
      <trkpt lat="48.44844" lon="-4.32208">
        <ele>167.70001220703</ele>
        <time>2012-10-14T15:27:45Z</time>
      </trkpt>
      <trkpt lat="48.44844" lon="-4.32208">
        <ele>167.70001220703</ele>
        <time>2012-10-14T15:27:49Z</time>
      </trkpt>
      <trkpt lat="48.44844" lon="-4.32208">
        <ele>167.70001220703</ele>
        <time>2012-10-14T15:27:53Z</time>
      </trkpt>
      <trkpt lat="48.44844" lon="-4.32208">
        <ele>167.70001220703</ele>
        <time>2012-10-14T15:27:56Z</time>
      </trkpt>
      <trkpt lat="48.44844" lon="-4.32208">
        <ele>167.70001220703</ele>
        <time>2012-10-14T15:28:00Z</time>
      </trkpt>
      <trkpt lat="48.4485" lon="-4.32216">
        <ele>168.02499389648</ele>
        <time>2012-10-14T15:28:04Z</time>
      </trkpt>
      <trkpt lat="48.44856" lon="-4.32228">
        <ele>168.1333211263</ele>
        <time>2012-10-14T15:28:07Z</time>
      </trkpt>
      <trkpt lat="48.44862" lon="-4.32239">
        <ele>168.33333333333</ele>
        <time>2012-10-14T15:28:10Z</time>
      </trkpt>
      <trkpt lat="48.44869" lon="-4.32249">
        <ele>168.93332926432</ele>
        <time>2012-10-14T15:28:13Z</time>
      </trkpt>
      <trkpt lat="48.44875" lon="-4.32255">
        <ele>169.43332926432</ele>
        <time>2012-10-14T15:28:16Z</time>
      </trkpt>
      <trkpt lat="48.4488" lon="-4.32263">
        <ele>169.86665852865</ele>
        <time>2012-10-14T15:28:19Z</time>
      </trkpt>
      <trkpt lat="48.44884" lon="-4.32277">
        <ele>170.22499084473</ele>
        <time>2012-10-14T15:28:23Z</time>
      </trkpt>
      <trkpt lat="48.44885" lon="-4.32297">
        <ele>169.63334147135</ele>
        <time>2012-10-14T15:28:26Z</time>
      </trkpt>
      <trkpt lat="48.44884" lon="-4.32319">
        <ele>169.17498779297</ele>
        <time>2012-10-14T15:28:30Z</time>
      </trkpt>
      <trkpt lat="48.44891" lon="-4.3234">
        <ele>169.875</ele>
        <time>2012-10-14T15:28:34Z</time>
      </trkpt>
      <trkpt lat="48.44904" lon="-4.32351">
        <ele>170.40000915527</ele>
        <time>2012-10-14T15:28:38Z</time>
      </trkpt>
      <trkpt lat="48.44914" lon="-4.32357">
        <ele>170.59999593099</ele>
        <time>2012-10-14T15:28:41Z</time>
      </trkpt>
      <trkpt lat="48.44923" lon="-4.32361">
        <ele>171.03334554036</ele>
        <time>2012-10-14T15:28:44Z</time>
      </trkpt>
      <trkpt lat="48.44933" lon="-4.32363">
        <ele>171.5</ele>
        <time>2012-10-14T15:28:47Z</time>
      </trkpt>
      <trkpt lat="48.44944" lon="-4.32366">
        <ele>171.75</ele>
        <time>2012-10-14T15:28:51Z</time>
      </trkpt>
      <trkpt lat="48.44958" lon="-4.32371">
        <ele>172.42500305176</ele>
        <time>2012-10-14T15:28:55Z</time>
      </trkpt>
      <trkpt lat="48.4497" lon="-4.32375">
        <ele>173.03334554036</ele>
        <time>2012-10-14T15:28:58Z</time>
      </trkpt>
      <trkpt lat="48.44982" lon="-4.32379">
        <ele>173.97500610352</ele>
        <time>2012-10-14T15:29:02Z</time>
      </trkpt>
      <trkpt lat="48.44994" lon="-4.32381">
        <ele>174.90000406901</ele>
        <time>2012-10-14T15:29:05Z</time>
      </trkpt>
      <trkpt lat="48.45005" lon="-4.32384">
        <ele>175.33333333333</ele>
        <time>2012-10-14T15:29:08Z</time>
      </trkpt>
      <trkpt lat="48.45017" lon="-4.32387">
        <ele>175.87498474121</ele>
        <time>2012-10-14T15:29:12Z</time>
      </trkpt>
      <trkpt lat="48.45029" lon="-4.32389">
        <ele>176.5</ele>
        <time>2012-10-14T15:29:16Z</time>
      </trkpt>
      <trkpt lat="48.45041" lon="-4.32391">
        <ele>177</ele>
        <time>2012-10-14T15:29:20Z</time>
      </trkpt>
      <trkpt lat="48.45052" lon="-4.32393">
        <ele>177.40000406901</ele>
        <time>2012-10-14T15:29:23Z</time>
      </trkpt>
      <trkpt lat="48.45062" lon="-4.32395">
        <ele>177.80000813802</ele>
        <time>2012-10-14T15:29:26Z</time>
      </trkpt>
      <trkpt lat="48.45073" lon="-4.32396">
        <ele>178.19999186198</ele>
        <time>2012-10-14T15:29:29Z</time>
      </trkpt>
      <trkpt lat="48.45084" lon="-4.32397">
        <ele>178.55000305176</ele>
        <time>2012-10-14T15:29:32Z</time>
      </trkpt>
      <trkpt lat="48.45096" lon="-4.32398">
        <ele>178.90000406901</ele>
        <time>2012-10-14T15:29:35Z</time>
      </trkpt>
      <trkpt lat="48.45107" lon="-4.324">
        <ele>179.3666788737</ele>
        <time>2012-10-14T15:29:39Z</time>
      </trkpt>
      <trkpt lat="48.4512" lon="-4.32404">
        <ele>179.72499084473</ele>
        <time>2012-10-14T15:29:42Z</time>
      </trkpt>
      <trkpt lat="48.45132" lon="-4.32409">
        <ele>180.03332519531</ele>
        <time>2012-10-14T15:29:46Z</time>
      </trkpt>
      <trkpt lat="48.45145" lon="-4.32415">
        <ele>180.30000305176</ele>
        <time>2012-10-14T15:29:50Z</time>
      </trkpt>
      <trkpt lat="48.45158" lon="-4.32423">
        <ele>180.40002441406</ele>
        <time>2012-10-14T15:29:54Z</time>
      </trkpt>
      <trkpt lat="48.4517" lon="-4.32431">
        <ele>180.33333333333</ele>
        <time>2012-10-14T15:29:57Z</time>
      </trkpt>
      <trkpt lat="48.4518" lon="-4.32439">
        <ele>180.26666259766</ele>
        <time>2012-10-14T15:30:00Z</time>
      </trkpt>
      <trkpt lat="48.45191" lon="-4.32449">
        <ele>180.22500610352</ele>
        <time>2012-10-14T15:30:04Z</time>
      </trkpt>
      <trkpt lat="48.45203" lon="-4.32462">
        <ele>180.22500610352</ele>
        <time>2012-10-14T15:30:08Z</time>
      </trkpt>
      <trkpt lat="48.45212" lon="-4.32476">
        <ele>180.23333740234</ele>
        <time>2012-10-14T15:30:11Z</time>
      </trkpt>
      <trkpt lat="48.4522" lon="-4.32488">
        <ele>180.16666666667</ele>
        <time>2012-10-14T15:30:14Z</time>
      </trkpt>
      <trkpt lat="48.4523" lon="-4.32504">
        <ele>180.42500305176</ele>
        <time>2012-10-14T15:30:18Z</time>
      </trkpt>
      <trkpt lat="48.45241" lon="-4.32522">
        <ele>180.44999694824</ele>
        <time>2012-10-14T15:30:22Z</time>
      </trkpt>
      <trkpt lat="48.45251" lon="-4.32541">
        <ele>179.5</ele>
        <time>2012-10-14T15:30:26Z</time>
      </trkpt>
      <trkpt lat="48.45262" lon="-4.32562">
        <ele>178.67500305176</ele>
        <time>2012-10-14T15:30:30Z</time>
      </trkpt>
      <trkpt lat="48.45273" lon="-4.32583">
        <ele>178.40000406901</ele>
        <time>2012-10-14T15:30:33Z</time>
      </trkpt>
      <trkpt lat="48.45283" lon="-4.32603">
        <ele>178.40002441406</ele>
        <time>2012-10-14T15:30:36Z</time>
      </trkpt>
      <trkpt lat="48.45296" lon="-4.32626">
        <ele>178.55000305176</ele>
        <time>2012-10-14T15:30:40Z</time>
      </trkpt>
      <trkpt lat="48.4531" lon="-4.32652">
        <ele>178.97500610352</ele>
        <time>2012-10-14T15:30:44Z</time>
      </trkpt>
      <trkpt lat="48.45327" lon="-4.32674">
        <ele>179.15000915527</ele>
        <time>2012-10-14T15:30:48Z</time>
      </trkpt>
      <trkpt lat="48.45344" lon="-4.32689">
        <ele>179.56667073568</ele>
        <time>2012-10-14T15:30:51Z</time>
      </trkpt>
      <trkpt lat="48.45361" lon="-4.32702">
        <ele>179.82501220703</ele>
        <time>2012-10-14T15:30:55Z</time>
      </trkpt>
      <trkpt lat="48.4538" lon="-4.32716">
        <ele>180.12498474121</ele>
        <time>2012-10-14T15:30:58Z</time>
      </trkpt>
      <trkpt lat="48.45396" lon="-4.32728">
        <ele>180.59999593099</ele>
        <time>2012-10-14T15:31:02Z</time>
      </trkpt>
      <trkpt lat="48.45409" lon="-4.32738">
        <ele>180.76666259766</ele>
        <time>2012-10-14T15:31:05Z</time>
      </trkpt>
      <trkpt lat="48.45423" lon="-4.32748">
        <ele>180.875</ele>
        <time>2012-10-14T15:31:08Z</time>
      </trkpt>
      <trkpt lat="48.45438" lon="-4.32758">
        <ele>180.96665445964</ele>
        <time>2012-10-14T15:31:12Z</time>
      </trkpt>
      <trkpt lat="48.45454" lon="-4.32765">
        <ele>181.375</ele>
        <time>2012-10-14T15:31:15Z</time>
      </trkpt>
      <trkpt lat="48.45472" lon="-4.32772">
        <ele>181.97500610352</ele>
        <time>2012-10-14T15:31:20Z</time>
      </trkpt>
      <trkpt lat="48.45481" lon="-4.32785">
        <ele>183.07499694824</ele>
        <time>2012-10-14T15:31:23Z</time>
      </trkpt>
      <trkpt lat="48.45478" lon="-4.328">
        <ele>182.60000610352</ele>
        <time>2012-10-14T15:31:27Z</time>
      </trkpt>
      <trkpt lat="48.45476" lon="-4.32821">
        <ele>182.20001220703</ele>
        <time>2012-10-14T15:31:32Z</time>
      </trkpt>
      <trkpt lat="48.45472" lon="-4.32845">
        <ele>181.6333211263</ele>
        <time>2012-10-14T15:31:35Z</time>
      </trkpt>
      <trkpt lat="48.4547" lon="-4.32864">
        <ele>181.63334147135</ele>
        <time>2012-10-14T15:31:38Z</time>
      </trkpt>
      <trkpt lat="48.45468" lon="-4.32887">
        <ele>182.22500610352</ele>
        <time>2012-10-14T15:31:41Z</time>
      </trkpt>
      <trkpt lat="48.45467" lon="-4.32908">
        <ele>183.29998779297</ele>
        <time>2012-10-14T15:31:44Z</time>
      </trkpt>
      <trkpt lat="48.45465" lon="-4.32927">
        <ele>183.26668294271</ele>
        <time>2012-10-14T15:31:47Z</time>
      </trkpt>
      <trkpt lat="48.45464" lon="-4.3295">
        <ele>183.40000915527</ele>
        <time>2012-10-14T15:31:51Z</time>
      </trkpt>
      <trkpt lat="48.45462" lon="-4.32971">
        <ele>183.83333333333</ele>
        <time>2012-10-14T15:31:54Z</time>
      </trkpt>
      <trkpt lat="48.45459" lon="-4.32988">
        <ele>183.80000813802</ele>
        <time>2012-10-14T15:31:57Z</time>
      </trkpt>
      <trkpt lat="48.45457" lon="-4.33008">
        <ele>183.75</ele>
        <time>2012-10-14T15:32:02Z</time>
      </trkpt>
      <trkpt lat="48.45454" lon="-4.33031">
        <ele>183.72500610352</ele>
        <time>2012-10-14T15:32:05Z</time>
      </trkpt>
      <trkpt lat="48.45452" lon="-4.33057">
        <ele>184.7250213623</ele>
        <time>2012-10-14T15:32:09Z</time>
      </trkpt>
      <trkpt lat="48.45451" lon="-4.33077">
        <ele>186.19999186198</ele>
        <time>2012-10-14T15:32:13Z</time>
      </trkpt>
      <trkpt lat="48.45451" lon="-4.33096">
        <ele>186.92500305176</ele>
        <time>2012-10-14T15:32:16Z</time>
      </trkpt>
      <trkpt lat="48.45451" lon="-4.33116">
        <ele>187.29998779297</ele>
        <time>2012-10-14T15:32:19Z</time>
      </trkpt>
      <trkpt lat="48.45449" lon="-4.33135">
        <ele>187.55000305176</ele>
        <time>2012-10-14T15:32:23Z</time>
      </trkpt>
      <trkpt lat="48.45448" lon="-4.33157">
        <ele>188.44999694824</ele>
        <time>2012-10-14T15:32:27Z</time>
      </trkpt>
      <trkpt lat="48.45446" lon="-4.33176">
        <ele>189.33335367839</ele>
        <time>2012-10-14T15:32:30Z</time>
      </trkpt>
      <trkpt lat="48.45446" lon="-4.33195">
        <ele>189.44999694824</ele>
        <time>2012-10-14T15:32:34Z</time>
      </trkpt>
      <trkpt lat="48.45446" lon="-4.33216">
        <ele>189.30000813802</ele>
        <time>2012-10-14T15:32:37Z</time>
      </trkpt>
      <trkpt lat="48.45446" lon="-4.33234">
        <ele>188.83335367839</ele>
        <time>2012-10-14T15:32:41Z</time>
      </trkpt>
      <trkpt lat="48.45445" lon="-4.33252">
        <ele>189.16666666667</ele>
        <time>2012-10-14T15:32:44Z</time>
      </trkpt>
      <trkpt lat="48.45442" lon="-4.33272">
        <ele>189.75001525879</ele>
        <time>2012-10-14T15:32:47Z</time>
      </trkpt>
      <trkpt lat="48.45439" lon="-4.33291">
        <ele>189.66666666667</ele>
        <time>2012-10-14T15:32:50Z</time>
      </trkpt>
      <trkpt lat="48.45438" lon="-4.33307">
        <ele>189.6333211263</ele>
        <time>2012-10-14T15:32:53Z</time>
      </trkpt>
      <trkpt lat="48.45435" lon="-4.33329">
        <ele>189.17500305176</ele>
        <time>2012-10-14T15:32:57Z</time>
      </trkpt>
      <trkpt lat="48.45431" lon="-4.33346">
        <ele>188.54998779297</ele>
        <time>2012-10-14T15:33:01Z</time>
      </trkpt>
      <trkpt lat="48.45432" lon="-4.33362">
        <ele>188.05000305176</ele>
        <time>2012-10-14T15:33:05Z</time>
      </trkpt>
      <trkpt lat="48.45427" lon="-4.33379">
        <ele>187.72499084473</ele>
        <time>2012-10-14T15:33:09Z</time>
      </trkpt>
      <trkpt lat="48.45422" lon="-4.334">
        <ele>187.125</ele>
        <time>2012-10-14T15:33:13Z</time>
      </trkpt>
      <trkpt lat="48.4542" lon="-4.33426">
        <ele>186.10000610352</ele>
        <time>2012-10-14T15:33:17Z</time>
      </trkpt>
      <trkpt lat="48.45415" lon="-4.33452">
        <ele>185.19999694824</ele>
        <time>2012-10-14T15:33:21Z</time>
      </trkpt>
      <trkpt lat="48.454" lon="-4.33469">
        <ele>185.22500610352</ele>
        <time>2012-10-14T15:33:25Z</time>
      </trkpt>
      <trkpt lat="48.45389" lon="-4.33489">
        <ele>184.96667480469</ele>
        <time>2012-10-14T15:33:28Z</time>
      </trkpt>
      <trkpt lat="48.4538" lon="-4.33512">
        <ele>184.20001220703</ele>
        <time>2012-10-14T15:33:32Z</time>
      </trkpt>
      <trkpt lat="48.45366" lon="-4.33532">
        <ele>183.90000915527</ele>
        <time>2012-10-14T15:33:36Z</time>
      </trkpt>
      <trkpt lat="48.45357" lon="-4.33558">
        <ele>183.63334147135</ele>
        <time>2012-10-14T15:33:39Z</time>
      </trkpt>
      <trkpt lat="48.45348" lon="-4.33586">
        <ele>183.52500915527</ele>
        <time>2012-10-14T15:33:43Z</time>
      </trkpt>
      <trkpt lat="48.45328" lon="-4.33604">
        <ele>183.34999084473</ele>
        <time>2012-10-14T15:33:47Z</time>
      </trkpt>
      <trkpt lat="48.45309" lon="-4.33622">
        <ele>183.06665039062</ele>
        <time>2012-10-14T15:33:50Z</time>
      </trkpt>
      <trkpt lat="48.45296" lon="-4.33651">
        <ele>181.43332926432</ele>
        <time>2012-10-14T15:33:53Z</time>
      </trkpt>
      <trkpt lat="48.45284" lon="-4.33692">
        <ele>180.27499389648</ele>
        <time>2012-10-14T15:33:57Z</time>
      </trkpt>
      <trkpt lat="48.45275" lon="-4.33736">
        <ele>177.90000406901</ele>
        <time>2012-10-14T15:34:00Z</time>
      </trkpt>
      <trkpt lat="48.4527" lon="-4.3378">
        <ele>176.07499694824</ele>
        <time>2012-10-14T15:34:04Z</time>
      </trkpt>
      <trkpt lat="48.45265" lon="-4.33824">
        <ele>174.56665039062</ele>
        <time>2012-10-14T15:34:07Z</time>
      </trkpt>
      <trkpt lat="48.4526" lon="-4.33868">
        <ele>173.52499389648</ele>
        <time>2012-10-14T15:34:11Z</time>
      </trkpt>
      <trkpt lat="48.45252" lon="-4.33918">
        <ele>172.57498168945</ele>
        <time>2012-10-14T15:34:15Z</time>
      </trkpt>
      <trkpt lat="48.45244" lon="-4.33962">
        <ele>171.6333211263</ele>
        <time>2012-10-14T15:34:18Z</time>
      </trkpt>
      <trkpt lat="48.45226" lon="-4.33995">
        <ele>171.75</ele>
        <time>2012-10-14T15:34:22Z</time>
      </trkpt>
      <trkpt lat="48.452" lon="-4.34017">
        <ele>172.16666666667</ele>
        <time>2012-10-14T15:34:25Z</time>
      </trkpt>
      <trkpt lat="48.45172" lon="-4.34034">
        <ele>173.09999084473</ele>
        <time>2012-10-14T15:34:29Z</time>
      </trkpt>
      <trkpt lat="48.45142" lon="-4.34055">
        <ele>173.87501525879</ele>
        <time>2012-10-14T15:34:33Z</time>
      </trkpt>
      <trkpt lat="48.45114" lon="-4.34076">
        <ele>174.625</ele>
        <time>2012-10-14T15:34:37Z</time>
      </trkpt>
      <trkpt lat="48.45089" lon="-4.34099">
        <ele>176.17501831055</ele>
        <time>2012-10-14T15:34:41Z</time>
      </trkpt>
      <trkpt lat="48.45068" lon="-4.3413">
        <ele>176.52499389648</ele>
        <time>2012-10-14T15:34:45Z</time>
      </trkpt>
      <trkpt lat="48.45045" lon="-4.34166">
        <ele>174.20001220703</ele>
        <time>2012-10-14T15:34:49Z</time>
      </trkpt>
      <trkpt lat="48.45012" lon="-4.34199">
        <ele>170.39999389648</ele>
        <time>2012-10-14T15:34:53Z</time>
      </trkpt>
      <trkpt lat="48.44976" lon="-4.34224">
        <ele>167.97500610352</ele>
        <time>2012-10-14T15:34:57Z</time>
      </trkpt>
      <trkpt lat="48.44948" lon="-4.34257">
        <ele>167.19999694824</ele>
        <time>2012-10-14T15:35:01Z</time>
      </trkpt>
      <trkpt lat="48.44927" lon="-4.34296">
        <ele>165.97499084473</ele>
        <time>2012-10-14T15:35:05Z</time>
      </trkpt>
      <trkpt lat="48.44909" lon="-4.34337">
        <ele>165.55000305176</ele>
        <time>2012-10-14T15:35:09Z</time>
      </trkpt>
      <trkpt lat="48.44901" lon="-4.34375">
        <ele>165.83333333333</ele>
        <time>2012-10-14T15:35:12Z</time>
      </trkpt>
      <trkpt lat="48.44903" lon="-4.3441">
        <ele>166.22499084473</ele>
        <time>2012-10-14T15:35:16Z</time>
      </trkpt>
      <trkpt lat="48.44904" lon="-4.34439">
        <ele>166.96667480469</ele>
        <time>2012-10-14T15:35:19Z</time>
      </trkpt>
      <trkpt lat="48.44893" lon="-4.34457">
        <ele>167.65000915527</ele>
        <time>2012-10-14T15:35:23Z</time>
      </trkpt>
      <trkpt lat="48.44878" lon="-4.34474">
        <ele>168.34999084473</ele>
        <time>2012-10-14T15:35:27Z</time>
      </trkpt>
      <trkpt lat="48.44864" lon="-4.34489">
        <ele>168.43334960938</ele>
        <time>2012-10-14T15:35:30Z</time>
      </trkpt>
      <trkpt lat="48.44849" lon="-4.34501">
        <ele>168.45001220703</ele>
        <time>2012-10-14T15:35:34Z</time>
      </trkpt>
      <trkpt lat="48.44832" lon="-4.34508">
        <ele>168.43332926432</ele>
        <time>2012-10-14T15:35:37Z</time>
      </trkpt>
      <trkpt lat="48.44814" lon="-4.34517">
        <ele>168.09999084473</ele>
        <time>2012-10-14T15:35:41Z</time>
      </trkpt>
      <trkpt lat="48.44808" lon="-4.34549">
        <ele>168.65000915527</ele>
        <time>2012-10-14T15:35:45Z</time>
      </trkpt>
      <trkpt lat="48.44814" lon="-4.34578">
        <ele>168.93334960938</ele>
        <time>2012-10-14T15:35:48Z</time>
      </trkpt>
      <trkpt lat="48.44821" lon="-4.34604">
        <ele>168.97500610352</ele>
        <time>2012-10-14T15:35:52Z</time>
      </trkpt>
      <trkpt lat="48.44827" lon="-4.34634">
        <ele>168.87501525879</ele>
        <time>2012-10-14T15:35:56Z</time>
      </trkpt>
      <trkpt lat="48.44832" lon="-4.34658">
        <ele>168.76666259766</ele>
        <time>2012-10-14T15:35:59Z</time>
      </trkpt>
      <trkpt lat="48.44836" lon="-4.34681">
        <ele>168.55000305176</ele>
        <time>2012-10-14T15:36:03Z</time>
      </trkpt>
      <trkpt lat="48.44841" lon="-4.34706">
        <ele>168.30000305176</ele>
        <time>2012-10-14T15:36:07Z</time>
      </trkpt>
      <trkpt lat="48.4484" lon="-4.34732">
        <ele>167.82501220703</ele>
        <time>2012-10-14T15:36:11Z</time>
      </trkpt>
      <trkpt lat="48.44821" lon="-4.3475">
        <ele>167.32499694824</ele>
        <time>2012-10-14T15:36:15Z</time>
      </trkpt>
      <trkpt lat="48.44795" lon="-4.34761">
        <ele>166.82501220703</ele>
        <time>2012-10-14T15:36:19Z</time>
      </trkpt>
      <trkpt lat="48.44769" lon="-4.34773">
        <ele>166.20001220703</ele>
        <time>2012-10-14T15:36:23Z</time>
      </trkpt>
      <trkpt lat="48.44742" lon="-4.34786">
        <ele>165.25</ele>
        <time>2012-10-14T15:36:27Z</time>
      </trkpt>
      <trkpt lat="48.4472" lon="-4.34799">
        <ele>164.33333333333</ele>
        <time>2012-10-14T15:36:30Z</time>
      </trkpt>
      <trkpt lat="48.44698" lon="-4.34811">
        <ele>164.04998779297</ele>
        <time>2012-10-14T15:36:34Z</time>
      </trkpt>
      <trkpt lat="48.44676" lon="-4.34821">
        <ele>163.46667480469</ele>
        <time>2012-10-14T15:36:37Z</time>
      </trkpt>
      <trkpt lat="48.44656" lon="-4.3483">
        <ele>163.37501525879</ele>
        <time>2012-10-14T15:36:41Z</time>
      </trkpt>
      <trkpt lat="48.44632" lon="-4.34841">
        <ele>162.55000305176</ele>
        <time>2012-10-14T15:36:45Z</time>
      </trkpt>
      <trkpt lat="48.4462" lon="-4.34868">
        <ele>161.29998779297</ele>
        <time>2012-10-14T15:36:49Z</time>
      </trkpt>
      <trkpt lat="48.44633" lon="-4.34899">
        <ele>161.19999694824</ele>
        <time>2012-10-14T15:36:53Z</time>
      </trkpt>
      <trkpt lat="48.44649" lon="-4.34924">
        <ele>162.10000610352</ele>
        <time>2012-10-14T15:36:57Z</time>
      </trkpt>
      <trkpt lat="48.44659" lon="-4.34944">
        <ele>162.5</ele>
        <time>2012-10-14T15:37:00Z</time>
      </trkpt>
      <trkpt lat="48.44668" lon="-4.34965">
        <ele>162.97500610352</ele>
        <time>2012-10-14T15:37:04Z</time>
      </trkpt>
      <trkpt lat="48.44674" lon="-4.34988">
        <ele>163.26666259766</ele>
        <time>2012-10-14T15:37:07Z</time>
      </trkpt>
      <trkpt lat="48.44678" lon="-4.35013">
        <ele>163.52499389648</ele>
        <time>2012-10-14T15:37:11Z</time>
      </trkpt>
      <trkpt lat="48.44682" lon="-4.35042">
        <ele>163.94999694824</ele>
        <time>2012-10-14T15:37:15Z</time>
      </trkpt>
      <trkpt lat="48.44684" lon="-4.35067">
        <ele>164.30000813802</ele>
        <time>2012-10-14T15:37:18Z</time>
      </trkpt>
      <trkpt lat="48.44686" lon="-4.35091">
        <ele>164.55000305176</ele>
        <time>2012-10-14T15:37:22Z</time>
      </trkpt>
      <trkpt lat="48.44688" lon="-4.35115">
        <ele>164.76666259766</ele>
        <time>2012-10-14T15:37:25Z</time>
      </trkpt>
      <trkpt lat="48.4469" lon="-4.35138">
        <ele>165.02499389648</ele>
        <time>2012-10-14T15:37:29Z</time>
      </trkpt>
      <trkpt lat="48.44693" lon="-4.35164">
        <ele>165.32501220703</ele>
        <time>2012-10-14T15:37:33Z</time>
      </trkpt>
      <trkpt lat="48.44696" lon="-4.3519">
        <ele>165.57498168945</ele>
        <time>2012-10-14T15:37:37Z</time>
      </trkpt>
      <trkpt lat="48.447" lon="-4.35216">
        <ele>165.45001220703</ele>
        <time>2012-10-14T15:37:41Z</time>
      </trkpt>
      <trkpt lat="48.44704" lon="-4.35242">
        <ele>165.25</ele>
        <time>2012-10-14T15:37:45Z</time>
      </trkpt>
      <trkpt lat="48.44709" lon="-4.35265">
        <ele>165.20001220703</ele>
        <time>2012-10-14T15:37:48Z</time>
      </trkpt>
      <trkpt lat="48.44715" lon="-4.35289">
        <ele>164.87498474121</ele>
        <time>2012-10-14T15:37:52Z</time>
      </trkpt>
      <trkpt lat="48.44721" lon="-4.35317">
        <ele>163.89999389648</ele>
        <time>2012-10-14T15:37:56Z</time>
      </trkpt>
      <trkpt lat="48.44728" lon="-4.35347">
        <ele>163.09999593099</ele>
        <time>2012-10-14T15:37:59Z</time>
      </trkpt>
      <trkpt lat="48.44735" lon="-4.3538">
        <ele>162.22499084473</ele>
        <time>2012-10-14T15:38:03Z</time>
      </trkpt>
      <trkpt lat="48.44744" lon="-4.35419">
        <ele>161.37498474121</ele>
        <time>2012-10-14T15:38:07Z</time>
      </trkpt>
      <trkpt lat="48.44753" lon="-4.3546">
        <ele>160.67500305176</ele>
        <time>2012-10-14T15:38:11Z</time>
      </trkpt>
      <trkpt lat="48.44761" lon="-4.355">
        <ele>160.07499694824</ele>
        <time>2012-10-14T15:38:15Z</time>
      </trkpt>
      <trkpt lat="48.4477" lon="-4.35534">
        <ele>159.90000406901</ele>
        <time>2012-10-14T15:38:19Z</time>
      </trkpt>
      <trkpt lat="48.44778" lon="-4.3557">
        <ele>159.32499694824</ele>
        <time>2012-10-14T15:38:22Z</time>
      </trkpt>
      <trkpt lat="48.44787" lon="-4.3561">
        <ele>159.35000610352</ele>
        <time>2012-10-14T15:38:26Z</time>
      </trkpt>
      <trkpt lat="48.44796" lon="-4.35645">
        <ele>159.59997558594</ele>
        <time>2012-10-14T15:38:30Z</time>
      </trkpt>
      <trkpt lat="48.44805" lon="-4.3568">
        <ele>159.64999389648</ele>
        <time>2012-10-14T15:38:34Z</time>
      </trkpt>
      <trkpt lat="48.44812" lon="-4.3571">
        <ele>159.73333740234</ele>
        <time>2012-10-14T15:38:37Z</time>
      </trkpt>
      <trkpt lat="48.44818" lon="-4.3574">
        <ele>160.27499389648</ele>
        <time>2012-10-14T15:38:41Z</time>
      </trkpt>
      <trkpt lat="48.44822" lon="-4.35774">
        <ele>160.85000610352</ele>
        <time>2012-10-14T15:38:45Z</time>
      </trkpt>
      <trkpt lat="48.44824" lon="-4.35803">
        <ele>161.26666259766</ele>
        <time>2012-10-14T15:38:48Z</time>
      </trkpt>
      <trkpt lat="48.44825" lon="-4.35831">
        <ele>161.59999084473</ele>
        <time>2012-10-14T15:38:52Z</time>
      </trkpt>
      <trkpt lat="48.44824" lon="-4.35858">
        <ele>161.5</ele>
        <time>2012-10-14T15:38:55Z</time>
      </trkpt>
      <trkpt lat="48.44822" lon="-4.35887">
        <ele>161.07499694824</ele>
        <time>2012-10-14T15:38:59Z</time>
      </trkpt>
      <trkpt lat="48.44815" lon="-4.35922">
        <ele>160.64999389648</ele>
        <time>2012-10-14T15:39:03Z</time>
      </trkpt>
      <trkpt lat="48.44809" lon="-4.35952">
        <ele>160.29998779297</ele>
        <time>2012-10-14T15:39:06Z</time>
      </trkpt>
      <trkpt lat="48.44804" lon="-4.35984">
        <ele>159.90000915527</ele>
        <time>2012-10-14T15:39:10Z</time>
      </trkpt>
      <trkpt lat="48.44802" lon="-4.36015">
        <ele>159.66664632161</ele>
        <time>2012-10-14T15:39:13Z</time>
      </trkpt>
      <trkpt lat="48.448" lon="-4.36043">
        <ele>159.85000610352</ele>
        <time>2012-10-14T15:39:17Z</time>
      </trkpt>
      <trkpt lat="48.44794" lon="-4.36073">
        <ele>159.25</ele>
        <time>2012-10-14T15:39:21Z</time>
      </trkpt>
      <trkpt lat="48.44783" lon="-4.36101">
        <ele>157.73333740234</ele>
        <time>2012-10-14T15:39:24Z</time>
      </trkpt>
      <trkpt lat="48.4477" lon="-4.36137">
        <ele>155.65000915527</ele>
        <time>2012-10-14T15:39:28Z</time>
      </trkpt>
      <trkpt lat="48.44755" lon="-4.36179">
        <ele>152.8666788737</ele>
        <time>2012-10-14T15:39:31Z</time>
      </trkpt>
      <trkpt lat="48.44741" lon="-4.36221">
        <ele>151.17500305176</ele>
        <time>2012-10-14T15:39:35Z</time>
      </trkpt>
      <trkpt lat="48.44728" lon="-4.36256">
        <ele>148.99998474121</ele>
        <time>2012-10-14T15:39:39Z</time>
      </trkpt>
      <trkpt lat="48.44713" lon="-4.36261">
        <ele>148.07499694824</ele>
        <time>2012-10-14T15:39:43Z</time>
      </trkpt>
      <trkpt lat="48.44691" lon="-4.36247">
        <ele>147.19999694824</ele>
        <time>2012-10-14T15:39:47Z</time>
      </trkpt>
      <trkpt lat="48.44668" lon="-4.36239">
        <ele>146.1333211263</ele>
        <time>2012-10-14T15:39:50Z</time>
      </trkpt>
      <trkpt lat="48.4465" lon="-4.36236">
        <ele>145.26668294271</ele>
        <time>2012-10-14T15:39:53Z</time>
      </trkpt>
      <trkpt lat="48.4463" lon="-4.3623">
        <ele>143.92500305176</ele>
        <time>2012-10-14T15:39:57Z</time>
      </trkpt>
      <trkpt lat="48.4461" lon="-4.3622">
        <ele>142.30000813802</ele>
        <time>2012-10-14T15:40:00Z</time>
      </trkpt>
      <trkpt lat="48.44597" lon="-4.36213">
        <ele>141.03332519531</ele>
        <time>2012-10-14T15:40:03Z</time>
      </trkpt>
      <trkpt lat="48.44587" lon="-4.36203">
        <ele>140.625</ele>
        <time>2012-10-14T15:40:07Z</time>
      </trkpt>
      <trkpt lat="48.44576" lon="-4.36205">
        <ele>140.62498474121</ele>
        <time>2012-10-14T15:40:11Z</time>
      </trkpt>
      <trkpt lat="48.44564" lon="-4.36208">
        <ele>140.76666259766</ele>
        <time>2012-10-14T15:40:14Z</time>
      </trkpt>
      <trkpt lat="48.44556" lon="-4.36211">
        <ele>141.32499694824</ele>
        <time>2012-10-14T15:40:18Z</time>
      </trkpt>
      <trkpt lat="48.44548" lon="-4.36214">
        <ele>141.20001220703</ele>
        <time>2012-10-14T15:40:21Z</time>
      </trkpt>
      <trkpt lat="48.44538" lon="-4.36214">
        <ele>140.52500915527</ele>
        <time>2012-10-14T15:40:25Z</time>
      </trkpt>
      <trkpt lat="48.44529" lon="-4.36214">
        <ele>140.92500305176</ele>
        <time>2012-10-14T15:40:29Z</time>
      </trkpt>
      <trkpt lat="48.44521" lon="-4.36213">
        <ele>141.72499084473</ele>
        <time>2012-10-14T15:40:33Z</time>
      </trkpt>
      <trkpt lat="48.44513" lon="-4.36211">
        <ele>141.72500610352</ele>
        <time>2012-10-14T15:40:37Z</time>
      </trkpt>
      <trkpt lat="48.44505" lon="-4.36204">
        <ele>141.57498168945</ele>
        <time>2012-10-14T15:40:41Z</time>
      </trkpt>
      <trkpt lat="48.44496" lon="-4.36194">
        <ele>142</ele>
        <time>2012-10-14T15:40:45Z</time>
      </trkpt>
      <trkpt lat="48.44486" lon="-4.36184">
        <ele>142.54998779297</ele>
        <time>2012-10-14T15:40:49Z</time>
      </trkpt>
      <trkpt lat="48.44478" lon="-4.36176">
        <ele>142.79998779297</ele>
        <time>2012-10-14T15:40:53Z</time>
      </trkpt>
      <trkpt lat="48.44469" lon="-4.36167">
        <ele>142.92498779297</ele>
        <time>2012-10-14T15:40:57Z</time>
      </trkpt>
      <trkpt lat="48.44459" lon="-4.36159">
        <ele>142.80000305176</ele>
        <time>2012-10-14T15:41:01Z</time>
      </trkpt>
      <trkpt lat="48.44448" lon="-4.3615">
        <ele>143.05000305176</ele>
        <time>2012-10-14T15:41:05Z</time>
      </trkpt>
      <trkpt lat="48.44436" lon="-4.36142">
        <ele>143.89999389648</ele>
        <time>2012-10-14T15:41:09Z</time>
      </trkpt>
      <trkpt lat="48.44424" lon="-4.36133">
        <ele>144.52500915527</ele>
        <time>2012-10-14T15:41:13Z</time>
      </trkpt>
      <trkpt lat="48.44411" lon="-4.36124">
        <ele>145.14999389648</ele>
        <time>2012-10-14T15:41:17Z</time>
      </trkpt>
      <trkpt lat="48.44401" lon="-4.36116">
        <ele>145.25</ele>
        <time>2012-10-14T15:41:21Z</time>
      </trkpt>
      <trkpt lat="48.44393" lon="-4.3611">
        <ele>145.7250213623</ele>
        <time>2012-10-14T15:41:25Z</time>
      </trkpt>
      <trkpt lat="48.44384" lon="-4.36103">
        <ele>145.85000610352</ele>
        <time>2012-10-14T15:41:29Z</time>
      </trkpt>
      <trkpt lat="48.44376" lon="-4.36098">
        <ele>146.06667073568</ele>
        <time>2012-10-14T15:41:32Z</time>
      </trkpt>
      <trkpt lat="48.44369" lon="-4.36093">
        <ele>146.19999694824</ele>
        <time>2012-10-14T15:41:36Z</time>
      </trkpt>
      <trkpt lat="48.44362" lon="-4.36087">
        <ele>146.83335367839</ele>
        <time>2012-10-14T15:41:39Z</time>
      </trkpt>
      <trkpt lat="48.44355" lon="-4.36082">
        <ele>147.40000406901</ele>
        <time>2012-10-14T15:41:42Z</time>
      </trkpt>
      <trkpt lat="48.4435" lon="-4.36078">
        <ele>148</ele>
        <time>2012-10-14T15:41:46Z</time>
      </trkpt>
      <trkpt lat="48.44344" lon="-4.36073">
        <ele>148.09997558594</ele>
        <time>2012-10-14T15:41:49Z</time>
      </trkpt>
      <trkpt lat="48.44337" lon="-4.36066">
        <ele>148.19999694824</ele>
        <time>2012-10-14T15:41:53Z</time>
      </trkpt>
      <trkpt lat="48.44329" lon="-4.3606">
        <ele>148.64999389648</ele>
        <time>2012-10-14T15:41:57Z</time>
      </trkpt>
      <trkpt lat="48.4432" lon="-4.36065">
        <ele>149.73333740234</ele>
        <time>2012-10-14T15:42:00Z</time>
      </trkpt>
      <trkpt lat="48.44316" lon="-4.36079">
        <ele>150.00001525879</ele>
        <time>2012-10-14T15:42:04Z</time>
      </trkpt>
      <trkpt lat="48.44311" lon="-4.36093">
        <ele>149.29998779297</ele>
        <time>2012-10-14T15:42:07Z</time>
      </trkpt>
      <trkpt lat="48.44301" lon="-4.36092">
        <ele>148.62501525879</ele>
        <time>2012-10-14T15:42:11Z</time>
      </trkpt>
      <trkpt lat="48.44291" lon="-4.36082">
        <ele>149.09999084473</ele>
        <time>2012-10-14T15:42:15Z</time>
      </trkpt>
      <trkpt lat="48.44281" lon="-4.36075">
        <ele>149.23333740234</ele>
        <time>2012-10-14T15:42:18Z</time>
      </trkpt>
      <trkpt lat="48.4427" lon="-4.36067">
        <ele>148.99998474121</ele>
        <time>2012-10-14T15:42:22Z</time>
      </trkpt>
      <trkpt lat="48.4426" lon="-4.36058">
        <ele>148.93332926432</ele>
        <time>2012-10-14T15:42:25Z</time>
      </trkpt>
      <trkpt lat="48.44251" lon="-4.36048">
        <ele>148.89999389648</ele>
        <time>2012-10-14T15:42:29Z</time>
      </trkpt>
      <trkpt lat="48.4424" lon="-4.36035">
        <ele>149.07499694824</ele>
        <time>2012-10-14T15:42:33Z</time>
      </trkpt>
      <trkpt lat="48.44229" lon="-4.36023">
        <ele>149.70001220703</ele>
        <time>2012-10-14T15:42:37Z</time>
      </trkpt>
      <trkpt lat="48.44218" lon="-4.36026">
        <ele>150</ele>
        <time>2012-10-14T15:42:41Z</time>
      </trkpt>
      <trkpt lat="48.44215" lon="-4.36049">
        <ele>149.97499084473</ele>
        <time>2012-10-14T15:42:45Z</time>
      </trkpt>
      <trkpt lat="48.44212" lon="-4.36074">
        <ele>150</ele>
        <time>2012-10-14T15:42:48Z</time>
      </trkpt>
      <trkpt lat="48.44206" lon="-4.361">
        <ele>150.57499694824</ele>
        <time>2012-10-14T15:42:52Z</time>
      </trkpt>
      <trkpt lat="48.44199" lon="-4.36124">
        <ele>150.66664632161</ele>
        <time>2012-10-14T15:42:55Z</time>
      </trkpt>
      <trkpt lat="48.44194" lon="-4.3615">
        <ele>150.5</ele>
        <time>2012-10-14T15:42:59Z</time>
      </trkpt>
      <trkpt lat="48.44188" lon="-4.36174">
        <ele>150.09999593099</ele>
        <time>2012-10-14T15:43:02Z</time>
      </trkpt>
      <trkpt lat="48.44181" lon="-4.36197">
        <ele>149.34999084473</ele>
        <time>2012-10-14T15:43:06Z</time>
      </trkpt>
      <trkpt lat="48.44175" lon="-4.36222">
        <ele>148.80000305176</ele>
        <time>2012-10-14T15:43:10Z</time>
      </trkpt>
      <trkpt lat="48.44167" lon="-4.36246">
        <ele>148.06665039062</ele>
        <time>2012-10-14T15:43:13Z</time>
      </trkpt>
      <trkpt lat="48.44161" lon="-4.36273">
        <ele>147.55000305176</ele>
        <time>2012-10-14T15:43:17Z</time>
      </trkpt>
      <trkpt lat="48.44157" lon="-4.36306">
        <ele>147.14999389648</ele>
        <time>2012-10-14T15:43:21Z</time>
      </trkpt>
      <trkpt lat="48.44154" lon="-4.36338">
        <ele>146.70001220703</ele>
        <time>2012-10-14T15:43:24Z</time>
      </trkpt>
      <trkpt lat="48.44153" lon="-4.36369">
        <ele>145.95001220703</ele>
        <time>2012-10-14T15:43:28Z</time>
      </trkpt>
      <trkpt lat="48.44153" lon="-4.36404">
        <ele>145.33335367839</ele>
        <time>2012-10-14T15:43:31Z</time>
      </trkpt>
      <trkpt lat="48.44155" lon="-4.3644">
        <ele>144.69998168945</ele>
        <time>2012-10-14T15:43:35Z</time>
      </trkpt>
      <trkpt lat="48.44157" lon="-4.36484">
        <ele>143.39999389648</ele>
        <time>2012-10-14T15:43:39Z</time>
      </trkpt>
      <trkpt lat="48.44161" lon="-4.36521">
        <ele>141.96667480469</ele>
        <time>2012-10-14T15:43:42Z</time>
      </trkpt>
      <trkpt lat="48.44174" lon="-4.36553">
        <ele>139.72499084473</ele>
        <time>2012-10-14T15:43:46Z</time>
      </trkpt>
      <trkpt lat="48.44199" lon="-4.36567">
        <ele>138.59999593099</ele>
        <time>2012-10-14T15:43:49Z</time>
      </trkpt>
      <trkpt lat="48.44226" lon="-4.36574">
        <ele>137.72499084473</ele>
        <time>2012-10-14T15:43:53Z</time>
      </trkpt>
      <trkpt lat="48.44257" lon="-4.36591">
        <ele>136.89999389648</ele>
        <time>2012-10-14T15:43:57Z</time>
      </trkpt>
      <trkpt lat="48.44278" lon="-4.36614">
        <ele>136.79998779297</ele>
        <time>2012-10-14T15:44:00Z</time>
      </trkpt>
      <trkpt lat="48.44292" lon="-4.36643">
        <ele>137.14999389648</ele>
        <time>2012-10-14T15:44:04Z</time>
      </trkpt>
      <trkpt lat="48.44306" lon="-4.36673">
        <ele>137.40000406901</ele>
        <time>2012-10-14T15:44:07Z</time>
      </trkpt>
      <trkpt lat="48.44315" lon="-4.36703">
        <ele>137.72500610352</ele>
        <time>2012-10-14T15:44:11Z</time>
      </trkpt>
      <trkpt lat="48.44321" lon="-4.36729">
        <ele>137.73333740234</ele>
        <time>2012-10-14T15:44:14Z</time>
      </trkpt>
      <trkpt lat="48.44326" lon="-4.36748">
        <ele>138.19999694824</ele>
        <time>2012-10-14T15:44:18Z</time>
      </trkpt>
      <trkpt lat="48.44331" lon="-4.36773">
        <ele>138.77499389648</ele>
        <time>2012-10-14T15:44:22Z</time>
      </trkpt>
      <trkpt lat="48.44336" lon="-4.36798">
        <ele>138.83333333333</ele>
        <time>2012-10-14T15:44:25Z</time>
      </trkpt>
      <trkpt lat="48.44342" lon="-4.36821">
        <ele>139.22499084473</ele>
        <time>2012-10-14T15:44:29Z</time>
      </trkpt>
      <trkpt lat="48.44348" lon="-4.36842">
        <ele>139.90000406901</ele>
        <time>2012-10-14T15:44:32Z</time>
      </trkpt>
      <trkpt lat="48.44355" lon="-4.3686">
        <ele>140.47500610352</ele>
        <time>2012-10-14T15:44:36Z</time>
      </trkpt>
      <trkpt lat="48.44364" lon="-4.36881">
        <ele>140.79998779297</ele>
        <time>2012-10-14T15:44:40Z</time>
      </trkpt>
      <trkpt lat="48.44372" lon="-4.36899">
        <ele>140.76666259766</ele>
        <time>2012-10-14T15:44:43Z</time>
      </trkpt>
      <trkpt lat="48.44381" lon="-4.36917">
        <ele>140.37498474121</ele>
        <time>2012-10-14T15:44:47Z</time>
      </trkpt>
      <trkpt lat="48.44393" lon="-4.36939">
        <ele>139.47500610352</ele>
        <time>2012-10-14T15:44:51Z</time>
      </trkpt>
      <trkpt lat="48.44409" lon="-4.36965">
        <ele>137.79998779297</ele>
        <time>2012-10-14T15:44:55Z</time>
      </trkpt>
      <trkpt lat="48.44427" lon="-4.36996">
        <ele>136.125</ele>
        <time>2012-10-14T15:44:59Z</time>
      </trkpt>
      <trkpt lat="48.44444" lon="-4.37026">
        <ele>136.375</ele>
        <time>2012-10-14T15:45:03Z</time>
      </trkpt>
      <trkpt lat="48.44459" lon="-4.37053">
        <ele>137.27500915527</ele>
        <time>2012-10-14T15:45:07Z</time>
      </trkpt>
      <trkpt lat="48.44471" lon="-4.37074">
        <ele>137.90000406901</ele>
        <time>2012-10-14T15:45:10Z</time>
      </trkpt>
      <trkpt lat="48.44479" lon="-4.37089">
        <ele>138.59999593099</ele>
        <time>2012-10-14T15:45:13Z</time>
      </trkpt>
      <trkpt lat="48.44488" lon="-4.37105">
        <ele>139.30000305176</ele>
        <time>2012-10-14T15:45:17Z</time>
      </trkpt>
      <trkpt lat="48.44497" lon="-4.3712">
        <ele>140.33333333333</ele>
        <time>2012-10-14T15:45:20Z</time>
      </trkpt>
      <trkpt lat="48.44506" lon="-4.37135">
        <ele>141.74998474121</ele>
        <time>2012-10-14T15:45:24Z</time>
      </trkpt>
      <trkpt lat="48.44516" lon="-4.37152">
        <ele>143.05000305176</ele>
        <time>2012-10-14T15:45:28Z</time>
      </trkpt>
      <trkpt lat="48.44525" lon="-4.37167">
        <ele>143.76666259766</ele>
        <time>2012-10-14T15:45:31Z</time>
      </trkpt>
      <trkpt lat="48.44533" lon="-4.37182">
        <ele>143.90000915527</ele>
        <time>2012-10-14T15:45:35Z</time>
      </trkpt>
      <trkpt lat="48.4454" lon="-4.37198">
        <ele>143.90000406901</ele>
        <time>2012-10-14T15:45:38Z</time>
      </trkpt>
      <trkpt lat="48.44548" lon="-4.37214">
        <ele>144.35000610352</ele>
        <time>2012-10-14T15:45:42Z</time>
      </trkpt>
      <trkpt lat="48.44556" lon="-4.3723">
        <ele>144.8666788737</ele>
        <time>2012-10-14T15:45:45Z</time>
      </trkpt>
      <trkpt lat="48.44564" lon="-4.37246">
        <ele>145.02499389648</ele>
        <time>2012-10-14T15:45:49Z</time>
      </trkpt>
      <trkpt lat="48.44573" lon="-4.37265">
        <ele>144.40000915527</ele>
        <time>2012-10-14T15:45:53Z</time>
      </trkpt>
      <trkpt lat="48.44581" lon="-4.37282">
        <ele>143.73333740234</ele>
        <time>2012-10-14T15:45:56Z</time>
      </trkpt>
      <trkpt lat="48.44587" lon="-4.37297">
        <ele>143.30000813802</ele>
        <time>2012-10-14T15:45:59Z</time>
      </trkpt>
      <trkpt lat="48.44595" lon="-4.37312">
        <ele>143</ele>
        <time>2012-10-14T15:46:03Z</time>
      </trkpt>
      <trkpt lat="48.44604" lon="-4.37331">
        <ele>142.87501525879</ele>
        <time>2012-10-14T15:46:06Z</time>
      </trkpt>
      <trkpt lat="48.44615" lon="-4.37351">
        <ele>142.60000610352</ele>
        <time>2012-10-14T15:46:10Z</time>
      </trkpt>
      <trkpt lat="48.44623" lon="-4.37372">
        <ele>142.22500610352</ele>
        <time>2012-10-14T15:46:14Z</time>
      </trkpt>
      <trkpt lat="48.44632" lon="-4.37395">
        <ele>142.55000305176</ele>
        <time>2012-10-14T15:46:18Z</time>
      </trkpt>
      <trkpt lat="48.44637" lon="-4.37414">
        <ele>143.06667073568</ele>
        <time>2012-10-14T15:46:21Z</time>
      </trkpt>
      <trkpt lat="48.44642" lon="-4.37432">
        <ele>143.43332926432</ele>
        <time>2012-10-14T15:46:25Z</time>
      </trkpt>
      <trkpt lat="48.44646" lon="-4.37453">
        <ele>144.15000915527</ele>
        <time>2012-10-14T15:46:28Z</time>
      </trkpt>
      <trkpt lat="48.44649" lon="-4.37473">
        <ele>144.76666259766</ele>
        <time>2012-10-14T15:46:31Z</time>
      </trkpt>
      <trkpt lat="48.44651" lon="-4.3749">
        <ele>145.46667480469</ele>
        <time>2012-10-14T15:46:34Z</time>
      </trkpt>
      <trkpt lat="48.44653" lon="-4.37509">
        <ele>146.44999694824</ele>
        <time>2012-10-14T15:46:38Z</time>
      </trkpt>
      <trkpt lat="48.44654" lon="-4.37528">
        <ele>147.36665852865</ele>
        <time>2012-10-14T15:46:41Z</time>
      </trkpt>
      <trkpt lat="48.44655" lon="-4.37543">
        <ele>148</ele>
        <time>2012-10-14T15:46:44Z</time>
      </trkpt>
      <trkpt lat="48.44655" lon="-4.37561">
        <ele>148.69999694824</ele>
        <time>2012-10-14T15:46:48Z</time>
      </trkpt>
      <trkpt lat="48.44657" lon="-4.37582">
        <ele>149.22499084473</ele>
        <time>2012-10-14T15:46:52Z</time>
      </trkpt>
      <trkpt lat="48.44659" lon="-4.37602">
        <ele>149.52500915527</ele>
        <time>2012-10-14T15:46:56Z</time>
      </trkpt>
      <trkpt lat="48.44662" lon="-4.37621">
        <ele>150.04998779297</ele>
        <time>2012-10-14T15:47:00Z</time>
      </trkpt>
      <trkpt lat="48.44665" lon="-4.3764">
        <ele>150.375</ele>
        <time>2012-10-14T15:47:05Z</time>
      </trkpt>
      <trkpt lat="48.44668" lon="-4.37659">
        <ele>150.80000305176</ele>
        <time>2012-10-14T15:47:09Z</time>
      </trkpt>
      <trkpt lat="48.44673" lon="-4.37679">
        <ele>151.32499694824</ele>
        <time>2012-10-14T15:47:12Z</time>
      </trkpt>
      <trkpt lat="48.44678" lon="-4.37696">
        <ele>152</ele>
        <time>2012-10-14T15:47:16Z</time>
      </trkpt>
      <trkpt lat="48.44682" lon="-4.37714">
        <ele>152.69999694824</ele>
        <time>2012-10-14T15:47:19Z</time>
      </trkpt>
      <trkpt lat="48.44686" lon="-4.3773">
        <ele>153.29998779297</ele>
        <time>2012-10-14T15:47:23Z</time>
      </trkpt>
      <trkpt lat="48.44689" lon="-4.37744">
        <ele>153.64999389648</ele>
        <time>2012-10-14T15:47:26Z</time>
      </trkpt>
      <trkpt lat="48.44693" lon="-4.37757">
        <ele>153.94999694824</ele>
        <time>2012-10-14T15:47:30Z</time>
      </trkpt>
      <trkpt lat="48.44694" lon="-4.37762">
        <ele>154.33335367839</ele>
        <time>2012-10-14T15:47:34Z</time>
      </trkpt>
      <trkpt lat="48.44692" lon="-4.37755">
        <ele>154</ele>
        <time>2012-10-14T15:47:37Z</time>
      </trkpt>
      <trkpt lat="48.44685" lon="-4.37745">
        <ele>153.77499389648</ele>
        <time>2012-10-14T15:47:41Z</time>
      </trkpt>
      <trkpt lat="48.44671" lon="-4.37746">
        <ele>154.125</ele>
        <time>2012-10-14T15:47:44Z</time>
      </trkpt>
      <trkpt lat="48.44658" lon="-4.37752">
        <ele>154.40000406901</ele>
        <time>2012-10-14T15:47:48Z</time>
      </trkpt>
      <trkpt lat="48.44646" lon="-4.37758">
        <ele>154.89999389648</ele>
        <time>2012-10-14T15:47:52Z</time>
      </trkpt>
      <trkpt lat="48.44636" lon="-4.37764">
        <ele>155.56667073568</ele>
        <time>2012-10-14T15:47:55Z</time>
      </trkpt>
      <trkpt lat="48.44625" lon="-4.37771">
        <ele>156.29998779297</ele>
        <time>2012-10-14T15:47:59Z</time>
      </trkpt>
      <trkpt lat="48.44612" lon="-4.37777">
        <ele>156.33333333333</ele>
        <time>2012-10-14T15:48:02Z</time>
      </trkpt>
      <trkpt lat="48.44599" lon="-4.37784">
        <ele>155.89999389648</ele>
        <time>2012-10-14T15:48:06Z</time>
      </trkpt>
      <trkpt lat="48.44584" lon="-4.3779">
        <ele>155.63334147135</ele>
        <time>2012-10-14T15:48:09Z</time>
      </trkpt>
      <trkpt lat="48.44567" lon="-4.37795">
        <ele>154.70001220703</ele>
        <time>2012-10-14T15:48:13Z</time>
      </trkpt>
      <trkpt lat="48.44553" lon="-4.37805">
        <ele>153.19999186198</ele>
        <time>2012-10-14T15:48:16Z</time>
      </trkpt>
      <trkpt lat="48.44555" lon="-4.3783">
        <ele>151.59999084473</ele>
        <time>2012-10-14T15:48:20Z</time>
      </trkpt>
      <trkpt lat="48.44561" lon="-4.37855">
        <ele>151.89999389648</ele>
        <time>2012-10-14T15:48:24Z</time>
      </trkpt>
      <trkpt lat="48.44567" lon="-4.37879">
        <ele>152.625</ele>
        <time>2012-10-14T15:48:28Z</time>
      </trkpt>
      <trkpt lat="48.44572" lon="-4.379">
        <ele>152.83333333333</ele>
        <time>2012-10-14T15:48:31Z</time>
      </trkpt>
      <trkpt lat="48.44578" lon="-4.37923">
        <ele>152.54998779297</ele>
        <time>2012-10-14T15:48:35Z</time>
      </trkpt>
      <trkpt lat="48.44584" lon="-4.37947">
        <ele>151.86665852865</ele>
        <time>2012-10-14T15:48:38Z</time>
      </trkpt>
      <trkpt lat="48.44591" lon="-4.37974">
        <ele>150.875</ele>
        <time>2012-10-14T15:48:42Z</time>
      </trkpt>
      <trkpt lat="48.44598" lon="-4.38005">
        <ele>150.27499389648</ele>
        <time>2012-10-14T15:48:46Z</time>
      </trkpt>
      <trkpt lat="48.44605" lon="-4.38034">
        <ele>150.17500305176</ele>
        <time>2012-10-14T15:48:50Z</time>
      </trkpt>
      <trkpt lat="48.44611" lon="-4.38055">
        <ele>150.17500305176</ele>
        <time>2012-10-14T15:48:54Z</time>
      </trkpt>
      <trkpt lat="48.44612" lon="-4.38074">
        <ele>150.03332519531</ele>
        <time>2012-10-14T15:48:57Z</time>
      </trkpt>
      <trkpt lat="48.44605" lon="-4.38095">
        <ele>150.14999389648</ele>
        <time>2012-10-14T15:49:01Z</time>
      </trkpt>
      <trkpt lat="48.44594" lon="-4.38118">
        <ele>150.47500610352</ele>
        <time>2012-10-14T15:49:05Z</time>
      </trkpt>
      <trkpt lat="48.44584" lon="-4.3814">
        <ele>150.90000915527</ele>
        <time>2012-10-14T15:49:09Z</time>
      </trkpt>
      <trkpt lat="48.44574" lon="-4.38163">
        <ele>151.04998779297</ele>
        <time>2012-10-14T15:49:12Z</time>
      </trkpt>
      <trkpt lat="48.44564" lon="-4.38185">
        <ele>151.25</ele>
        <time>2012-10-14T15:49:17Z</time>
      </trkpt>
      <trkpt lat="48.44554" lon="-4.38207">
        <ele>152.07501220703</ele>
        <time>2012-10-14T15:49:21Z</time>
      </trkpt>
      <trkpt lat="48.44544" lon="-4.38228">
        <ele>152.77500915527</ele>
        <time>2012-10-14T15:49:24Z</time>
      </trkpt>
      <trkpt lat="48.44536" lon="-4.38247">
        <ele>153.33333333333</ele>
        <time>2012-10-14T15:49:27Z</time>
      </trkpt>
      <trkpt lat="48.4453" lon="-4.38264">
        <ele>153.8666788737</ele>
        <time>2012-10-14T15:49:31Z</time>
      </trkpt>
      <trkpt lat="48.44521" lon="-4.38285">
        <ele>154.17500305176</ele>
        <time>2012-10-14T15:49:34Z</time>
      </trkpt>
      <trkpt lat="48.44513" lon="-4.38307">
        <ele>154.09997558594</ele>
        <time>2012-10-14T15:49:38Z</time>
      </trkpt>
      <trkpt lat="48.44505" lon="-4.3833">
        <ele>153.82499694824</ele>
        <time>2012-10-14T15:49:41Z</time>
      </trkpt>
      <trkpt lat="48.44497" lon="-4.38357">
        <ele>153.15000915527</ele>
        <time>2012-10-14T15:49:46Z</time>
      </trkpt>
      <trkpt lat="48.44492" lon="-4.38384">
        <ele>152.39999389648</ele>
        <time>2012-10-14T15:49:49Z</time>
      </trkpt>
      <trkpt lat="48.44487" lon="-4.38415">
        <ele>151.72499084473</ele>
        <time>2012-10-14T15:49:53Z</time>
      </trkpt>
      <trkpt lat="48.44482" lon="-4.38447">
        <ele>151.27499389648</ele>
        <time>2012-10-14T15:49:57Z</time>
      </trkpt>
      <trkpt lat="48.44479" lon="-4.38475">
        <ele>150.63334147135</ele>
        <time>2012-10-14T15:50:00Z</time>
      </trkpt>
      <trkpt lat="48.44476" lon="-4.38505">
        <ele>150.05000305176</ele>
        <time>2012-10-14T15:50:04Z</time>
      </trkpt>
      <trkpt lat="48.44473" lon="-4.38535">
        <ele>149.6333211263</ele>
        <time>2012-10-14T15:50:08Z</time>
      </trkpt>
      <trkpt lat="48.44471" lon="-4.38564">
        <ele>148.72499084473</ele>
        <time>2012-10-14T15:50:11Z</time>
      </trkpt>
      <trkpt lat="48.44469" lon="-4.38591">
        <ele>147.93334960938</ele>
        <time>2012-10-14T15:50:14Z</time>
      </trkpt>
      <trkpt lat="48.44466" lon="-4.38616">
        <ele>147.96667480469</ele>
        <time>2012-10-14T15:50:17Z</time>
      </trkpt>
      <trkpt lat="48.44463" lon="-4.38644">
        <ele>147.19999694824</ele>
        <time>2012-10-14T15:50:21Z</time>
      </trkpt>
      <trkpt lat="48.44463" lon="-4.38676">
        <ele>145.67498779297</ele>
        <time>2012-10-14T15:50:25Z</time>
      </trkpt>
      <trkpt lat="48.44469" lon="-4.387">
        <ele>142.625</ele>
        <time>2012-10-14T15:50:29Z</time>
      </trkpt>
      <trkpt lat="48.44474" lon="-4.38721">
        <ele>140.80000305176</ele>
        <time>2012-10-14T15:50:33Z</time>
      </trkpt>
      <trkpt lat="48.44467" lon="-4.38746">
        <ele>139.19999186198</ele>
        <time>2012-10-14T15:50:37Z</time>
      </trkpt>
      <trkpt lat="48.44451" lon="-4.38775">
        <ele>137.87498474121</ele>
        <time>2012-10-14T15:50:40Z</time>
      </trkpt>
      <trkpt lat="48.44435" lon="-4.38807">
        <ele>136.59999593099</ele>
        <time>2012-10-14T15:50:43Z</time>
      </trkpt>
      <trkpt lat="48.4442" lon="-4.38839">
        <ele>135.5</ele>
        <time>2012-10-14T15:50:47Z</time>
      </trkpt>
      <trkpt lat="48.44406" lon="-4.3887">
        <ele>134.46665445964</ele>
        <time>2012-10-14T15:50:50Z</time>
      </trkpt>
      <trkpt lat="48.44394" lon="-4.38894">
        <ele>133.73333740234</ele>
        <time>2012-10-14T15:50:53Z</time>
      </trkpt>
      <trkpt lat="48.44381" lon="-4.38922">
        <ele>133.57498168945</ele>
        <time>2012-10-14T15:50:57Z</time>
      </trkpt>
      <trkpt lat="48.44369" lon="-4.38951">
        <ele>133.77499389648</ele>
        <time>2012-10-14T15:51:02Z</time>
      </trkpt>
      <trkpt lat="48.44359" lon="-4.38978">
        <ele>134.39999389648</ele>
        <time>2012-10-14T15:51:05Z</time>
      </trkpt>
      <trkpt lat="48.44349" lon="-4.38998">
        <ele>135.20001220703</ele>
        <time>2012-10-14T15:51:08Z</time>
      </trkpt>
      <trkpt lat="48.4434" lon="-4.39013">
        <ele>135.73333740234</ele>
        <time>2012-10-14T15:51:11Z</time>
      </trkpt>
      <trkpt lat="48.44332" lon="-4.39032">
        <ele>136.30000305176</ele>
        <time>2012-10-14T15:51:15Z</time>
      </trkpt>
      <trkpt lat="48.44323" lon="-4.39052">
        <ele>137.10000610352</ele>
        <time>2012-10-14T15:51:20Z</time>
      </trkpt>
      <trkpt lat="48.44314" lon="-4.39072">
        <ele>138.125</ele>
        <time>2012-10-14T15:51:23Z</time>
      </trkpt>
      <trkpt lat="48.44305" lon="-4.39092">
        <ele>139.35000610352</ele>
        <time>2012-10-14T15:51:27Z</time>
      </trkpt>
      <trkpt lat="48.44295" lon="-4.39113">
        <ele>140.30000305176</ele>
        <time>2012-10-14T15:51:32Z</time>
      </trkpt>
      <trkpt lat="48.44286" lon="-4.39134">
        <ele>141.27500915527</ele>
        <time>2012-10-14T15:51:35Z</time>
      </trkpt>
      <trkpt lat="48.44277" lon="-4.39151">
        <ele>142.06665039062</ele>
        <time>2012-10-14T15:51:38Z</time>
      </trkpt>
      <trkpt lat="48.44269" lon="-4.39166">
        <ele>142.83331298828</ele>
        <time>2012-10-14T15:51:41Z</time>
      </trkpt>
      <trkpt lat="48.4426" lon="-4.39185">
        <ele>143.64999389648</ele>
        <time>2012-10-14T15:51:45Z</time>
      </trkpt>
      <trkpt lat="48.44249" lon="-4.39208">
        <ele>144.35000610352</ele>
        <time>2012-10-14T15:51:50Z</time>
      </trkpt>
      <trkpt lat="48.44239" lon="-4.39231">
        <ele>144.85000610352</ele>
        <time>2012-10-14T15:51:53Z</time>
      </trkpt>
      <trkpt lat="48.44228" lon="-4.39252">
        <ele>145.375</ele>
        <time>2012-10-14T15:51:57Z</time>
      </trkpt>
      <trkpt lat="48.44219" lon="-4.39267">
        <ele>145.69999186198</ele>
        <time>2012-10-14T15:52:00Z</time>
      </trkpt>
      <trkpt lat="48.44211" lon="-4.39281">
        <ele>145.92501831055</ele>
        <time>2012-10-14T15:52:04Z</time>
      </trkpt>
      <trkpt lat="48.44203" lon="-4.39297">
        <ele>145.90002441406</ele>
        <time>2012-10-14T15:52:07Z</time>
      </trkpt>
      <trkpt lat="48.44195" lon="-4.39309">
        <ele>145.59999593099</ele>
        <time>2012-10-14T15:52:10Z</time>
      </trkpt>
      <trkpt lat="48.44186" lon="-4.39322">
        <ele>145.35000610352</ele>
        <time>2012-10-14T15:52:14Z</time>
      </trkpt>
      <trkpt lat="48.44179" lon="-4.39333">
        <ele>144.93332926432</ele>
        <time>2012-10-14T15:52:17Z</time>
      </trkpt>
      <trkpt lat="48.44172" lon="-4.39344">
        <ele>144.69999694824</ele>
        <time>2012-10-14T15:52:21Z</time>
      </trkpt>
      <trkpt lat="48.44168" lon="-4.39356">
        <ele>144.5</ele>
        <time>2012-10-14T15:52:25Z</time>
      </trkpt>
      <trkpt lat="48.44166" lon="-4.39363">
        <ele>144.30000305176</ele>
        <time>2012-10-14T15:52:29Z</time>
      </trkpt>
      <trkpt lat="48.44166" lon="-4.39365">
        <ele>144.20001220703</ele>
        <time>2012-10-14T15:52:33Z</time>
      </trkpt>
      <trkpt lat="48.44166" lon="-4.39365">
        <ele>144.20001220703</ele>
        <time>2012-10-14T15:52:36Z</time>
      </trkpt>
      <trkpt lat="48.44166" lon="-4.39375">
        <ele>144.32501220703</ele>
        <time>2012-10-14T15:52:40Z</time>
      </trkpt>
      <trkpt lat="48.44157" lon="-4.39374">
        <ele>144.59999593099</ele>
        <time>2012-10-14T15:52:43Z</time>
      </trkpt>
      <trkpt lat="48.44142" lon="-4.3938">
        <ele>144.75</ele>
        <time>2012-10-14T15:52:47Z</time>
      </trkpt>
      <trkpt lat="48.44124" lon="-4.39398">
        <ele>144.72500610352</ele>
        <time>2012-10-14T15:52:51Z</time>
      </trkpt>
      <trkpt lat="48.44107" lon="-4.39415">
        <ele>144.6333211263</ele>
        <time>2012-10-14T15:52:54Z</time>
      </trkpt>
      <trkpt lat="48.44094" lon="-4.39433">
        <ele>144.57498168945</ele>
        <time>2012-10-14T15:52:58Z</time>
      </trkpt>
      <trkpt lat="48.44082" lon="-4.39449">
        <ele>144.43334960938</ele>
        <time>2012-10-14T15:53:01Z</time>
      </trkpt>
      <trkpt lat="48.44063" lon="-4.39457">
        <ele>143.89999389648</ele>
        <time>2012-10-14T15:53:05Z</time>
      </trkpt>
      <trkpt lat="48.44041" lon="-4.39474">
        <ele>143.17500305176</ele>
        <time>2012-10-14T15:53:09Z</time>
      </trkpt>
      <trkpt lat="48.4402" lon="-4.39492">
        <ele>142.53332519531</ele>
        <time>2012-10-14T15:53:12Z</time>
      </trkpt>
      <trkpt lat="48.43999" lon="-4.39509">
        <ele>142.35000610352</ele>
        <time>2012-10-14T15:53:16Z</time>
      </trkpt>
      <trkpt lat="48.43975" lon="-4.39526">
        <ele>141.92498779297</ele>
        <time>2012-10-14T15:53:20Z</time>
      </trkpt>
      <trkpt lat="48.43957" lon="-4.39541">
        <ele>141.1333211263</ele>
        <time>2012-10-14T15:53:23Z</time>
      </trkpt>
      <trkpt lat="48.43937" lon="-4.39548">
        <ele>140.82501220703</ele>
        <time>2012-10-14T15:53:27Z</time>
      </trkpt>
      <trkpt lat="48.43917" lon="-4.39546">
        <ele>140.83335367839</ele>
        <time>2012-10-14T15:53:30Z</time>
      </trkpt>
      <trkpt lat="48.43898" lon="-4.39542">
        <ele>140.87501525879</ele>
        <time>2012-10-14T15:53:34Z</time>
      </trkpt>
      <trkpt lat="48.43885" lon="-4.3954">
        <ele>140.43332926432</ele>
        <time>2012-10-14T15:53:37Z</time>
      </trkpt>
      <trkpt lat="48.43884" lon="-4.39533">
        <ele>140</ele>
        <time>2012-10-14T15:53:41Z</time>
      </trkpt>
      <trkpt lat="48.43884" lon="-4.39516">
        <ele>138.20001220703</ele>
        <time>2012-10-14T15:53:45Z</time>
      </trkpt>
      <trkpt lat="48.43882" lon="-4.39507">
        <ele>137.59997558594</ele>
        <time>2012-10-14T15:53:49Z</time>
      </trkpt>
      <trkpt lat="48.43882" lon="-4.39506">
        <ele>137.59997558594</ele>
        <time>2012-10-14T15:53:53Z</time>
      </trkpt>
      <trkpt lat="48.43882" lon="-4.39506">
        <ele>137.59997558594</ele>
        <time>2012-10-14T15:53:57Z</time>
      </trkpt>
      <trkpt lat="48.43882" lon="-4.39506">
        <ele>137.59997558594</ele>
        <time>2012-10-14T15:54:01Z</time>
      </trkpt>
      <trkpt lat="48.43882" lon="-4.39506">
        <ele>137.59997558594</ele>
        <time>2012-10-14T15:54:05Z</time>
      </trkpt>
      <trkpt lat="48.43882" lon="-4.39506">
        <ele>137.59997558594</ele>
        <time>2012-10-14T15:54:09Z</time>
      </trkpt>
      <trkpt lat="48.43882" lon="-4.39506">
        <ele>137.59997558594</ele>
        <time>2012-10-14T15:54:13Z</time>
      </trkpt>
      <trkpt lat="48.43882" lon="-4.39506">
        <ele>137.59997558594</ele>
        <time>2012-10-14T15:54:17Z</time>
      </trkpt>
      <trkpt lat="48.43882" lon="-4.39506">
        <ele>137.59997558594</ele>
        <time>2012-10-14T15:54:21Z</time>
      </trkpt>
      <trkpt lat="48.43882" lon="-4.39506">
        <ele>137.59997558594</ele>
        <time>2012-10-14T15:54:24Z</time>
      </trkpt>
      <trkpt lat="48.43882" lon="-4.39506">
        <ele>137.59997558594</ele>
        <time>2012-10-14T15:54:28Z</time>
      </trkpt>
      <trkpt lat="48.43882" lon="-4.39506">
        <ele>137.59997558594</ele>
        <time>2012-10-14T15:54:31Z</time>
      </trkpt>
      <trkpt lat="48.43882" lon="-4.39506">
        <ele>137.59997558594</ele>
        <time>2012-10-14T15:54:35Z</time>
      </trkpt>
      <trkpt lat="48.43882" lon="-4.39506">
        <ele>137.59997558594</ele>
        <time>2012-10-14T15:54:39Z</time>
      </trkpt>
      <trkpt lat="48.43882" lon="-4.39506">
        <ele>137.59997558594</ele>
        <time>2012-10-14T15:54:42Z</time>
      </trkpt>
      <trkpt lat="48.43882" lon="-4.39506">
        <ele>137.59997558594</ele>
        <time>2012-10-14T15:54:46Z</time>
      </trkpt>
      <trkpt lat="48.43882" lon="-4.39506">
        <ele>137.59997558594</ele>
        <time>2012-10-14T15:54:49Z</time>
      </trkpt>
      <trkpt lat="48.43882" lon="-4.39506">
        <ele>137.59997558594</ele>
        <time>2012-10-14T15:54:53Z</time>
      </trkpt>
      <trkpt lat="48.43882" lon="-4.39506">
        <ele>137.59997558594</ele>
        <time>2012-10-14T15:54:57Z</time>
      </trkpt>
      <trkpt lat="48.43882" lon="-4.39506">
        <ele>137.59997558594</ele>
        <time>2012-10-14T15:55:01Z</time>
      </trkpt>
      <trkpt lat="48.43882" lon="-4.39506">
        <ele>137.59997558594</ele>
        <time>2012-10-14T15:55:05Z</time>
      </trkpt>
      <trkpt lat="48.43882" lon="-4.39506">
        <ele>137.59997558594</ele>
        <time>2012-10-14T15:55:09Z</time>
      </trkpt>
      <trkpt lat="48.43882" lon="-4.39506">
        <ele>137.59997558594</ele>
        <time>2012-10-14T15:55:12Z</time>
      </trkpt>
      <trkpt lat="48.43882" lon="-4.39506">
        <ele>137.59997558594</ele>
        <time>2012-10-14T15:55:16Z</time>
      </trkpt>
      <trkpt lat="48.43882" lon="-4.39506">
        <ele>137.59997558594</ele>
        <time>2012-10-14T15:55:20Z</time>
      </trkpt>
      <trkpt lat="48.43882" lon="-4.39506">
        <ele>137.59997558594</ele>
        <time>2012-10-14T15:55:23Z</time>
      </trkpt>
      <trkpt lat="48.43882" lon="-4.39506">
        <ele>137.59997558594</ele>
        <time>2012-10-14T15:55:27Z</time>
      </trkpt>
      <trkpt lat="48.43882" lon="-4.39506">
        <ele>137.59997558594</ele>
        <time>2012-10-14T15:55:30Z</time>
      </trkpt>
      <trkpt lat="48.43882" lon="-4.39506">
        <ele>137.59997558594</ele>
        <time>2012-10-14T15:55:34Z</time>
      </trkpt>
      <trkpt lat="48.43882" lon="-4.39506">
        <ele>137.59997558594</ele>
        <time>2012-10-14T15:55:37Z</time>
      </trkpt>
      <trkpt lat="48.43882" lon="-4.39506">
        <ele>137.59997558594</ele>
        <time>2012-10-14T15:55:41Z</time>
      </trkpt>
      <trkpt lat="48.43882" lon="-4.39506">
        <ele>137.59997558594</ele>
        <time>2012-10-14T15:55:44Z</time>
      </trkpt>
      <trkpt lat="48.43882" lon="-4.39506">
        <ele>137.59997558594</ele>
        <time>2012-10-14T15:55:48Z</time>
      </trkpt>
      <trkpt lat="48.43882" lon="-4.39506">
        <ele>137.59997558594</ele>
        <time>2012-10-14T15:55:51Z</time>
      </trkpt>
      <trkpt lat="48.43882" lon="-4.39506">
        <ele>137.59997558594</ele>
        <time>2012-10-14T15:55:54Z</time>
      </trkpt>
      <trkpt lat="48.43882" lon="-4.39506">
        <ele>137.59997558594</ele>
        <time>2012-10-14T15:55:58Z</time>
      </trkpt>
      <trkpt lat="48.43882" lon="-4.39506">
        <ele>137.59997558594</ele>
        <time>2012-10-14T15:56:01Z</time>
      </trkpt>
      <trkpt lat="48.43882" lon="-4.39506">
        <ele>137.59997558594</ele>
        <time>2012-10-14T15:56:05Z</time>
      </trkpt>
    </trkseg>
  </trk>
</gpx>